[[{"header":{"parameterUnit":"m.s-1","parameterCategory":1,"la1":30.6,"la2":29.2853,"lo1":-89.7004,"lo2":-87.6739,"dx":0.0162,"dy":0.0183,"nx":112,"ny":82,"refTime":"2023-02-07T06:00:00:Z","depth":0,"parameterNumber":2,"parameterNumberName":"U-component_of_WINDS"},"data":[0.0,0.0,0.0,0.0,0.0,0.0,0.0,0.0,0.0,0.0,0.0,0.0,0.0,0.0,0.0,0.0,0.0,0.0,0.0,0.0,0.0,0.0,0.0,0.0,0.0,0.0,0.0,0.0,0.0,0.0,0.0,0.0,0.0,0.0,0.0,0.0,0.0,0.0,0.0,0.0,0.0,0.0,0.0,0.0,0.0,0.0,0.0,0.0,0.0,0.0,0.0,0.0,0.0,0.0,0.0,0.0,0.0,0.0,0.0,0.0,0.0,0.0,0.0,0.0,0.0,0.0,0.0,0.0,0.0,0.0,0.0,0.0,0.0,0.0,0.0,0.0,0.0,0.0,0.0,0.0,0.0,0.0,0.0,0.0,0.0,0.0,0.0,0.0,0.0,0.0,0.0,5.9099,5.9742,6.0114,6.0114,6.0114,6.0114,6.0114,0.0,0.0,0.0,0.0,0.0,0.0,0.0,0.0,0.0,0.0,0.0,0.0,0.0,0.0,0.0,0.0,0.0,0.0,0.0,0.0,0.0,0.0,0.0,0.0,0.0,0.0,0.0,0.0,0.0,0.0,0.0,0.0,0.0,0.0,0.0,0.0,0.0,0.0,0.0,0.0,0.0,0.0,0.0,0.0,0.0,0.0,0.0,0.0,0.0,0.0,0.0,0.0,0.0,0.0,0.0,0.0,0.0,0.0,0.0,0.0,0.0,0.0,0.0,0.0,0.0,0.0,0.0,0.0,0.0,0.0,0.0,0.0,0.0,0.0,0.0,0.0,0.0,0.0,0.0,0.0,0.0,0.0,0.0,0.0,0.0,0.0,0.0,0.0,0.0,0.0,0.0,0.0,0.0,0.0,0.0,0.0,0.0,0.0,0.0,0.0,0.0,0.0,0.0,0.0,5.981,5.9911,6.0047,6.0114,6.0114,6.0114,6.0114,6.0114,0.0,0.0,0.0,0.0,0.0,0.0,0.0,0.0,0.0,0.0,0.0,0.0,0.0,0.0,0.0,0.0,0.0,0.0,0.0,0.0,0.0,0.0,0.0,0.0,0.0,0.0,0.0,0.0,0.0,0.0,0.0,0.0,0.0,0.0,0.0,0.0,0.0,0.0,0.0,0.0,0.0,0.0,0.0,0.0,0.0,0.0,0.0,0.0,0.0,0.0,0.0,0.0,0.0,0.0,0.0,0.0,0.0,0.0,0.0,0.0,0.0,0.0,0.0,0.0,0.0,0.0,0.0,0.0,0.0,0.0,0.0,0.0,0.0,0.0,0.0,0.0,0.0,0.0,0.0,0.0,0.0,0.0,0.0,0.0,0.0,0.0,0.0,0.0,0.0,0.0,0.0,0.0,0.0,0.0,0.0,0.0,0.0,0.0,0.0,0.0,0.0,0.0,0.0,6.0625,6.0757,6.0757,6.1095,6.1332,6.1332,6.1332,6.1332,6.1332,6.1332,0.0,0.0,0.0,0.0,0.0,0.0,0.0,0.0,0.0,0.0,0.0,0.0,0.0,0.0,0.0,0.0,0.0,0.0,0.0,0.0,0.0,0.0,0.0,0.0,0.0,0.0,0.0,0.0,0.0,0.0,0.0,0.0,0.0,0.0,0.0,0.0,0.0,0.0,0.0,0.0,0.0,0.0,0.0,0.0,0.0,0.0,0.0,0.0,0.0,0.0,0.0,0.0,0.0,0.0,0.0,0.0,0.0,0.0,0.0,0.0,0.0,0.0,0.0,0.0,0.0,0.0,0.0,0.0,0.0,0.0,0.0,0.0,0.0,0.0,0.0,0.0,0.0,0.0,0.0,0.0,0.0,0.0,0.0,0.0,0.0,0.0,0.0,0.0,0.0,0.0,0.0,0.0,0.0,0.0,0.0,0.0,0.0,0.0,0.0,0.0,0.0,0.0,6.1586,6.1569,6.1569,6.2042,6.2381,6.2381,6.2381,6.2381,6.2381,6.2381,0.0,0.0,0.0,0.0,0.0,0.0,0.0,0.0,0.0,0.0,0.0,0.0,0.0,0.0,0.0,0.0,0.0,0.0,0.0,0.0,0.0,0.0,0.0,0.0,0.0,0.0,0.0,0.0,0.0,0.0,0.0,0.0,0.0,0.0,0.0,0.0,0.0,0.0,0.0,0.0,0.0,0.0,0.0,0.0,0.0,0.0,0.0,0.0,0.0,0.0,0.0,0.0,0.0,0.0,0.0,0.0,0.0,0.0,0.0,0.0,0.0,0.0,0.0,0.0,0.0,0.0,0.0,0.0,0.0,0.0,0.0,0.0,0.0,0.0,0.0,0.0,0.0,0.0,0.0,0.0,0.0,0.0,0.0,0.0,0.0,0.0,0.0,0.0,0.0,0.0,0.0,0.0,0.0,0.0,0.0,0.0,0.0,0.0,0.0,0.0,0.0,0.0,6.2358,6.2313,6.2313,6.2347,6.2381,6.2381,6.2381,6.2381,6.2381,6.2381,0.0,0.0,0.0,0.0,0.0,0.0,0.0,0.0,0.0,0.0,0.0,0.0,0.0,0.0,0.0,0.0,0.0,0.0,0.0,0.0,0.0,0.0,0.0,0.0,0.0,0.0,0.0,0.0,0.0,0.0,0.0,0.0,0.0,0.0,0.0,0.0,0.0,0.0,0.0,0.0,0.0,0.0,0.0,0.0,0.0,0.0,0.0,0.0,0.0,0.0,0.0,0.0,0.0,0.0,0.0,0.0,0.0,0.0,0.0,0.0,0.0,0.0,0.0,0.0,0.0,0.0,0.0,0.0,0.0,0.0,0.0,0.0,0.0,0.0,0.0,0.0,0.0,0.0,0.0,0.0,0.0,0.0,0.0,0.0,0.0,0.0,0.0,0.0,0.0,0.0,0.0,0.0,0.0,0.0,0.0,0.0,0.0,0.0,0.0,0.0,0.0,0.0,6.3886,6.3863,0.0,6.3768,6.3768,6.3768,6.3768,6.3768,6.3768,0.0,0.0,0.0,0.0,0.0,0.0,0.0,0.0,0.0,0.0,0.0,0.0,0.0,0.0,0.0,0.0,0.0,0.0,0.0,0.0,0.0,0.0,0.0,0.0,0.0,0.0,0.0,0.0,0.0,0.0,0.0,0.0,0.0,0.0,0.0,0.0,0.0,0.0,0.0,0.0,0.0,0.0,0.0,0.0,0.0,0.0,0.0,0.0,0.0,0.0,0.0,0.0,0.0,0.0,0.0,0.0,0.0,0.0,0.0,0.0,0.0,0.0,0.0,0.0,0.0,0.0,0.0,0.0,0.0,0.0,0.0,0.0,0.0,0.0,0.0,0.0,0.0,0.0,0.0,0.0,0.0,0.0,0.0,0.0,0.0,0.0,0.0,0.0,0.0,0.0,0.0,0.0,0.0,0.0,0.0,0.0,0.0,0.0,0.0,0.0,0.0,0.0,6.5252,6.5174,6.5042,0.0,6.4613,6.4613,6.4613,6.4613,6.4613,6.4613,0.0,0.0,0.0,0.0,0.0,0.0,0.0,0.0,0.0,0.0,0.0,0.0,0.0,0.0,0.0,0.0,0.0,0.0,0.0,0.0,0.0,0.0,0.0,0.0,0.0,0.0,0.0,0.0,0.0,0.0,0.0,0.0,0.0,0.0,0.0,0.0,0.0,0.0,0.0,0.0,0.0,0.0,0.0,0.0,0.0,0.0,0.0,0.0,0.0,0.0,0.0,0.0,0.0,0.0,0.0,0.0,0.0,0.0,0.0,0.0,0.0,0.0,0.0,0.0,0.0,0.0,0.0,0.0,0.0,0.0,0.0,0.0,0.0,0.0,0.0,0.0,0.0,0.0,0.0,0.0,0.0,0.0,0.0,0.0,0.0,0.0,0.0,0.0,0.0,0.0,0.0,0.0,0.0,0.0,0.0,0.0,0.0,0.0,0.0,0.0,0.0,0.0,6.6234,6.6011,6.5704,6.4776,6.4613,6.4613,6.4613,6.4613,6.4613,0.0,0.0,0.0,0.0,0.0,0.0,0.0,0.0,0.0,0.0,0.0,0.0,0.0,0.0,0.0,0.0,0.0,0.0,0.0,0.0,0.0,0.0,0.0,0.0,0.0,0.0,0.0,0.0,0.0,0.0,0.0,0.0,0.0,0.0,0.0,0.0,0.0,0.0,0.0,0.0,0.0,0.0,0.0,0.0,0.0,0.0,0.0,0.0,0.0,0.0,0.0,0.0,0.0,0.0,0.0,0.0,0.0,0.0,0.0,0.0,0.0,0.0,0.0,0.0,0.0,0.0,0.0,0.0,0.0,0.0,0.0,0.0,0.0,0.0,0.0,0.0,0.0,0.0,0.0,0.0,0.0,0.0,0.0,0.0,0.0,0.0,0.0,0.0,0.0,0.0,0.0,0.0,0.0,0.0,0.0,0.0,0.0,0.0,0.0,0.0,0.0,0.0,0.0,6.7905,6.7183,6.6823,6.7143,6.6596,6.617,6.617,6.617,6.617,6.617,0.0,0.0,0.0,0.0,0.0,0.0,0.0,0.0,0.0,0.0,0.0,0.0,0.0,0.0,0.0,0.0,0.0,0.0,0.0,0.0,0.0,0.0,0.0,0.0,0.0,0.0,0.0,0.0,0.0,0.0,0.0,0.0,0.0,0.0,0.0,0.0,0.0,0.0,0.0,0.0,0.0,0.0,0.0,0.0,0.0,0.0,0.0,0.0,0.0,0.0,0.0,0.0,0.0,0.0,0.0,0.0,0.0,0.0,0.0,0.0,0.0,0.0,0.0,0.0,0.0,0.0,0.0,0.0,0.0,0.0,0.0,0.0,0.0,0.0,0.0,0.0,0.0,0.0,0.0,0.0,0.0,0.0,0.0,0.0,0.0,0.0,0.0,0.0,0.0,0.0,0.0,0.0,0.0,0.0,0.0,0.0,0.0,0.0,0.0,0.0,0.0,0.0,6.9614,6.9034,6.8713,6.8838,6.7945,6.7535,6.7901,6.7243,6.6946,6.7291,0.0,0.0,0.0,0.0,0.0,0.0,0.0,0.0,0.0,0.0,0.0,0.0,0.0,0.0,0.0,0.0,0.0,0.0,0.0,0.0,0.0,0.0,0.0,0.0,0.0,0.0,0.0,0.0,0.0,0.0,0.0,0.0,0.0,0.0,0.0,0.0,0.0,0.0,0.0,0.0,0.0,0.0,0.0,0.0,0.0,0.0,0.0,0.0,0.0,0.0,0.0,0.0,0.0,0.0,0.0,0.0,0.0,0.0,0.0,0.0,0.0,0.0,0.0,0.0,0.0,0.0,0.0,0.0,0.0,0.0,0.0,0.0,0.0,0.0,0.0,0.0,0.0,0.0,0.0,0.0,0.0,0.0,0.0,0.0,0.0,0.0,0.0,0.0,0.0,0.0,0.0,0.0,0.0,0.0,0.0,0.0,0.0,0.0,0.0,0.0,0.0,0.0,7.1286,7.1095,7.0668,6.9919,6.8947,6.8723,6.9637,6.798,6.7291,6.8146,0.0,0.0,0.0,0.0,0.0,0.0,0.0,0.0,0.0,0.0,0.0,0.0,0.0,0.0,0.0,0.0,0.0,0.0,0.0,0.0,0.0,0.0,0.0,0.0,0.0,0.0,0.0,0.0,0.0,0.0,0.0,0.0,0.0,0.0,0.0,0.0,0.0,0.0,0.0,0.0,0.0,0.0,0.0,0.0,0.0,0.0,0.0,0.0,0.0,0.0,0.0,0.0,0.0,0.0,0.0,0.0,0.0,0.0,0.0,0.0,6.4273,0.0,0.0,0.0,0.0,0.0,0.0,0.0,0.0,0.0,0.0,0.0,0.0,0.0,0.0,0.0,0.0,0.0,0.0,0.0,0.0,0.0,0.0,0.0,0.0,0.0,0.0,0.0,0.0,0.0,0.0,0.0,0.0,0.0,0.0,0.0,0.0,0.0,0.0,0.0,0.0,0.0,7.213,7.0901,7.016,7.0734,6.9953,6.9493,6.9708,6.8572,6.799,6.8189,0.0,0.0,0.0,0.0,0.0,0.0,0.0,0.0,0.0,0.0,0.0,0.0,0.0,0.0,0.0,0.0,0.0,0.0,0.0,0.0,0.0,0.0,0.0,0.0,0.0,0.0,0.0,0.0,0.0,0.0,0.0,0.0,0.0,0.0,0.0,0.0,0.0,0.0,0.0,0.0,0.0,0.0,0.0,0.0,0.0,0.0,0.0,0.0,0.0,0.0,0.0,0.0,0.0,0.0,0.0,0.0,0.0,0.0,0.0,0.0,0.0,6.5301,0.0,0.0,0.0,0.0,0.0,0.0,0.0,0.0,0.0,0.0,0.0,0.0,0.0,0.0,0.0,0.0,0.0,0.0,0.0,0.0,0.0,0.0,0.0,0.0,0.0,0.0,0.0,0.0,0.0,0.0,0.0,0.0,0.0,0.0,0.0,0.0,0.0,0.0,0.0,0.0,7.2438,7.1671,7.1223,7.1732,7.093,7.0535,7.1031,6.9743,6.9095,6.9566,6.9168,0.0,0.0,0.0,0.0,0.0,0.0,0.0,0.0,0.0,0.0,0.0,0.0,0.0,0.0,0.0,0.0,0.0,0.0,0.0,0.0,0.0,0.0,0.0,0.0,0.0,0.0,0.0,0.0,0.0,0.0,0.0,0.0,0.0,0.0,0.0,0.0,0.0,0.0,0.0,0.0,0.0,0.0,0.0,0.0,0.0,0.0,0.0,0.0,0.0,0.0,0.0,0.0,0.0,0.0,6.5999,6.6182,6.6806,6.7136,6.71,6.6439,6.6072,6.5962,0.0,0.0,0.0,0.0,0.0,0.0,0.0,0.0,0.0,0.0,0.0,0.0,0.0,0.0,0.0,0.0,0.0,0.0,0.0,0.0,0.0,0.0,0.0,0.0,0.0,7.1027,7.1321,0.0,0.0,0.0,0.0,0.0,0.0,0.0,0.0,0.0,0.0,0.0,0.0,7.2679,7.2716,7.2753,7.2899,7.2194,7.2071,7.2841,7.1362,7.0725,7.1492,7.0793,7.0585,0.0,0.0,0.0,0.0,0.0,0.0,0.0,0.0,0.0,0.0,0.0,0.0,0.0,0.0,0.0,0.0,0.0,0.0,0.0,0.0,0.0,0.0,0.0,0.0,0.0,0.0,0.0,0.0,0.0,0.0,0.0,0.0,5.9968,6.0103,0.0,0.0,0.0,0.0,0.0,0.0,0.0,0.0,0.0,0.0,0.0,0.0,0.0,0.0,6.5301,6.5999,6.6696,6.7393,6.8091,6.8788,6.9486,6.9559,6.9633,6.9633,6.9522,0.0,6.8495,6.9192,0.0,0.0,0.0,0.0,0.0,0.0,0.0,0.0,0.0,0.0,0.0,0.0,0.0,0.0,0.0,0.0,0.0,0.0,0.0,0.0,0.0,0.0,7.2165,7.2165,7.2275,7.2312,0.0,7.2165,7.2202,7.2312,0.0,0.0,0.0,0.0,0.0,0.0,0.0,0.0,7.345,7.3523,7.3817,7.4515,7.4469,7.4469,7.4588,7.3579,7.305,7.3218,7.305,7.2391,7.0984,7.24,0.0,0.0,0.0,0.0,0.0,0.0,0.0,0.0,0.0,0.0,0.0,0.0,0.0,0.0,0.0,0.0,0.0,0.0,0.0,0.0,0.0,0.0,0.0,0.0,0.0,0.0,0.0,0.0,0.0,6.0199,6.0566,6.1006,6.1484,6.1961,0.0,0.0,0.0,0.0,0.0,0.0,0.0,0.0,0.0,6.6623,6.71,6.754,6.7981,6.8348,6.8678,6.9045,6.9412,6.9743,7.011,7.011,7.011,7.011,7.0587,7.0587,7.0257,7.0146,7.011,7.011,0.0,0.0,0.0,0.0,0.0,7.011,7.011,7.011,0.0,0.0,0.0,0.0,0.0,0.0,0.0,0.0,0.0,0.0,0.0,0.0,0.0,7.2496,7.2496,7.2496,7.2496,7.2863,7.3046,0.0,7.2496,7.2642,7.3083,0.0,0.0,0.0,0.0,0.0,7.4331,7.4368,7.4515,7.4882,7.4918,7.4918,7.4918,7.4543,7.4322,7.4322,7.4322,7.3951,7.3168,7.3934,7.4006,0.0,0.0,0.0,0.0,0.0,0.0,0.0,0.0,0.0,0.0,0.0,0.0,0.0,0.0,0.0,0.0,0.0,0.0,0.0,0.0,0.0,0.0,0.0,0.0,0.0,0.0,0.0,0.0,6.108,6.1557,6.2181,6.2952,6.3686,0.0,0.0,0.0,0.0,0.0,0.0,6.6219,6.699,6.7687,6.8274,6.8898,6.9486,7.0073,7.011,7.0183,7.0403,7.0403,7.0513,7.0697,7.0697,7.0697,7.0734,7.1358,7.1615,7.1578,7.0954,7.0697,7.0697,7.0697,7.0697,7.0697,7.0697,7.0697,7.0697,7.0697,7.0697,7.0697,7.0697,0.0,7.0844,7.1431,0.0,0.0,0.0,0.0,7.2496,7.2496,0.0,7.2569,7.2753,7.2826,7.2863,7.3083,7.3597,7.378,0.0,7.2973,7.3303,7.3891,0.0,0.0,0.0,0.0,7.4992,7.5175,7.5212,7.5285,7.5506,7.5542,7.5542,7.5542,7.5542,7.5542,7.5542,7.5542,7.5432,7.5212,7.5212,7.5139,7.4918,0.0,0.0,0.0,0.0,0.0,0.0,0.0,0.0,0.0,0.0,0.0,0.0,0.0,0.0,0.0,0.0,0.0,0.0,0.0,0.0,0.0,0.0,0.0,0.0,0.0,0.0,0.0,0.0,0.0,6.3943,6.4677,0.0,0.0,0.0,0.0,6.6366,6.7136,6.7907,6.8678,6.9486,6.9926,6.9963,7.0,7.0073,7.011,7.011,7.0477,7.1248,7.1248,7.1651,7.2386,7.2386,7.2386,7.2386,7.2422,7.2459,7.2459,7.2386,7.2386,7.2386,7.2386,7.2386,7.2386,7.2386,7.2386,7.2386,7.2386,7.2386,7.2386,7.2386,7.2386,7.2386,7.2422,7.2459,0.0,0.0,7.2496,7.2496,7.2496,7.2496,7.2679,7.345,7.3634,7.3854,7.4625,7.4808,7.4625,0.0,7.4258,7.4808,7.4845,0.0,7.4845,7.4918,7.4918,7.5175,7.5946,7.6056,7.635,7.7121,7.7194,7.7194,7.7194,7.7194,7.7194,7.7194,7.7194,7.6864,7.6056,7.6056,7.5689,7.4918,7.4918,0.0,0.0,0.0,0.0,0.0,0.0,0.0,0.0,0.0,0.0,0.0,0.0,0.0,0.0,0.0,0.0,0.0,0.0,0.0,0.0,0.0,0.0,0.0,0.0,0.0,0.0,0.0,0.0,6.4861,6.5595,0.0,0.0,6.7026,6.776,6.8017,6.8788,6.9376,6.9669,6.9926,7.033,7.0881,7.0881,7.1138,7.1651,7.1651,7.1798,7.2092,7.2092,7.2239,7.2496,7.2496,7.2496,7.2496,7.2496,7.2496,7.2496,7.2496,7.2496,7.2496,7.2496,7.2496,7.2496,7.2496,7.2496,7.2496,7.2496,7.2496,7.2496,7.2496,7.2496,7.2496,7.2496,7.2863,7.3266,7.3266,7.3634,7.4037,7.4037,7.4037,7.4111,7.4404,7.4478,7.4551,7.4845,7.5322,7.5579,7.5285,7.5065,7.5065,7.5579,7.5689,7.5873,7.6387,7.6937,7.7378,7.7671,7.8148,7.8589,7.8883,7.8919,7.8919,7.8919,7.8919,7.8919,7.8919,7.8919,7.8772,7.8479,7.7965,7.7561,7.7304,7.6754,7.6203,0.0,0.0,0.0,0.0,0.0,0.0,0.0,0.0,0.0,0.0,0.0,0.0,0.0,0.0,0.0,0.0,0.0,0.0,0.0,0.0,0.0,0.0,0.0,0.0,0.0,0.0,6.5815,6.6072,6.6806,6.743,6.7687,6.8678,6.9302,6.9302,7.0036,7.0513,7.0513,7.077,7.1138,7.1688,7.1725,7.1982,7.2496,7.2496,7.2496,7.2496,7.2496,7.2496,7.2496,7.2496,7.2642,7.2899,7.2899,7.3046,7.3303,7.3303,7.3303,7.3266,7.2716,7.2496,7.2496,7.2496,7.2679,7.2936,7.323,7.3303,7.3303,7.3303,7.3303,7.3303,7.3303,7.367,7.4111,7.4111,7.4478,7.4918,7.4918,7.4918,7.4992,7.5249,7.5322,7.5469,7.6019,7.657,7.7011,7.7304,7.6717,7.6313,7.6864,7.7157,7.7524,7.8075,7.8626,7.8993,7.8993,7.947,7.98,7.98,8.0021,8.0204,8.0204,8.0204,8.0204,8.0204,7.9947,7.98,7.98,7.9286,7.8993,7.8993,7.8185,7.7488,7.6937,0.0,0.0,0.0,0.0,0.0,0.0,0.0,0.0,0.0,0.0,0.0,0.0,0.0,0.0,0.0,0.0,0.0,0.0,0.0,0.0,0.0,0.0,0.0,6.5485,6.6072,6.688,6.7687,6.8458,6.9229,7.0,7.011,7.0146,7.0146,7.0881,7.1358,7.1358,7.2092,7.2496,7.2496,7.2496,7.2496,7.2496,7.2532,7.2532,7.2532,7.2569,7.2569,7.2569,7.2569,7.301,7.3744,7.3744,7.4184,7.4918,7.4918,7.4918,7.4771,7.3193,7.2569,7.2569,7.2569,7.3083,7.3854,7.4625,7.4918,7.4918,7.4918,7.4918,7.4918,7.4918,7.4918,7.4955,7.4955,7.4955,7.4992,7.5028,7.5028,7.5212,7.6019,7.6203,7.6644,7.8295,7.8626,7.8883,7.9653,7.9213,7.8699,7.8662,7.9286,7.98,7.98,7.9837,0.0,7.991,7.991,7.9947,7.9947,8.0645,8.1122,8.1122,8.1122,8.1122,8.1122,8.0388,7.9947,7.9947,7.991,7.9874,7.9837,7.9029,7.8626,7.8626,0.0,0.0,0.0,0.0,0.0,0.0,0.0,0.0,0.0,0.0,0.0,0.0,0.0,0.0,0.0,0.0,0.0,0.0,0.0,0.0,0.0,0.0,6.7944,6.7136,6.7724,6.8531,6.9339,6.9633,6.9853,7.0073,7.0624,7.0991,7.0991,7.1725,7.2165,7.2165,7.2386,7.2496,7.2496,7.2496,7.2496,7.2496,7.3083,7.3377,7.3377,7.3964,7.4258,7.4258,7.4258,7.4368,7.4588,7.4588,7.4698,7.4918,7.4918,7.4918,7.4882,7.4404,7.4258,7.4258,7.4258,7.4404,7.4625,7.4845,7.4918,7.4918,7.4918,7.4918,7.4918,7.4918,7.5322,7.5763,7.5763,7.6203,7.679,7.7414,7.7598,7.7781,7.8589,7.8772,7.8883,7.936,7.947,7.9543,7.9764,8.0534,8.0828,7.9653,7.9653,7.9984,8.0571,8.1158,0.0,8.2333,8.292,8.3287,8.3287,8.3471,8.3618,8.3618,8.3618,8.3618,8.3618,8.3398,8.3287,8.3287,8.2737,8.1856,8.0681,7.9874,7.947,0.0,0.0,0.0,0.0,0.0,0.0,0.0,0.0,0.0,0.0,0.0,0.0,0.0,0.0,0.0,0.0,0.0,0.0,0.0,0.0,0.0,0.0,6.9082,6.9376,6.9229,6.9302,6.9706,7.0513,7.0587,7.0734,7.1064,7.1541,7.1798,7.1798,7.2239,7.2496,7.2496,7.2496,7.2642,7.2973,7.301,7.3156,7.3523,7.3964,7.4184,7.4221,7.4698,7.5102,7.5395,7.5395,7.5799,0.0,7.646,7.6644,7.6937,7.6937,7.6937,0.0,0.0,0.0,0.0,0.0,7.5395,7.5469,7.5799,7.5909,7.5983,7.635,7.646,7.6533,7.6864,7.7268,7.7635,7.7635,7.8002,7.8479,7.8956,7.9103,7.9213,7.969,8.0057,8.0388,8.0718,8.1048,8.1415,8.1746,0.0,0.0,8.1966,8.1819,8.1966,8.2443,8.292,8.3361,8.3838,8.4315,8.4609,8.4609,8.4903,8.5086,8.5086,8.5086,0.0,0.0,0.0,8.4609,8.4609,8.4168,0.0,0.0,0.0,8.1122,0.0,0.0,0.0,0.0,7.7928,7.7598,0.0,0.0,0.0,0.0,0.0,0.0,0.0,0.0,0.0,0.0,0.0,0.0,0.0,0.0,0.0,0.0,7.022,7.0513,7.1321,7.0807,7.0624,7.1358,7.1468,7.1725,7.2422,7.2496,7.2496,7.2496,7.2496,7.2532,7.2642,0.0,0.0,0.0,0.0,7.4184,7.4918,7.5102,7.5175,7.5175,7.5359,7.5836,7.6533,7.6533,7.7341,7.8736,7.8736,7.914,7.98,7.98,7.98,7.9507,7.6607,7.5469,7.5542,7.624,7.6533,0.0,0.0,0.0,0.0,7.8479,7.8736,7.8883,7.958,7.98,7.98,7.98,7.9874,7.9947,8.0021,8.0131,8.0204,8.0314,8.0901,8.1599,8.2333,8.303,8.3765,8.4462,8.4682,8.4756,8.4756,8.4646,8.4646,8.4719,8.4756,8.4756,8.4866,8.4866,8.4866,8.4866,0.0,0.0,8.593,8.593,8.593,8.593,8.527,8.4866,8.4866,8.4792,8.4756,8.4756,8.3948,8.3177,8.248,8.1746,8.1048,8.0314,7.9947,7.98,0.0,0.0,0.0,0.0,0.0,0.0,0.0,0.0,0.0,0.0,0.0,0.0,0.0,0.0,0.0,7.0954,7.1064,7.1358,7.2165,7.2129,7.2092,7.2239,7.2275,7.2349,7.2496,7.2496,7.2496,7.2496,7.2496,7.2789,7.3413,7.345,0.0,7.4661,7.4661,7.4735,7.4918,7.6203,7.6864,7.6864,0.0,0.0,7.9066,7.9066,7.925,7.9543,7.9543,7.9653,7.98,7.98,7.98,7.9727,7.9103,7.8846,7.8846,7.9029,7.9066,7.9103,7.925,7.9323,7.9323,7.9507,7.9543,7.958,7.9727,7.98,0.0,7.98,8.0277,8.0901,8.1562,8.2223,8.2884,8.3508,8.3801,8.3948,8.4095,8.4278,8.4425,8.4572,8.5123,8.5563,8.5563,8.5013,8.4829,8.5453,8.5563,8.5783,8.6444,8.6554,8.6554,8.6554,8.6701,8.6775,8.6775,8.6775,8.6775,8.6775,8.6628,8.6554,8.6554,8.5894,8.5563,8.5563,8.4792,8.4278,8.4132,8.3985,8.3838,8.3618,8.1012,7.98,0.0,0.0,0.0,0.0,0.0,0.0,0.0,0.0,0.0,0.0,0.0,6.9743,0.0,0.0,7.0954,7.1762,7.1908,7.2055,7.2459,7.2496,7.2496,7.2496,7.2496,7.2496,7.2496,7.2496,7.2679,7.3083,7.3083,7.345,7.4258,7.4294,7.4845,7.6093,7.613,7.6497,7.7341,7.8148,7.8552,7.8552,7.9396,7.9984,8.0388,8.0828,8.1195,8.1636,8.2039,8.2186,8.2186,8.2186,8.2186,8.2186,8.2186,8.1195,7.98,7.98,8.0057,8.0388,8.0388,8.0645,8.1048,8.1452,8.1599,8.1672,8.2076,8.2186,8.2186,8.2186,8.248,8.2884,8.3287,8.3691,8.4095,8.4499,8.4903,8.5196,8.5196,8.5527,8.582,8.582,8.6151,8.6407,8.6407,8.6077,8.593,8.6334,8.6407,8.6554,8.6958,8.6995,8.6995,8.6995,8.6995,8.6995,8.6995,8.6995,8.6995,8.6995,8.6995,8.6995,8.6995,8.6628,8.6407,8.6407,8.6004,8.56,8.5196,8.5196,8.4976,8.4572,8.2957,8.2186,0.0,0.0,0.0,0.0,0.0,0.0,0.0,0.0,6.9376,7.0183,7.033,7.0587,7.1394,7.1541,7.1762,7.2386,7.2496,7.2496,7.2496,7.2496,7.2569,7.2716,7.2606,7.2569,7.2716,7.2716,7.3083,7.3854,7.3927,7.4368,7.5322,7.5395,7.613,7.7745,7.7818,7.8442,7.9764,8.0094,8.0241,8.0241,8.0571,8.1048,8.1709,8.237,8.303,8.3691,8.4315,8.4609,8.4609,8.4609,8.4609,8.4609,8.4609,8.303,8.0718,8.0718,8.1122,8.1709,8.1709,8.2113,8.2774,8.3434,8.3654,8.3765,8.4389,8.4609,8.4609,8.4609,8.4719,8.4829,8.4829,8.4939,8.5086,8.5086,8.5563,8.604,8.604,8.6554,8.6995,8.6995,8.7142,8.7252,8.7252,8.7362,8.7435,8.7252,8.7252,8.7288,8.7472,8.7472,8.7472,8.7472,8.7472,8.7472,8.7472,8.7472,8.7472,8.7472,8.7472,8.7472,8.7472,8.7325,8.7252,8.7252,8.7105,8.6701,8.604,8.604,8.571,8.5086,8.5086,8.4903,6.743,6.8017,0.0,6.9633,6.9816,6.9853,0.0,0.0,7.0183,7.1027,7.1174,7.1431,7.2239,7.2386,7.2422,7.2496,7.2496,7.2496,7.2496,7.2496,7.2789,7.3487,7.2936,7.2789,7.3487,7.356,7.3891,7.4735,7.4771,7.5432,7.6974,7.7047,7.7818,7.947,7.9507,7.958,7.98,8.1195,8.1929,8.1929,8.3361,8.4095,8.4205,8.4278,8.4389,8.4462,8.4572,8.4609,8.4609,8.4609,8.4609,8.4609,8.4609,8.4389,8.4058,8.4058,8.4132,8.4205,8.4205,8.4278,8.4352,8.4425,8.4462,8.4499,8.4572,8.4609,8.4609,8.4609,8.5123,8.5673,8.5673,8.6187,8.6738,8.6738,8.6811,8.6885,8.6885,8.6958,8.6995,8.6995,8.7582,8.8059,8.8059,8.8683,8.8904,8.8169,8.8059,8.8316,8.905,8.916,8.916,8.916,8.916,8.916,8.916,8.916,8.916,8.916,8.916,8.916,8.916,8.8463,8.8059,8.8059,8.7362,8.6958,8.6885,8.6885,8.6811,8.6738,8.6738,8.5967,6.8972,0.0,0.0,0.0,7.011,7.022,7.0697,7.0807,7.1027,7.1835,7.2018,7.2092,7.2459,7.2496,7.2496,0.0,7.2496,7.2496,7.2496,7.2899,7.3303,7.367,7.3817,7.4037,7.4368,7.4404,7.4918,7.6203,7.6313,7.7047,7.8662,7.8736,7.9286,8.0461,8.0938,8.1415,8.1893,8.303,8.3581,8.3618,8.4278,8.4609,8.4609,8.5086,8.5563,8.6004,8.6004,8.6004,8.6004,8.6004,8.6004,8.6004,8.6004,8.6004,8.5894,8.4939,8.4903,8.5306,8.5306,8.56,8.6004,8.6004,8.6004,8.6004,8.6004,8.6004,8.6004,8.6004,8.6261,8.6518,8.6518,8.6738,8.6995,8.6995,8.6995,8.7142,8.7619,8.7692,8.7839,8.8316,8.8683,8.8904,8.8904,8.9197,8.9454,8.9601,8.9197,8.905,8.9381,8.9417,8.9417,8.9417,8.9417,8.9417,8.9417,8.9417,8.9417,8.9417,8.9417,8.9417,8.9417,8.9087,8.8904,8.8904,8.8573,8.8426,8.8426,8.8426,8.8426,8.839,8.7912,8.7325,7.022,0.0,0.0,7.0697,7.077,7.0917,7.1505,7.1651,7.1798,7.2386,7.2496,7.2496,7.2496,7.2496,0.0,7.2496,7.2679,7.2826,7.2826,7.3523,7.4111,7.4331,7.5065,7.5689,7.5909,7.5726,7.6166,7.7561,7.7855,7.8626,8.0057,8.0314,8.0828,8.1636,8.2443,8.3141,8.3728,8.4535,8.4939,8.4939,8.5159,8.527,8.527,8.5857,8.6444,8.6995,8.6995,8.6995,8.6995,8.6995,8.6995,8.6995,8.6995,8.6995,8.6885,8.571,8.5637,8.6114,8.6114,8.6518,8.6995,8.6995,8.6995,8.6995,8.6995,8.6995,8.6995,8.6995,8.6995,8.7068,8.7288,8.7325,8.7399,8.7619,8.7692,8.7839,8.8426,8.8536,8.872,8.9307,8.9601,8.9821,9.0041,9.0262,9.0702,9.151,9.1143,9.0665,9.0482,9.0629,9.0776,9.0776,9.0776,9.0776,9.0776,9.0776,9.0776,9.0776,9.0776,9.0665,9.0445,9.0188,8.9968,8.9748,8.9528,8.9417,8.9417,8.9417,8.9417,8.9417,8.8793,8.8536,0.0,0.0,7.1468,7.2239,7.2422,7.2422,7.2459,7.2459,7.2459,7.2496,7.2496,7.2496,7.2496,7.2496,7.2496,7.2496,7.3156,7.367,7.367,7.4368,7.5175,7.5946,7.6754,7.7561,0.0,7.7745,7.7598,7.8479,7.9286,8.0094,8.0938,8.1709,8.2517,8.3324,8.4132,8.4535,8.4572,8.5343,8.5747,8.5747,8.6554,8.6921,8.6921,8.6958,8.6995,8.6995,8.6995,8.6995,8.6995,8.6995,8.6995,8.6995,8.6995,8.6995,8.6995,8.6958,8.6958,8.6958,8.6958,8.6995,8.6995,8.6995,8.6995,8.6995,8.6995,8.6995,8.6995,8.6995,8.6995,8.7178,8.7949,8.8169,8.8353,8.916,8.9344,8.9344,8.9381,8.9381,8.9381,8.9417,9.0041,9.0812,9.1583,9.2427,9.3272,9.4079,9.4153,9.3859,9.3088,9.3675,9.4153,9.4153,9.4153,9.4153,9.4153,9.4153,9.4153,9.4153,9.4153,9.3786,9.3015,9.217,9.1363,9.0592,8.9821,8.9417,8.9417,8.9417,8.9417,8.9417,8.9381,8.9381,0.0,0.0,7.2165,7.2422,7.2496,7.2496,7.2496,7.2496,7.2496,7.2496,7.2496,7.2496,7.2496,7.2496,7.2679,7.3193,7.3523,7.3891,7.4441,7.5212,7.5983,7.6827,7.7671,0.0,0.0,0.0,0.0,8.0131,8.0938,8.1746,8.2553,8.3361,8.3911,8.4205,8.4976,8.538,8.538,8.6187,8.6591,8.6591,8.6885,8.6995,8.6995,8.6995,8.6995,8.6995,8.6995,8.6995,8.6995,8.6995,8.6995,8.7068,8.7582,8.7802,8.7876,8.8426,8.861,8.8463,8.7399,8.6995,8.6995,8.6995,8.6995,8.7105,8.7619,8.7802,8.7912,8.8463,8.861,8.8683,8.894,8.9014,8.9087,8.9344,8.9417,8.9564,9.0078,9.0629,9.1179,9.1767,9.2501,9.3125,9.3418,9.3712,9.3969,9.4263,9.4299,9.4189,9.3932,9.4116,9.4299,9.4299,9.4299,9.4299,9.4299,9.4299,9.4299,9.4299,9.4299,9.4189,9.3896,9.3602,9.3308,9.3051,9.2794,9.2648,9.2648,9.2134,9.1877,9.184,9.0739,9.0225,0.0,7.2496,7.2496,7.2496,7.2496,7.2496,7.2496,7.2496,7.2496,7.2496,7.2496,7.2606,7.2899,7.2936,7.3193,7.4001,7.4368,7.4845,7.5652,7.646,7.7304,7.8112,7.8956,0.0,0.0,0.0,0.0,8.1415,8.2186,8.2994,8.3801,8.4609,8.5013,8.5013,8.582,8.6224,8.6224,8.6738,8.6995,8.6995,8.6995,8.6995,8.6995,8.6995,8.7178,8.7435,8.7435,8.7582,8.7876,8.7876,8.7876,8.7912,8.8426,8.8647,8.8683,8.9234,8.9417,8.9271,8.8243,8.7876,8.7876,8.7876,8.7876,8.7949,8.8463,8.8647,8.8757,8.9271,8.9417,8.9491,8.9784,8.9858,8.9931,9.0188,9.0519,9.0886,9.14,9.2134,9.2868,9.3418,9.3932,9.4373,9.4666,9.496,9.5144,9.5144,9.5401,9.5364,9.4813,9.496,9.5144,9.5144,9.5144,9.5144,9.5144,9.5144,9.5144,9.5144,9.5144,9.5034,9.474,9.474,9.4593,9.4299,9.4299,9.4299,9.4299,9.3786,9.3529,9.3492,9.2427,9.1913,7.2496,7.2496,7.2496,7.2496,7.2496,7.2496,7.2496,7.2496,7.2496,7.2496,7.2532,7.2789,0.0,0.0,7.4001,7.4845,7.5652,7.646,7.7268,7.8112,7.8956,0.0,0.0,0.0,0.0,0.0,0.0,8.2443,0.0,8.3875,8.4609,8.5416,8.5857,8.5857,8.6591,8.6995,8.6995,8.6995,8.6995,8.6995,8.7031,8.7068,8.7068,8.7105,8.7545,8.828,8.828,8.8683,8.9417,8.9417,8.9417,8.9417,8.9454,8.9491,8.9491,8.9528,8.9528,8.9528,8.9528,8.9491,8.9417,8.9417,8.9417,8.9417,8.9454,8.9491,8.9491,8.9528,8.9528,8.9711,9.0519,9.0739,9.0922,9.173,9.2574,9.3161,9.3161,9.3786,9.4373,9.4373,9.4373,9.4666,9.5474,9.6282,9.6795,9.6832,9.7456,9.7383,9.5841,9.6318,9.6832,9.6832,9.6832,9.6832,9.6832,9.6832,9.6832,9.6832,9.6832,9.6465,9.5658,9.5621,9.5254,9.4446,9.441,9.441,9.441,9.4373,9.4373,9.4373,9.4299,9.4299,7.2496,7.2496,7.2496,7.2496,7.2496,7.2496,7.2496,7.2496,7.2496,7.2496,7.2973,7.345,0.0,0.0,0.0,7.5652,7.6497,0.0,7.8148,7.8993,0.0,0.0,0.0,8.2223,8.303,8.3838,0.0,0.0,8.5049,8.527,8.549,8.6261,8.6701,8.6701,8.6885,8.6995,8.6995,8.6995,8.6995,8.7031,8.7619,8.7876,8.7912,8.8536,8.8904,8.9087,8.9087,8.9234,8.9417,8.9417,8.9417,8.9491,9.0078,9.0298,9.0372,9.0959,9.1179,9.1179,9.1179,9.0408,8.9417,8.9417,8.9417,8.9528,9.0115,9.0298,9.0445,9.1033,9.1179,9.14,9.2244,9.2464,9.2684,9.3455,9.3822,9.3969,9.3969,9.463,9.518,9.518,9.5694,9.6355,9.7163,9.7456,9.7787,9.8411,9.8668,9.8447,9.7419,9.8007,9.8484,9.8484,9.8484,9.8484,9.8484,9.8484,9.8484,9.8484,9.8484,9.8117,9.7309,9.7273,9.6906,9.6098,9.6098,9.6098,9.6098,9.5511,9.518,9.518,9.4593,9.4299,7.2496,7.2496,7.2496,7.2496,7.2496,7.2496,7.2496,7.2496,7.2606,7.2936,7.3377,0.0,0.0,0.0,0.0,0.0,0.0,0.0,7.8993,7.98,8.0755,0.0,8.2443,0.0,8.4352,8.4866,8.5453,0.0,8.6004,8.593,8.6297,8.6775,8.6995,8.6995,8.6995,8.6995,8.6995,8.7362,8.7545,8.7545,8.8353,8.872,8.8757,8.9197,8.9601,8.9931,0.0,9.0152,9.0445,9.0445,9.0445,9.0519,9.0959,9.1143,9.1216,9.206,9.2354,9.2427,9.2758,9.2317,9.1436,9.0702,9.0739,9.1106,9.1583,9.195,9.2317,9.2758,9.2905,9.3015,9.3492,9.3639,9.3749,9.4189,9.4556,9.4813,9.4813,9.5474,9.6135,9.6502,9.6906,9.7493,9.83,9.8411,9.8594,9.9035,9.9402,9.9475,9.8998,9.9035,9.9108,9.9108,9.9108,9.9108,9.9108,9.9108,9.9108,9.9108,9.9108,9.8924,9.8447,9.8411,9.8227,9.775,9.775,9.775,9.775,9.7309,9.6906,9.6539,9.6098,9.5694,7.2496,7.2496,7.2496,7.2496,7.2496,7.2496,7.2496,7.2569,7.2863,7.356,0.0,0.0,7.5836,0.0,7.6533,7.7341,0.0,7.9029,7.9837,8.0755,8.1856,8.3251,8.3618,8.4278,8.5637,8.5894,8.6261,8.6958,8.6334,8.6261,8.6958,8.6995,8.6995,8.6995,8.7105,8.7178,8.7178,8.7949,8.8353,8.839,8.9197,8.9564,8.9564,8.9674,9.0115,9.0776,0.0,0.0,9.1803,9.1913,9.195,9.1987,9.2097,9.2134,9.2207,9.2978,9.3272,9.3345,9.4042,9.4299,9.4042,9.2611,9.2648,9.3272,9.3272,9.3749,9.4299,9.4299,9.4299,9.4299,9.441,9.4446,9.4483,9.4593,9.5144,9.5658,9.5658,9.6282,9.7089,9.7897,9.8043,9.83,9.9145,9.9255,9.9292,9.9402,9.9989,10.0503,10.0503,9.9842,9.9438,9.9438,9.9438,9.9438,9.9438,9.9438,9.9438,9.9438,9.9438,9.9365,9.9255,9.9255,9.9218,9.9108,9.9108,9.9108,9.9108,9.9108,9.8741,9.8043,9.8043,9.7676,7.2496,7.2496,7.2496,7.2496,7.2496,7.2496,7.2496,7.301,0.0,0.0,0.0,7.5763,7.6056,7.6644,0.0,7.8222,0.0,0.0,0.0,0.0,8.3104,0.0,0.0,0.0,0.0,0.0,0.0,0.0,0.0,0.0,8.6995,8.6995,8.6995,8.6995,8.7655,8.7986,8.7986,8.8793,8.9197,8.9234,9.0005,9.0408,9.0408,9.1069,9.1473,9.1583,0.0,0.0,9.184,9.2574,9.2868,9.2941,9.3602,9.3859,9.3859,9.4042,9.4079,9.4116,9.4226,9.4299,9.4226,9.3969,9.3969,9.4079,9.4079,9.4189,9.4299,9.4299,9.4299,9.4446,9.5144,9.529,9.5474,9.6135,9.6392,9.6502,9.6502,9.7126,9.7933,9.8741,9.8888,9.9145,9.9952,10.0099,10.0319,10.098,10.12,10.1274,10.1274,10.12,10.109,10.109,10.109,10.109,10.109,10.109,10.109,10.109,10.109,10.0796,10.0099,10.0099,9.9769,9.9108,9.9108,9.9108,9.9108,9.9108,9.9035,9.8888,9.8888,9.8814,7.2496,7.2496,7.2496,7.2496,7.2496,7.2606,7.3046,0.0,0.0,0.0,0.0,7.624,7.6644,0.0,0.0,0.0,0.0,0.0,0.0,0.0,0.0,0.0,0.0,0.0,0.0,0.0,0.0,0.0,0.0,0.0,8.6995,8.7399,8.7619,8.7619,8.839,8.883,8.883,8.9638,9.0041,9.0041,9.0849,9.1216,9.1253,9.162,9.1803,9.184,9.2281,0.0,9.2537,9.3382,9.3712,9.3749,9.4153,9.4299,9.4336,9.4777,9.4923,9.4997,9.5401,9.5547,9.5547,9.5547,9.5254,9.4923,9.4923,9.5217,9.5547,9.5547,9.5547,9.5658,9.6025,9.6135,9.6208,9.6612,9.7016,9.7456,9.786,9.8264,9.8778,9.9585,9.9732,9.9989,10.0796,10.0907,10.109,10.1384,10.1494,10.1494,10.1494,10.1898,10.1971,10.1494,10.1494,10.1494,10.1494,10.1494,10.1494,10.1494,10.1494,10.1274,10.0907,10.0907,10.0686,10.0393,10.0319,10.0319,10.0319,10.0319,10.0099,9.9732,9.9732,9.9512,7.2496,7.2496,7.2496,7.2496,7.2496,7.2716,7.3523,7.3817,0.0,0.0,0.0,0.0,0.0,0.0,0.0,0.0,0.0,0.0,0.0,0.0,0.0,0.0,0.0,0.0,0.0,0.0,0.0,0.0,0.0,0.0,8.7252,8.7876,8.828,8.8463,8.9271,8.9674,8.9674,9.0482,9.0849,9.0849,9.151,9.1803,9.1803,9.1987,9.206,9.2134,9.2978,0.0,0.0,9.4226,9.4556,9.4556,9.474,9.4813,9.4887,9.5511,9.5768,9.5878,9.6502,9.6685,9.6685,9.6685,9.6282,9.5768,9.5768,9.6208,9.6685,9.6685,9.6685,9.6722,9.6906,9.6942,9.7016,9.7163,9.7713,9.8374,9.9181,9.9365,9.9622,10.0393,10.0576,10.0796,10.1384,10.1494,10.1494,10.1494,10.1604,10.1788,10.1788,10.2485,10.2705,10.2081,10.1971,10.1971,10.1971,10.1971,10.1971,10.1971,10.1971,10.1898,10.1788,10.1788,10.1677,10.1494,10.1494,10.1494,10.1494,10.1494,10.12,10.0576,10.0576,10.0209,7.2496,7.2496,7.2496,7.2496,7.2496,7.2716,7.3523,0.0,0.0,0.0,0.0,0.0,0.0,0.0,0.0,0.0,0.0,0.0,0.0,0.0,0.0,0.0,0.0,0.0,0.0,0.0,0.0,0.0,0.0,0.0,0.0,8.8169,8.8536,8.9271,9.0078,9.0482,9.0482,9.1289,9.1693,9.1693,9.1767,9.1803,9.184,9.2611,9.2978,9.3015,9.3822,0.0,0.0,9.507,9.5401,9.5474,9.6208,9.6465,9.6502,9.6575,9.6575,9.6612,9.6685,9.6685,9.6685,9.6685,9.6649,9.6575,9.6575,9.6649,9.6685,9.6685,9.6685,9.6869,9.7603,9.7787,9.797,9.8704,9.8961,9.9218,9.9989,10.0209,10.0393,10.12,10.1384,10.1384,10.1494,10.1494,10.1494,10.1494,10.2081,10.2595,10.2595,10.3293,10.3806,10.3696,10.3696,10.3696,10.3696,10.3696,10.3696,10.3696,10.3696,10.3403,10.2595,10.2595,10.2191,10.1494,10.1494,10.1494,10.1494,10.1494,10.1494,10.1384,10.1384,10.1384,7.2496,7.2496,7.2496,7.2496,7.2863,7.3413,7.4258,0.0,0.0,0.0,0.0,0.0,0.0,0.0,0.0,0.0,0.0,0.0,0.0,0.0,0.0,0.0,0.0,0.0,0.0,0.0,0.0,0.0,0.0,0.0,0.0,8.9638,8.9784,9.0115,9.0922,9.1326,9.1326,9.1657,9.1803,9.1803,9.1803,9.206,9.2611,9.2941,9.3345,9.3859,9.4666,0.0,0.0,9.5878,9.6208,9.6245,9.6575,9.6685,9.6685,9.6685,9.6685,9.6685,9.6685,9.6685,9.6685,9.6685,9.7016,9.7309,9.6832,9.7052,9.7419,9.7419,9.7787,9.8227,9.8557,9.8631,9.8814,9.9622,9.9805,9.9989,10.0796,10.098,10.109,10.1384,10.1494,10.1494,10.1494,10.1494,10.1677,10.2118,10.2485,10.2889,10.3403,10.41,10.4614,10.4614,10.421,10.388,10.388,10.388,10.388,10.388,10.388,10.3806,10.3403,10.3403,10.3293,10.2999,10.2889,10.2889,10.2889,10.2485,10.2191,10.2191,10.1677,10.1494,7.2997,7.2889,7.2816,7.2997,7.3643,7.4458,0.0,0.0,0.0,0.0,0.0,0.0,7.8363,7.8982,7.966,0.0,0.0,8.2423,0.0,0.0,0.0,0.0,0.0,0.0,0.0,0.0,0.0,0.0,0.0,0.0,0.0,9.0849,9.0959,9.0959,9.151,9.1803,9.1803,9.1803,9.1913,9.217,9.217,9.2611,9.3455,9.3712,9.4116,9.4703,0.0,0.0,0.0,9.6465,9.6685,9.6685,9.6685,9.6685,9.6685,9.6685,9.6685,9.6685,9.6685,9.6869,9.7052,9.7052,9.7603,9.8154,9.7566,9.7823,9.8264,9.8264,9.8814,9.9475,9.9475,9.9622,9.9952,10.0503,10.0686,10.0796,10.1384,10.1494,10.1494,10.1494,10.1494,10.1494,10.1494,10.1677,10.2008,10.2595,10.3109,10.3623,10.421,10.5018,10.5495,10.5495,10.4981,10.4614,10.4614,10.4614,10.4614,10.4614,10.4614,10.4504,10.4284,10.4284,10.41,10.388,10.388,10.388,10.388,10.3293,10.3109,10.2999,10.2485,10.2191,7.4117,7.3841,7.3504,7.4117,7.4897,7.5689,0.0,0.0,0.0,0.0,0.0,0.0,7.8379,8.0155,8.1445,8.0895,8.2109,8.3748,8.5328,0.0,0.0,0.0,0.0,0.0,0.0,0.0,0.0,0.0,0.0,0.0,0.0,9.1363,9.1803,9.1803,9.1803,9.1803,9.1803,9.1803,9.2244,9.3088,9.3088,9.3529,9.4299,9.5107,9.5474,0.0,0.0,0.0,0.0,9.6685,9.6685,9.6685,9.6685,9.6685,9.6685,9.6685,9.6685,9.6685,9.6685,9.7199,9.7897,9.7897,9.8411,9.9108,9.9071,9.9071,9.9108,9.9108,9.9659,10.0283,10.0283,10.0907,10.1494,10.1494,10.1494,10.1494,10.1494,10.1494,10.1494,10.1494,10.1494,10.1494,10.1494,10.2191,10.2705,10.2705,10.41,10.5128,10.5128,10.5789,10.6376,10.6376,10.6376,10.6376,10.6376,10.6376,10.6376,10.6376,10.6376,10.6009,10.5128,10.5128,10.4724,10.388,10.388,10.388,10.388,10.388,10.388,10.388,10.388,10.388,7.4249,7.4161,7.4184,7.4928,7.5727,7.6519,7.7387,0.0,0.0,0.0,0.0,0.0,7.9556,8.0696,8.1641,8.1482,8.2403,8.3748,0.0,0.0,0.0,0.0,0.0,0.0,0.0,0.0,0.0,0.0,0.0,0.0,0.0,9.1657,9.1803,9.1803,9.1803,9.1803,9.1803,9.2391,9.2831,9.3125,9.3675,9.4336,9.5144,9.5401,0.0,0.0,0.0,0.0,0.0,9.6685,9.6685,9.6685,9.6685,9.6685,9.6685,9.6685,9.7052,9.753,9.753,9.8043,9.8741,9.8741,9.9255,9.9916,9.9916,9.9916,9.9989,10.0613,10.0907,10.109,10.109,10.1274,10.1494,10.1494,10.1494,10.1494,10.1494,10.1494,10.1494,10.1494,10.1898,10.2301,10.2301,10.2999,10.3696,10.432,10.4798,10.5311,10.5899,10.6192,10.6376,10.6376,10.6376,10.6376,10.6376,10.6376,10.6376,10.6376,10.6376,10.6302,10.6009,10.6009,10.5899,10.5605,10.5605,10.5605,10.5605,10.5018,10.4394,10.388,10.388,10.388,0.0,7.4749,7.4859,7.5893,7.6769,0.0,0.0,0.0,0.0,0.0,0.0,0.0,8.0583,8.1568,8.2471,8.252,8.3339,8.4478,8.5788,0.0,0.0,0.0,0.0,0.0,0.0,0.0,0.0,0.0,0.0,0.0,0.0,0.0,9.1803,9.1803,9.1803,9.195,9.2281,9.2831,9.3418,9.4006,9.452,9.518,9.5951,9.5951,0.0,0.0,0.0,0.0,0.0,9.6685,9.6685,9.6685,9.6685,9.6906,9.7163,9.7163,9.764,9.8337,9.8337,9.8888,9.9548,9.9548,10.0099,10.0796,10.0796,10.0796,10.0907,10.1384,10.1494,10.1494,10.1494,10.1494,10.1494,10.1494,10.1494,10.1494,10.1494,10.1494,10.1604,10.1898,10.2412,10.2815,10.3109,10.3806,10.4504,10.5018,10.5422,10.5789,10.6302,10.6376,10.6376,10.6376,10.6376,10.6376,10.6376,10.6376,10.6376,10.6376,10.6376,10.6376,10.6376,10.6376,10.6376,10.6376,10.6376,10.6376,10.6376,10.5899,10.5311,10.4798,10.4798,10.4798,0.0,0.0,0.0,0.0,0.0,0.0,0.0,0.0,0.0,0.0,0.0,0.0,0.0,8.2633,8.3653,8.3907,8.4803,8.5726,0.0,0.0,0.0,0.0,0.0,0.0,0.0,0.0,0.0,0.0,0.0,0.0,0.0,0.0,9.184,9.1877,9.1877,9.2281,9.3088,9.3198,9.4042,9.5511,9.5584,9.5988,9.6685,9.6685,0.0,0.0,0.0,0.0,0.0,9.6685,9.6685,9.6722,9.6759,9.7236,9.7897,9.797,9.8484,9.9181,9.9181,9.9695,10.0393,10.0393,10.0907,10.1494,10.1494,10.1494,10.1494,10.1494,10.1494,10.1494,10.1494,10.1494,10.1494,10.1494,10.1494,10.1494,10.1567,10.1604,10.1788,10.2595,10.2815,10.3109,10.388,10.4687,10.5201,10.5201,10.5899,10.6376,10.6376,10.6376,10.6376,10.6376,10.6376,10.6376,10.6376,10.6376,10.6376,10.6376,10.6376,10.6376,10.6376,10.6376,10.6376,10.6376,10.6376,10.6376,10.6376,10.6376,10.6376,10.6376,10.6376,10.6376,0.0,0.0,0.0,0.0,0.0,0.0,0.0,0.0,0.0,0.0,0.0,0.0,0.0,8.2913,8.383,8.4537,8.5511,8.6298,0.0,0.0,0.0,0.0,0.0,0.0,0.0,0.0,0.0,0.0,0.0,0.0,0.0,0.0,9.2097,9.2758,9.2794,9.2905,9.3088,9.4299,9.5107,9.5511,9.6135,9.6539,9.6685,9.6685,0.0,0.0,0.0,0.0,9.6685,9.6685,9.6685,9.6759,9.7383,9.7713,9.797,9.8594,9.9328,9.9989,9.9989,10.0503,10.12,10.12,10.131,10.1494,10.1494,10.1494,10.1494,10.1494,10.1494,10.1494,10.1494,10.1494,10.1494,10.1494,10.1494,10.1677,10.2301,10.2412,10.2705,10.3476,10.41,10.4614,10.4798,10.5495,10.6082,10.6082,10.6302,10.6376,10.6376,10.6376,10.6376,10.6376,10.6376,10.6376,10.6376,10.6376,10.6376,10.6376,10.6376,10.6376,10.6376,10.6376,10.6376,10.6376,10.6376,10.6376,10.6376,10.6376,10.6376,10.6376,10.6376,10.6376,0.0,0.0,0.0,0.0,0.0,0.0,0.0,0.0,0.0,0.0,0.0,0.0,0.0,0.0,0.0,0.0,8.6585,0.0,0.0,0.0,0.0,0.0,0.0,0.0,0.0,0.0,0.0,0.0,0.0,0.0,0.0,0.0,9.2611,9.3088,9.3822,9.4189,9.4189,9.507,9.5694,9.6061,9.6502,9.6685,9.6685,9.6685,9.6685,0.0,0.0,0.0,9.6685,9.6685,9.6906,9.7273,9.7713,9.8337,9.9035,9.9475,10.0209,10.087,10.087,10.109,10.1494,10.1494,10.1494,10.1494,10.1494,10.1494,10.1494,10.1494,10.1494,10.1494,10.1494,10.1494,10.1494,10.1494,10.1788,10.2191,10.2595,10.2999,10.3513,10.432,10.4798,10.5201,10.5605,10.6082,10.6376,10.6376,10.6376,10.6376,10.6376,10.6376,10.6376,10.6376,10.6376,10.6376,10.6376,10.6376,10.6376,10.6376,10.6376,10.6376,10.6376,10.6376,10.6376,10.6376,10.6376,10.6376,10.6376,10.6376,10.6376,10.6376,10.6376,10.6376,0.0,0.0,0.0,0.0,0.0,0.0,0.0,0.0,0.0,0.0,0.0,0.0,0.0,0.0,0.0,0.0,0.0,0.0,0.0,0.0,0.0,0.0,0.0,0.0,0.0,0.0,0.0,0.0,0.0,0.0,0.0,0.0,0.0,9.3455,9.4813,9.5584,9.5694,9.5694,9.6025,9.6685,9.6685,9.6685,9.6685,9.6685,9.6685,0.0,0.0,0.0,9.6869,9.6869,9.7346,9.808,9.8227,9.9108,10.0283,10.0393,10.0907,10.1494,10.1494,10.1494,10.1494,10.1494,10.1494,10.1494,10.1494,10.1494,10.1494,10.1494,10.1494,10.1494,10.1494,10.1494,10.1494,10.1677,10.2191,10.2815,10.2999,10.3586,10.432,10.5128,10.5311,10.5495,10.6302,10.6376,10.6376,10.6376,10.6376,10.6376,10.6376,10.6376,10.6376,10.6376,10.6376,10.6376,10.6376,10.6376,10.6376,10.6376,10.6376,10.6376,10.6376,10.6376,10.6376,10.6376,10.6376,10.6376,10.6376,10.6376,10.6376,10.6376,10.6376,10.6376,0.0,0.0,0.0,0.0,0.0,0.0,0.0,0.0,0.0,0.0,0.0,0.0,0.0,0.0,0.0,0.0,0.0,0.0,0.0,0.0,0.0,0.0,0.0,0.0,0.0,0.0,0.0,0.0,0.0,0.0,0.0,0.0,0.0,9.5107,9.5364,9.5841,9.6502,9.6539,9.6575,9.6685,9.6685,9.6685,9.6685,9.6685,9.6685,0.0,0.0,9.7089,9.7713,9.7713,9.819,9.8998,9.9659,10.0099,10.0393,10.109,10.1384,10.1494,10.1494,10.1494,10.1494,10.1494,10.1494,10.1494,10.1494,10.1494,10.1494,10.1494,10.1494,10.1494,10.1494,10.1494,10.1677,10.2412,10.2595,10.3109,10.443,10.4798,10.5201,10.6009,10.6192,10.6192,10.6376,10.6376,10.6376,10.6376,10.6376,10.6376,10.6376,10.6376,10.6376,10.6376,10.6376,10.6376,10.6376,10.6376,10.6376,10.6376,10.6376,10.6376,10.6376,10.6376,10.6376,10.6376,10.6376,10.6376,10.6376,10.6376,10.6376,10.6376,10.6376,10.6376,7.6015,0.0,0.0,0.0,0.0,0.0,0.0,0.0,0.0,0.0,0.0,0.0,0.0,0.0,0.0,0.0,0.0,0.0,0.0,0.0,0.0,0.0,0.0,0.0,0.0,0.0,0.0,0.0,0.0,0.0,0.0,0.0,0.0,0.0,9.5914,9.6318,9.6685,9.6685,9.6685,9.6685,9.6685,9.6685,9.6685,9.6685,9.6685,9.6722,0.0,9.7566,9.7933,9.8374,9.9035,9.9805,10.0209,10.0576,10.098,10.1384,10.1494,10.1494,10.1494,10.1494,10.1494,10.1494,10.1494,10.1494,10.1494,10.1494,10.1494,10.1494,10.1494,10.1494,10.1494,10.1788,10.2191,10.2595,10.3403,10.421,10.4908,10.5495,10.5899,10.6302,10.6376,10.6376,10.6376,10.6376,10.6376,10.6376,10.6376,10.6376,10.6376,10.6376,10.6376,10.6376,10.6376,10.6376,10.6376,10.6376,10.6376,10.6376,10.6376,10.6376,10.6376,10.6376,10.6376,10.6376,10.6376,10.6376,10.6376,10.6376,10.6376,10.6376,10.6376,10.6376,7.6015,0.0,0.0,0.0,0.0,0.0,0.0,0.0,0.0,0.0,0.0,0.0,0.0,0.0,0.0,0.0,0.0,0.0,0.0,0.0,0.0,0.0,0.0,0.0,0.0,0.0,0.0,0.0,0.0,0.0,0.0,0.0,0.0,0.0,9.6392,9.6685,9.6685,9.6685,9.6685,9.6685,9.6685,9.6685,9.6685,9.6685,9.6795,9.7016,9.764,9.8117,9.8484,9.9145,9.9879,10.0576,10.0576,10.098,10.1494,10.1494,10.1494,10.1494,10.1494,10.1494,10.1494,10.1494,10.1494,10.1494,10.1494,10.1494,10.1494,10.1494,10.1604,10.1788,10.1788,10.2191,10.2815,10.3219,10.421,10.5201,10.5422,10.5899,10.6376,10.6376,10.6376,10.6376,10.6376,10.6376,10.6376,10.6376,10.6376,10.6376,10.6376,10.6376,10.6376,10.6376,10.6376,10.6376,10.6376,10.6376,10.6376,10.6376,10.6376,10.6376,10.6376,10.6376,10.6376,10.6376,10.6376,10.6376,10.6376,10.6376,10.6376,10.6376,10.6376,10.6376,7.6015,7.663,0.0,0.0,0.0,0.0,0.0,0.0,0.0,0.0,0.0,0.0,0.0,0.0,0.0,0.0,0.0,0.0,0.0,0.0,0.0,0.0,0.0,0.0,0.0,0.0,0.0,0.0,0.0,0.0,0.0,0.0,0.0,0.0,0.0,9.6685,9.6685,9.6685,9.6685,9.6685,9.6685,9.6685,9.6685,9.6685,9.7126,9.7823,9.786,9.8741,10.0099,10.0209,10.0686,10.1384,10.1384,10.1384,10.1494,10.1494,10.1494,10.1494,10.1494,10.1494,10.1494,10.1494,10.1494,10.1494,10.1494,10.1494,10.1494,10.1494,10.2008,10.2595,10.2595,10.2705,10.3109,10.4614,10.5018,10.5311,10.6119,10.6376,10.6376,10.6376,10.6376,10.6376,10.6376,10.6376,10.6376,10.6376,10.6376,10.6376,10.6376,10.6376,10.6376,10.6376,10.6376,10.6376,10.6376,10.6376,10.6376,10.6376,10.6376,10.6376,10.6376,10.6376,10.6376,10.6376,10.6376,10.6376,10.6376,10.6376,10.6376,10.6376,10.6376,10.6376,7.6015,7.7015,0.0,0.0,0.0,0.0,0.0,0.0,0.0,0.0,0.0,0.0,0.0,0.0,0.0,0.0,0.0,0.0,0.0,0.0,0.0,0.0,0.0,0.0,0.0,0.0,0.0,0.0,0.0,0.0,0.0,0.0,0.0,0.0,0.0,9.6685,9.6685,9.6685,9.6685,9.6685,9.6685,9.6685,9.6722,9.7199,9.7603,9.7933,9.8961,9.9732,10.0319,10.0796,10.12,10.1494,10.1494,10.1494,10.1494,10.1494,10.1494,10.1494,10.1494,10.1494,10.1494,10.1494,10.1494,10.1494,10.1494,10.1788,10.2191,10.2191,10.2815,10.3293,10.2815,10.3403,10.432,10.5018,10.5495,10.6009,10.6302,10.6376,10.6376,10.6376,10.6376,10.6376,10.6376,10.6376,10.6376,10.6376,10.6376,10.6376,10.6376,10.6376,10.6376,10.6376,10.6376,10.6376,10.6376,10.6376,10.6376,10.6376,10.6376,10.6376,10.6376,10.6376,10.6376,10.6376,10.6376,10.6376,10.6376,10.6376,10.6376,10.6376,10.6376,10.6376,7.6015,0.0,0.0,0.0,0.0,0.0,0.0,0.0,0.0,0.0,0.0,0.0,0.0,0.0,0.0,0.0,0.0,0.0,0.0,0.0,0.0,0.0,0.0,0.0,0.0,0.0,0.0,0.0,0.0,0.0,0.0,0.0,0.0,0.0,0.0,9.6685,9.6685,9.6685,9.6685,9.6685,9.6685,9.6832,9.7089,9.764,9.8154,9.8704,9.9805,10.0393,10.0686,10.1274,10.1494,10.1494,10.1494,10.1494,10.1494,10.1494,10.1494,10.1494,10.1494,10.1494,10.1494,10.1494,10.1494,10.1494,10.1788,10.2301,10.2815,10.2999,10.3696,10.421,10.3623,10.432,10.5201,10.5422,10.6009,10.6376,10.6376,10.6376,10.6376,10.6376,10.6376,10.6376,10.6376,10.6376,10.6376,10.6376,10.6376,10.6376,10.6376,10.6376,10.6376,10.6376,10.6376,10.6376,10.6376,10.6376,10.6376,10.6376,10.6376,10.6376,10.6376,10.6376,10.6376,10.6376,10.6376,10.6376,10.6376,10.6376,10.6376,10.6376,10.6376,10.6376,0.0,0.0,0.0,0.0,0.0,0.0,0.0,0.0,0.0,0.0,0.0,0.0,0.0,0.0,0.0,0.0,0.0,0.0,0.0,0.0,0.0,0.0,0.0,0.0,0.0,0.0,0.0,0.0,0.0,0.0,0.0,0.0,0.0,0.0,0.0,0.0,9.6685,9.6685,9.6685,9.6685,9.6722,9.7126,9.7897,9.7897,9.8778,10.0283,10.0283,10.0796,10.1494,10.1494,10.1494,10.1494,10.1494,10.1494,10.1494,10.1494,10.1494,10.1494,10.1494,10.1494,10.1494,10.1494,10.1494,10.1677,10.2485,10.2705,10.2889,10.3696,10.4504,10.5128,10.5128,10.5128,10.5311,10.6192,10.6376,10.6376,10.6376,10.6376,10.6376,10.6376,10.6376,10.6376,10.6376,10.6376,10.6376,10.6376,10.6376,10.6376,10.6376,10.6376,10.6376,10.6376,10.6376,10.6376,10.6376,10.6376,10.6376,10.6376,10.6376,10.6376,10.6376,10.6376,10.6376,10.6376,10.6376,10.6376,10.6376,10.6376,10.6376,10.6376,10.6376,10.6376,0.0,0.0,0.0,0.0,0.0,0.0,0.0,0.0,0.0,0.0,0.0,0.0,0.0,0.0,0.0,0.0,0.0,0.0,0.0,0.0,0.0,0.0,0.0,0.0,0.0,0.0,0.0,0.0,0.0,0.0,0.0,0.0,0.0,0.0,0.0,0.0,9.6685,9.6685,9.6685,9.6722,9.7273,9.7676,9.7897,9.8484,9.9328,10.0319,10.0907,10.1274,10.1494,10.1494,10.1494,10.1494,10.1494,10.1494,10.1494,10.1494,10.1494,10.1494,10.1494,10.1494,10.1494,10.1494,10.1898,10.2412,10.2595,10.3513,10.443,10.4724,10.5385,10.6009,10.6009,10.6009,10.6082,10.6302,10.6376,10.6376,10.6376,10.6376,10.6376,10.6376,10.6376,10.6376,10.6376,10.6376,10.6376,10.6376,10.6376,10.6376,10.6376,10.6376,10.6376,10.6376,10.6376,10.6376,10.6376,10.6376,10.6376,10.6376,10.6376,10.6376,10.6376,10.6376,10.6376,10.6376,10.6376,10.6376,10.6376,10.6376,10.6376,10.6376,10.6376,10.6376,0.0,0.0,0.0,0.0,0.0,0.0,0.0,0.0,0.0,0.0,0.0,0.0,0.0,0.0,0.0,0.0,0.0,0.0,0.0,0.0,0.0,0.0,0.0,0.0,0.0,0.0,0.0,0.0,0.0,0.0,0.0,0.0,0.0,0.0,0.0,0.0,9.7632,9.699,9.7061,9.7691,9.7833,9.8227,9.8851,9.9365,9.9989,10.0796,10.1274,10.1494,10.1494,10.1494,10.1494,10.1494,10.1494,10.1494,10.1494,10.1494,10.1494,10.1494,10.1494,10.1494,10.1567,10.1898,10.2301,10.2815,10.3513,10.432,10.5201,10.5495,10.6009,10.6376,10.6376,10.6376,10.6376,10.6376,10.6376,10.6376,10.6376,10.6376,10.6376,10.6376,10.6376,10.6376,10.6376,10.6376,10.6376,10.6376,10.6376,10.6376,10.6376,10.6376,10.6376,10.6376,10.6376,10.6376,10.6376,10.6376,10.6376,10.6376,10.6376,10.6376,10.6376,10.6376,10.6376,10.6376,10.6376,10.6376,10.6376,10.6376,10.6376,10.6376,10.6376,10.6376,0.0,0.0,0.0,0.0,0.0,0.0,0.0,0.0,0.0,0.0,0.0,0.0,0.0,0.0,0.0,0.0,0.0,0.0,0.0,0.0,0.0,0.0,0.0,0.0,0.0,0.0,0.0,0.0,0.0,0.0,0.0,0.0,0.0,0.0,0.0,9.8279,9.9007,9.7632,9.7653,0.0,9.8467,9.8934,10.0404,10.0325,10.0686,10.1494,10.1574,10.1574,10.1494,10.1494,10.1494,10.1494,10.1494,10.1494,10.1494,10.1494,10.1494,10.1494,10.1567,10.1604,10.1677,10.2522,10.2889,10.3219,10.4724,10.5201,10.5422,10.6192,10.6376,10.6376,10.6376,10.6376,10.6376,10.6376,10.6376,10.6376,10.6376,10.6376,10.6376,10.6376,10.6376,10.6376,10.6376,10.6376,10.6376,10.6376,10.6376,10.6376,10.6376,10.6376,10.6376,10.6376,10.6376,10.6376,10.6376,10.6376,10.6376,10.6376,10.6376,10.6376,10.6376,10.6376,10.6376,10.6376,10.6376,10.6376,10.6376,10.6376,10.6376,10.6376,10.6376,10.6376,0.0,0.0,0.0,0.0,0.0,0.0,0.0,0.0,0.0,0.0,0.0,0.0,0.0,0.0,0.0,0.0,0.0,0.0,0.0,0.0,0.0,0.0,0.0,0.0,0.0,0.0,0.0,0.0,0.0,0.0,0.0,0.0,0.0,10.0185,9.9235,9.8794,9.9007,9.8651,9.8664,0.0,9.9559,10.0344,10.1163,10.0601,10.0686,10.1538,10.2203,10.2128,10.1494,10.1494,10.1494,10.1494,10.1494,10.1494,10.1494,10.1494,10.1494,10.1604,10.2191,10.2412,10.2595,10.3403,10.41,10.4614,10.5018,10.5605,10.6192,10.6302,10.6376,10.6376,10.6376,10.6376,10.6376,10.6376,10.6376,10.6376,10.6376,10.6376,10.6376,10.6376,10.6376,10.6376,10.6376,10.6376,10.6376,10.6376,10.6376,10.6376,10.6376,10.6376,10.6376,10.6376,10.6376,10.6376,10.6376,10.6376,10.6376,10.6376,10.6376,10.6376,10.6376,10.6376,10.6376,10.6376,10.6376,10.6376,10.6376,10.6376,10.6376,10.6376,10.6376,10.6376,0.0,0.0,0.0,0.0,0.0,0.0,0.0,0.0,0.0,0.0,0.0,0.0,0.0,0.0,0.0,0.0,0.0,0.0,0.0,0.0,0.0,0.0,0.0,0.0,0.0,0.0,0.0,0.0,0.0,0.0,0.0,0.0,10.0722,10.0722,9.9999,9.9758,10.0098,9.9817,9.9788,10.0178,10.0966,10.193,10.269,10.2291,10.2305,10.2677,10.2711,10.2498,10.1978,10.1697,10.1494,10.1494,10.1494,10.1494,10.1494,10.1494,10.1677,10.2081,10.2595,10.2999,10.3403,10.421,10.4798,10.5201,10.5605,10.6009,10.6376,10.6376,10.6376,10.6376,10.6376,10.6376,10.6376,10.6376,10.6376,10.6376,10.6376,10.6376,10.6376,10.6376,10.6376,10.6376,10.6376,10.6376,10.6376,10.6376,10.6376,10.6376,10.6376,10.6376,10.6376,10.6376,10.6376,10.6376,10.6376,10.6376,10.6376,10.6376,10.6376,10.6376,10.6376,10.6376,10.6376,10.6376,10.6376,10.6376,10.6376,10.6376,10.6376,10.6376,10.6376,10.6376,0.0,0.0,0.0,0.0,0.0,0.0,0.0,0.0,0.0,0.0,0.0,0.0,0.0,0.0,0.0,0.0,0.0,0.0,0.0,0.0,0.0,0.0,0.0,0.0,0.0,0.0,0.0,0.0,0.0,0.0,10.1212,10.1289,10.1289,10.1289,10.0678,10.0716,10.1327,10.0887,10.1012,10.1635,10.258,10.3508,10.4168,10.4419,10.4265,10.3964,10.3185,10.2814,10.2602,10.1821,10.1494,10.1494,10.1494,10.1494,10.1494,10.1677,10.2081,10.2705,10.2999,10.3586,10.421,10.5091,10.5311,10.5495,10.6192,10.6376,10.6376,10.6376,10.6376,10.6376,10.6376,10.6376,10.6376,10.6376,10.6376,10.6376,10.6376,10.6376,10.6376,10.6376,10.6376,10.6376,10.6376,10.6376,10.6376,10.6376,10.6376,10.6376,10.6376,10.6376,10.6376,10.6376,10.6376,10.6376,10.6376,10.6376,10.6376,10.6376,10.6376,10.6376,10.6376,10.6376,10.6376,10.6376,10.6376,10.6376,10.6376,10.6376,10.6376,10.6376,10.6376,10.6376,0.0,0.0,0.0,0.0,0.0,0.0,0.0,0.0,0.0,0.0,0.0,0.0,0.0,0.0,0.0,0.0,0.0,0.0,0.0,0.0,0.0,0.0,0.0,0.0,0.0,0.0,0.0,0.0,0.0,0.0,10.1212,10.1289,10.1289,10.1289,10.121,10.121,10.1289,10.1974,10.2325,10.2512,10.4074,10.4873,10.5116,10.5771,10.5319,10.4025,10.3903,10.3421,10.2602,10.1821,10.1494,10.1494,10.1494,10.1494,10.1604,10.2301,10.2595,10.2889,10.432,10.4834,10.5091,10.5899,10.6192,10.6192,10.6376,10.6376,10.6376,10.6376,10.6376,10.6376,10.6376,10.6376,10.6376,10.6376,10.6376,10.6376,10.6376,10.6376,10.6376,10.6376,10.6376,10.6376,10.6376,10.6376,10.6376,10.6376,10.6376,10.6376,10.6376,10.6376,10.6376,10.6376,10.6376,10.6376,10.6376,10.6376,10.6376,10.6376,10.6376,10.6376,10.6376,10.6376,10.6376,10.6376,10.6376,10.6376,10.6376,10.6376,10.6376,10.6376,10.6376,10.6376,0.0,0.0,0.0,0.0,0.0,0.0,0.0,0.0,0.0,0.0,0.0,0.0,0.0,0.0,0.0,0.0,0.0,0.0,0.0,0.0,0.0,0.0,0.0,0.0,0.0,0.0,0.0,0.0,0.0,9.9519,10.1212,10.1289,10.1289,10.1289,10.1289,10.152,10.202,10.2904,10.3821,10.4713,10.4987,10.5418,10.5863,10.6203,10.5991,10.5269,10.4381,10.3841,10.3252,10.2015,10.1494,10.1494,10.1494,10.1788,10.2191,10.2595,10.3293,10.41,10.4908,10.5422,10.5899,10.6302,10.6376,10.6376,10.6376,10.6376,10.6376,10.6376,10.6376,10.6376,10.6376,10.6376,10.6376,10.6376,10.6376,10.6376,10.6376,10.6376,10.6376,10.6376,10.6376,10.6376,10.6376,10.6376,10.6376,10.6376,10.6376,10.6376,10.6376,10.6376,10.6376,10.6376,10.6376,10.6376,10.6376,10.6376,10.6376,10.6376,10.6376,10.6376,10.6376,10.6376,10.6376,10.6376,10.6376,10.6376,10.6376,10.6376,10.6376,10.6376,10.6376,10.6376,0.0,0.0,0.0,0.0,0.0,0.0,0.0,0.0,0.0,0.0,0.0,0.0,0.0,0.0,0.0,0.0,0.0,0.0,0.0,0.0,0.0,0.0,0.0,0.0,0.0,0.0,0.0,0.0,0.0,9.975,10.1212,10.1289,10.1289,10.1289,10.1289,10.1712,10.2597,10.3712,10.4905,10.6405,10.5817,10.5779,10.6405,10.6405,10.6405,10.6284,10.4719,10.4025,10.3903,10.2203,10.1494,10.1494,10.1494,10.2008,10.2705,10.2925,10.3917,10.5128,10.5422,10.5899,10.6376,10.6376,10.6376,10.6376,10.6376,10.6376,10.6376,10.6376,10.6376,10.6376,10.6376,10.6376,10.6376,10.6376,10.6376,10.6376,10.6376,10.6376,10.6376,10.6376,10.6376,10.6376,10.6376,10.6376,10.6376,10.6376,10.6376,10.6376,10.6376,10.6376,10.6376,10.6376,10.6376,10.6376,10.6376,10.6376,10.6376,10.6376,10.6376,10.6376,10.6376,10.6376,10.6376,10.6376,10.6376,10.6376,10.6376,10.6376,10.6376,10.6376,10.6376,10.6376,0.0,0.0,0.0,0.0,0.0,0.0,0.0,0.0,0.0,0.0,0.0,0.0,0.0,0.0,0.0,0.0,0.0,0.0,0.0,0.0,0.0,0.0,0.0,0.0,0.0,0.0,0.0,0.0,0.0,10.0404,10.1289,10.1289,10.1289,10.1289,10.1289,10.1712,10.2597,10.4212,10.5482,10.6405,10.6402,10.6402,10.6405,10.6405,10.6405,10.6284,10.4719,10.4025,10.3903,10.2203,10.1494,10.1494,10.1494,10.2008,10.2815,10.3586,10.4394,10.5201,10.6009,10.6376,10.6376,10.6376,10.6376,10.6376,10.6376,10.6376,10.6376,10.6376,10.6376,10.6376,10.6376,10.6376,10.6376,10.6376,10.6376,10.6376,10.6376,10.6376,10.6376,10.6376,10.6376,10.6376,10.6376,10.6376,10.6376,10.6376,10.6376,10.6376,10.6376,10.6376,10.6376,10.6376,10.6376,10.6376,10.6376,10.6376,10.6376,10.6376,10.6376,10.6376,10.6376,10.6376,10.6376,10.6376,10.6376,10.6376,10.6376,10.6376,10.6376,10.6376,10.6376,10.6376,0.0,0.0,0.0,0.0,0.0,0.0,0.0,0.0,0.0,0.0,0.0,0.0,0.0,0.0,0.0,0.0,0.0,0.0,0.0,0.0,0.0,0.0,0.0,0.0,0.0,0.0,0.0,0.0,0.0,0.0,10.1289,10.1289,10.1289,10.1289,10.1289,10.202,10.3405,10.5097,10.6097,10.6405,10.6405,10.6405,10.6405,10.6405,10.6079,10.5591,10.4496,10.4025,10.3903,10.2203,10.1494,10.1567,10.2081,10.2779,10.3586,10.4394,10.5201,10.6009,10.6302,10.6376,10.6376,10.6376,10.6376,10.6376,10.6376,10.6376,10.6376,10.6376,10.6376,10.6376,10.6376,10.6376,10.6376,10.6376,10.6376,10.6376,10.6376,10.6376,10.6376,10.6376,10.6376,10.6376,10.6376,10.6376,10.6376,10.6376,10.6376,10.6376,10.6376,10.6376,10.6376,10.6376,10.6376,10.6376,10.6376,10.6376,10.6376,10.6376,10.6376,10.6376,10.6376,10.6376,10.6376,10.6376,10.6376,10.6376,10.6376,10.6376,10.6376,10.6376,10.6376,10.6376,0.0,0.0,0.0,0.0,0.0,0.0,0.0,0.0,0.0,0.0,0.0,0.0,0.0,0.0,0.0,0.0,0.0,0.0,0.0,0.0,0.0,0.0,0.0,0.0,0.0,0.0,0.0,0.0,0.0,0.0,10.1289,10.1289,10.1289,10.1289,10.1904,10.2712,10.3905,10.5597,10.6405,10.6405,10.6405,10.6405,10.6405,10.6405,10.6079,10.5515,10.4534,10.3765,10.3523,10.2089,10.1677,10.1971,10.2485,10.3403,10.4394,10.4908,10.5715,10.6376,10.6376,10.6376,10.6376,10.6376,10.6376,10.6376,10.6376,10.6376,10.6376,10.6376,10.6376,10.6376,10.6376,10.6376,10.6376,10.6376,10.6376,10.6376,10.6376,10.6376,10.6376,10.6376,10.6376,10.6376,10.6376,10.6376,10.6376,10.6376,10.6376,10.6376,10.6376,10.6376,10.6376,10.6376,10.6376,10.6376,10.6376,10.6376,10.6376,10.6376,10.6376,10.6376,10.6376,10.6376,10.6376,10.6376,10.6376,10.6376,10.6376,10.6376,10.6376,10.6376,10.6376,10.6376,0.0,0.0,0.0,0.0,0.0,0.0,0.0,0.0,0.0,0.0,0.0,0.0,0.0,0.0,0.0,0.0,0.0,0.0,0.0,0.0,0.0,0.0,0.0,0.0,0.0,0.0,0.0,0.0,0.0,10.1289,10.1289,10.1289,10.1289,10.1289,10.2981,10.3905,10.3905,10.5597,10.6405,10.6405,10.6405,10.6405,10.6405,10.6405,10.6405,10.6322,10.4664,10.3486,10.2602,10.1821,10.2008,10.2705,10.2705,10.3696,10.5128,10.5128,10.5715,10.6376,10.6376,10.6376,10.6376,10.6376,10.6376,10.6376,10.6376,10.6376,10.6376,10.6376,10.6376,10.6376,10.6376,10.6376,10.6376,10.6376,10.6376,10.6376,10.6376,10.6376,10.6376,10.6376,10.6376,10.6376,10.6376,10.6376,10.6376,10.6376,10.6376,10.6376,10.6376,10.6376,10.6376,10.6376,10.6376,10.6376,10.6376,10.6376,10.6376,10.6376,10.6376,10.6376,10.6376,10.6376,10.6376,10.6376,10.6376,10.6376,10.6376,10.6376,10.6376,10.6376,10.6376,10.6376,8.1093,0.0,0.0,0.0,0.0,0.0,0.0,0.0,0.0,0.0,0.0,0.0,0.0,0.0,0.0,0.0,0.0,0.0,0.0,0.0,0.0,0.0,0.0,0.0,0.0,0.0,0.0,0.0,9.9788,10.0712,10.1289,10.1289,10.1289,10.1289,10.2981,10.3905,10.3905,10.5597,10.6405,10.6405,10.6405,10.6405,10.6405,10.6405,10.6117,10.5505,10.4401,10.3486,10.2602,10.1821,10.2008,10.2815,10.3293,10.421,10.5201,10.5789,10.6192,10.6376,10.6376,10.6376,10.6376,10.6376,10.6376,10.6376,10.6376,10.6376,10.6376,10.6376,10.6376,10.6376,10.6376,10.6376,10.6376,10.6376,10.6376,10.6376,10.6376,10.6376,10.6376,10.6376,10.6376,10.6376,10.6376,10.6376,10.6376,10.6376,10.6376,10.6376,10.6376,10.6376,10.6376,10.6376,10.6376,10.6376,10.6376,10.6376,10.6376,10.6376,10.6376,10.6376,10.6376,10.6376,10.6376,10.6376,10.6376,10.6376,10.6376,10.6376,10.6376,10.6376,10.6376,10.6376,0.0,0.0,0.0,0.0,0.0,0.0,0.0,8.6478,0.0,0.0,0.0,0.0,0.0,0.0,0.0,0.0,0.0,0.0,0.0,0.0,0.0,0.0,0.0,0.0,0.0,0.0,0.0,9.8711,9.9596,10.0481,10.1289,10.1289,10.1289,10.1289,10.2981,10.3905,10.3905,10.5597,10.6405,10.6405,10.6405,10.6405,10.6405,10.6405,10.6122,10.5601,10.4496,10.3678,10.3231,10.2308,10.2485,10.3293,10.41,10.4908,10.5715,10.6192,10.6376,10.6376,10.6376,10.6376,10.6376,10.6376,10.6376,10.6376,10.6376,10.6376,10.6376,10.6376,10.6376,10.6376,10.6376,10.6376,10.6376,10.6376,10.6376,10.6376,10.6376,10.6376,10.6376,10.6376,10.6376,10.6376,10.6376,10.6376,10.6376,10.6376,10.6376,10.6376,10.6376,10.6376,10.6376,10.6376,10.6376,10.6376,10.6376,10.6376,10.6376,10.6376,10.6376,10.6376,10.6376,10.6376,10.6376,10.6376,10.6376,10.6376,10.6376,10.6376,10.6376,10.6376,10.6376,10.6376,0.0,0.0,0.0,0.0,0.0,0.0,8.6094,8.6094,8.6594,0.0,0.0,0.0,0.0,0.0,0.0,0.0,0.0,0.0,0.0,0.0,0.0,0.0,0.0,0.0,0.0,9.6942,9.7711,9.8596,9.9558,10.0481,10.1289,10.1289,10.1289,10.1289,10.2981,10.3905,10.3905,10.5597,10.6405,10.6405,10.6405,10.6405,10.6405,10.6405,10.6405,10.6284,10.4812,10.4184,10.4176,10.3428,10.3426,10.399,10.4798,10.5605,10.6376,10.6376,10.6376,10.6376,10.6376,10.6376,10.6376,10.6507,10.646,10.6376,10.6507,10.646,10.6376,10.6376,10.6376,10.6376,10.6376,10.6376,10.6376,10.6376,10.6376,10.6376,10.6376,10.6376,10.6376,10.6376,10.6376,10.6376,10.6376,10.6376,10.6376,10.6376,10.6376,10.6376,10.6376,10.6376,10.6376,10.6376,10.6376,10.6376,10.6376,10.6376,10.6376,10.6376,10.6376,10.6376,10.6376,10.6376,10.6376,10.6376,10.6376,10.6376,10.6376,10.6376,10.6376,10.6376,10.6376,10.6376,0.0,0.0,0.0,0.0,0.0,0.0,8.6094,8.6094,8.6594,0.0,0.0,0.0,0.0,0.0,0.0,0.0,0.0,0.0,0.0,0.0,0.0,0.0,0.0,0.0,0.0,9.6442,9.6865,9.7673,9.9211,10.0481,10.1289,10.1289,10.1289,10.1289,10.2981,10.3905,10.3905,10.5597,10.6405,10.6405,10.6405,10.6405,10.6405,10.6405,10.6405,10.6287,10.5407,10.5277,10.5909,10.5699,10.502,10.399,10.4798,10.5605,10.6376,10.6376,10.6376,10.6376,10.6376,10.6376,10.6507,10.7209,10.6931,10.6507,10.7209,10.6931,10.6376,10.6376,10.6376,10.6376,10.6376,10.6376,10.6376,10.6376,10.6376,10.6376,10.6376,10.6376,10.6376,10.6376,10.6376,10.6376,10.6376,10.6376,10.6376,10.6376,10.6376,10.6376,10.6376,10.6376,10.6376,10.6376,10.6376,10.6376,10.6376,10.6376,10.6376,10.6376,10.6376,10.6376,10.6376,10.6376,10.6376,10.6376,10.6376,10.6376,10.6376,10.6376,10.6376,10.6376,10.6376,10.6376,0.0,0.0,0.0,8.5401,0.0,0.0,0.0,8.6094,8.6594,8.8325,0.0,0.0,0.0,0.0,0.0,0.0,0.0,0.0,0.0,0.0,0.0,0.0,0.0,0.0,0.0,9.6057,9.6826,9.8057,9.9365,10.0481,10.1289,10.1289,10.1289,10.1289,10.2981,10.3905,10.3905,10.5597,10.6405,10.6405,10.6405,10.6405,10.6405,10.6405,10.6405,10.6402,10.5515,10.5676,10.6387,10.6426,10.5882,10.5198,10.6012,10.6394,10.6376,10.6376,10.6376,10.6376,10.6376,10.6376,10.647,10.7328,10.7089,10.6627,10.7402,10.7015,10.6376,10.6376,10.6376,10.6376,10.6376,10.6376,10.6376,10.6376,10.6376,10.6376,10.6376,10.6376,10.6376,10.6376,10.6376,10.6376,10.6376,10.6376,10.6376,10.6376,10.6376,10.6376,10.6376,10.6376,10.6376,10.6376,10.6376,10.6376,10.6376,10.6376,10.6376,10.6376,10.6376,10.6376,10.6376,10.6376,10.6376,10.6376,10.6376,10.6376,10.6376,10.6376,10.6376,10.6376,10.6376,10.6376,0.0,0.0,0.0,0.0,0.0,8.6094,0.0,0.0,0.0,8.8363,8.8825,8.9402,0.0,0.0,0.0,0.0,0.0,0.0,0.0,0.0,0.0,0.0,0.0,0.0,0.0,9.5788,9.6942,9.8442,9.9365,10.0212,10.1019,10.1212,10.1289,10.1289,10.2789,10.3712,10.3905,10.5405,10.6213,10.6405,10.6405,10.6405,10.6405,10.6405,10.6405,10.6402,10.5733,10.5991,10.6897,10.6884,10.688,10.6912,10.7404,10.7094,10.6376,10.6376,10.6376,10.6376,10.659,10.6599,10.6844,10.7811,10.7517,10.6931,10.7326,10.6931,10.6376,10.6376,10.6376,10.6376,10.6376,10.6376,10.6376,10.6376,10.6376,10.6376,10.6376,10.6376,10.6376,10.6376,10.6376,10.6376,10.6376,10.6376,10.6376,10.6376,10.6376,10.6376,10.6376,10.6376,10.6376,10.6376,10.6376,10.6376,10.6376,10.6376,10.6376,10.6376,10.6376,10.6376,10.6376,10.6376,10.6376,10.6376,10.6376,10.6376,10.6376,10.6376,10.6376,10.6376,10.6376,10.6376,0.0,0.0,0.0,0.0,8.6094,0.0,0.0,0.0,8.7517,8.8479,0.0,0.0,0.0,0.0,0.0,0.0,0.0,0.0,0.0,0.0,0.0,0.0,0.0,0.0,0.0,0.0,9.6673,9.7596,9.8442,9.9327,10.0212,10.0904,10.1289,10.1289,10.2212,10.3097,10.3905,10.4789,10.5597,10.6405,10.6405,10.6405,10.6405,10.6405,10.6405,10.6405,10.6284,10.7206,10.8629,10.858,10.8575,10.8483,10.7917,10.7094,10.6376,10.6376,10.6376,10.6507,10.7212,10.7516,10.7701,10.9364,10.9265,10.8374,10.7005,10.646,10.6376,10.6376,10.6376,10.6376,10.6376,10.6376,10.6376,10.6376,10.6376,10.6376,10.6376,10.6376,10.6376,10.6376,10.6376,10.6376,10.6376,10.6376,10.6376,10.6376,10.6376,10.6376,10.6376,10.6376,10.6376,10.6376,10.6376,10.6376,10.6376,10.6376,10.6376,10.6376,10.6376,10.6376,10.6376,10.6376,10.6376,10.6376,10.6376,10.6376,10.6376,10.6376,10.6376,10.6376,10.6376,10.6376,0.0,0.0,0.0,0.0,0.0,0.0,0.0,0.0,8.7786,0.0,0.0,0.0,0.0,0.0,0.0,0.0,0.0,0.0,0.0,0.0,0.0,0.0,0.0,0.0,0.0,0.0,0.0,0.0,0.0,9.9173,10.0096,10.0904,10.1289,10.1289,10.2097,10.2981,10.3905,10.4713,10.5482,10.6405,10.6405,10.6405,10.6405,10.6405,10.6405,10.6405,10.6405,10.7405,10.8906,10.8906,10.8895,10.8867,10.8502,10.7628,10.6376,10.6376,10.6376,10.6507,10.7252,10.7591,10.7773,10.8981,10.9242,10.8672,10.7478,10.6763,10.6376,10.6376,10.6376,10.6376,10.6376,10.6376,10.6376,10.6376,10.6376,10.6376,10.6376,10.6376,10.6376,10.6376,10.6376,10.6376,10.6376,10.6376,10.6376,10.6376,10.6376,10.6376,10.6376,10.6376,10.6376,10.6376,10.6376,10.6376,10.6376,10.6376,10.6376,10.6376,10.6376,10.6376,10.6376,10.6376,10.6376,10.6376,10.6376,10.6376,10.6376,10.6376,10.6376,10.6376,10.6376,10.6376,8.6824,0.0,0.0,0.0,0.0,0.0,0.0,0.0,0.0,0.0,0.0,0.0,0.0,0.0,0.0,0.0,0.0,0.0,0.0,0.0,0.0,0.0,0.0,0.0,0.0,0.0,0.0,9.7057,9.7942,9.8827,9.9712,10.0481,10.1096,10.1289,10.1904,10.2789,10.3905,10.4482,10.529,10.6405,10.6405,10.6405,10.6405,10.6405,10.6405,10.6405,10.6405,10.7405,10.8906,10.8906,10.8895,10.8893,10.8893,10.8026,10.6681,10.646,10.647,10.677,10.7702,10.8268,10.8662,10.9081,10.9119,10.8662,10.7883,10.7015,10.6376,10.6376,10.6376,10.6376,10.6376,10.6376,10.6376,10.6376,10.6376,10.6376,10.6376,10.6376,10.6376,10.6376,10.6376,10.6376,10.6376,10.6376,10.6376,10.6376,10.6376,10.6376,10.6376,10.6376,10.6376,10.6376,10.6376,10.6376,10.6376,10.6376,10.6376,10.6376,10.6376,10.6376,10.6376,10.6376,10.6376,10.6376,10.6376,10.6376,10.6376,10.6376,10.6376,10.6376,10.6376,10.6376,0.0,0.0,0.0,0.0,0.0,0.0,0.0,0.0,8.9863,0.0,0.0,0.0,0.0,0.0,0.0,0.0,0.0,0.0,0.0,0.0,0.0,0.0,0.0,0.0,0.0,0.0,0.0,9.6288,9.7096,9.7904,9.8788,9.9673,10.0481,10.1289,10.1289,10.2212,10.3905,10.3905,10.4789,10.6405,10.6405,10.6405,10.6405,10.6405,10.6405,10.6405,10.6405,10.7405,10.8906,10.8906,10.8895,10.8893,10.8893,10.8442,10.7516,10.6718,10.6888,10.7665,10.8606,10.9997,11.1192,11.0372,10.9638,10.8662,10.7883,10.7015,10.6376,10.6376,10.6376,10.6376,10.6376,10.6376,10.6376,10.6376,10.6376,10.6376,10.6376,10.6376,10.6376,10.6376,10.6376,10.6376,10.6376,10.6376,10.6376,10.6376,10.6376,10.6376,10.6376,10.6376,10.6376,10.6376,10.6376,10.6376,10.6376,10.6376,10.6376,10.6376,10.6376,10.6376,10.6376,10.6376,10.6376,10.6376,10.6376,10.6376,10.6376,10.6376,10.6376,10.6376,10.6376,10.6376,0.0,0.0,8.8709,8.8709,0.0,0.0,0.0,0.0,0.0,0.0,0.0,0.0,0.0,0.0,0.0,0.0,0.0,0.0,0.0,0.0,0.0,0.0,0.0,0.0,0.0,0.0,0.0,9.5365,9.6711,9.7865,9.875,9.9635,10.0481,10.1289,10.1289,10.2097,10.3905,10.3905,10.4713,10.6405,10.6405,10.6405,10.6405,10.6405,10.6405,10.6405,10.6405,10.7405,10.8906,10.8906,10.8895,10.8994,10.9503,10.8931,10.7628,10.7289,10.7701,10.8606,10.9521,11.0513,11.1478,11.1224,11.0107,10.8791,10.853,10.7516,10.6376,10.6376,10.6376,10.6376,10.6376,10.6376,10.6376,10.6376,10.6376,10.6376,10.6376,10.6376,10.6376,10.6376,10.6376,10.6376,10.6376,10.6376,10.6376,10.6376,10.6376,10.6376,10.6376,10.6376,10.6376,10.6376,10.6376,10.6376,10.6376,10.6376,10.6376,10.6376,10.6376,10.6376,10.6376,10.6376,10.6376,10.6376,10.6376,10.6376,10.6376,10.6376,10.6376,10.6376,10.6376,10.6376,8.9594,8.9594,0.0,8.9594,8.9594,0.0,9.0248,0.0,0.0,0.0,0.0,0.0,0.0,0.0,0.0,0.0,0.0,0.0,0.0,0.0,0.0,0.0,0.0,0.0,0.0,0.0,9.3749,9.4903,9.598,9.7134,0.0,0.0,9.9981,10.0789,10.1212,10.2097,10.3905,10.3905,10.4713,10.6405,10.6405,10.6405,10.6405,10.6405,10.6405,10.6405,10.6713,10.7598,10.8906,10.9213,10.9201,10.8994,10.9903,10.9326,10.8096,10.8096,10.8634,10.9483,11.041,11.1016,11.1522,11.1522,11.0513,10.9303,10.8956,10.7917,10.6763,10.646,10.6376,10.6376,10.6376,10.6376,10.6376,10.6376,10.6376,10.6376,10.6376,10.6376,10.6376,10.6376,10.6376,10.6376,10.6376,10.6376,10.6376,10.6376,10.6376,10.6376,10.6376,10.6376,10.6376,10.6376,10.6376,10.6376,10.6376,10.6376,10.6376,10.6376,10.6376,10.6376,10.6376,10.6376,10.6376,10.6376,10.6376,10.6376,10.6376,10.6376,10.6376,10.6376,10.6376,10.6376]},{"header":{"parameterUnit":"m.s-1","parameterCategory":1,"la1":30.6,"la2":29.2853,"lo1":-89.7004,"lo2":-87.6739,"dx":0.0162,"dy":0.0183,"nx":112,"ny":82,"refTime":"2023-02-07T06:00:00:Z","depth":0,"parameterNumber":3,"parameterNumberName":"V-component_of_WINDS"},"data":[0.0,0.0,0.0,0.0,0.0,0.0,0.0,0.0,0.0,0.0,0.0,0.0,0.0,0.0,0.0,0.0,0.0,0.0,0.0,0.0,0.0,0.0,0.0,0.0,0.0,0.0,0.0,0.0,0.0,0.0,0.0,0.0,0.0,0.0,0.0,0.0,0.0,0.0,0.0,0.0,0.0,0.0,0.0,0.0,0.0,0.0,0.0,0.0,0.0,0.0,0.0,0.0,0.0,0.0,0.0,0.0,0.0,0.0,0.0,0.0,0.0,0.0,0.0,0.0,0.0,0.0,0.0,0.0,0.0,0.0,0.0,0.0,0.0,0.0,0.0,0.0,0.0,0.0,0.0,0.0,0.0,0.0,0.0,0.0,0.0,0.0,0.0,0.0,0.0,0.0,0.0,-3.4121,-3.4492,-3.4707,-3.4707,-3.4707,-3.4707,-3.4707,0.0,0.0,0.0,0.0,0.0,0.0,0.0,0.0,0.0,0.0,0.0,0.0,0.0,0.0,0.0,0.0,0.0,0.0,0.0,0.0,0.0,0.0,0.0,0.0,0.0,0.0,0.0,0.0,0.0,0.0,0.0,0.0,0.0,0.0,0.0,0.0,0.0,0.0,0.0,0.0,0.0,0.0,0.0,0.0,0.0,0.0,0.0,0.0,0.0,0.0,0.0,0.0,0.0,0.0,0.0,0.0,0.0,0.0,0.0,0.0,0.0,0.0,0.0,0.0,0.0,0.0,0.0,0.0,0.0,0.0,0.0,0.0,0.0,0.0,0.0,0.0,0.0,0.0,0.0,0.0,0.0,0.0,0.0,0.0,0.0,0.0,0.0,0.0,0.0,0.0,0.0,0.0,0.0,0.0,0.0,0.0,0.0,0.0,0.0,0.0,0.0,0.0,0.0,0.0,-3.4531,-3.459,-3.4668,-3.4707,-3.4707,-3.4707,-3.4707,-3.4707,0.0,0.0,0.0,0.0,0.0,0.0,0.0,0.0,0.0,0.0,0.0,0.0,0.0,0.0,0.0,0.0,0.0,0.0,0.0,0.0,0.0,0.0,0.0,0.0,0.0,0.0,0.0,0.0,0.0,0.0,0.0,0.0,0.0,0.0,0.0,0.0,0.0,0.0,0.0,0.0,0.0,0.0,0.0,0.0,0.0,0.0,0.0,0.0,0.0,0.0,0.0,0.0,0.0,0.0,0.0,0.0,0.0,0.0,0.0,0.0,0.0,0.0,0.0,0.0,0.0,0.0,0.0,0.0,0.0,0.0,0.0,0.0,0.0,0.0,0.0,0.0,0.0,0.0,0.0,0.0,0.0,0.0,0.0,0.0,0.0,0.0,0.0,0.0,0.0,0.0,0.0,0.0,0.0,0.0,0.0,0.0,0.0,0.0,0.0,0.0,0.0,0.0,0.0,-3.4126,-3.5078,-3.5078,-3.5273,-3.541,-3.541,-3.541,-3.541,-3.541,-3.541,0.0,0.0,0.0,0.0,0.0,0.0,0.0,0.0,0.0,0.0,0.0,0.0,0.0,0.0,0.0,0.0,0.0,0.0,0.0,0.0,0.0,0.0,0.0,0.0,0.0,0.0,0.0,0.0,0.0,0.0,0.0,0.0,0.0,0.0,0.0,0.0,0.0,0.0,0.0,0.0,0.0,0.0,0.0,0.0,0.0,0.0,0.0,0.0,0.0,0.0,0.0,0.0,0.0,0.0,0.0,0.0,0.0,0.0,0.0,0.0,0.0,0.0,0.0,0.0,0.0,0.0,0.0,0.0,0.0,0.0,0.0,0.0,0.0,0.0,0.0,0.0,0.0,0.0,0.0,0.0,0.0,0.0,0.0,0.0,0.0,0.0,0.0,0.0,0.0,0.0,0.0,0.0,0.0,0.0,0.0,0.0,0.0,0.0,0.0,0.0,0.0,0.0,-3.449,-3.5547,-3.5547,-3.582,-3.6016,-3.6016,-3.6016,-3.6016,-3.6016,-3.6016,0.0,0.0,0.0,0.0,0.0,0.0,0.0,0.0,0.0,0.0,0.0,0.0,0.0,0.0,0.0,0.0,0.0,0.0,0.0,0.0,0.0,0.0,0.0,0.0,0.0,0.0,0.0,0.0,0.0,0.0,0.0,0.0,0.0,0.0,0.0,0.0,0.0,0.0,0.0,0.0,0.0,0.0,0.0,0.0,0.0,0.0,0.0,0.0,0.0,0.0,0.0,0.0,0.0,0.0,0.0,0.0,0.0,0.0,0.0,0.0,0.0,0.0,0.0,0.0,0.0,0.0,0.0,0.0,0.0,0.0,0.0,0.0,0.0,0.0,0.0,0.0,0.0,0.0,0.0,0.0,0.0,0.0,0.0,0.0,0.0,0.0,0.0,0.0,0.0,0.0,0.0,0.0,0.0,0.0,0.0,0.0,0.0,0.0,0.0,0.0,0.0,0.0,-3.5821,-3.5976,-3.5976,-3.5996,-3.6016,-3.6016,-3.6016,-3.6016,-3.6016,-3.6016,0.0,0.0,0.0,0.0,0.0,0.0,0.0,0.0,0.0,0.0,0.0,0.0,0.0,0.0,0.0,0.0,0.0,0.0,0.0,0.0,0.0,0.0,0.0,0.0,0.0,0.0,0.0,0.0,0.0,0.0,0.0,0.0,0.0,0.0,0.0,0.0,0.0,0.0,0.0,0.0,0.0,0.0,0.0,0.0,0.0,0.0,0.0,0.0,0.0,0.0,0.0,0.0,0.0,0.0,0.0,0.0,0.0,0.0,0.0,0.0,0.0,0.0,0.0,0.0,0.0,0.0,0.0,0.0,0.0,0.0,0.0,0.0,0.0,0.0,0.0,0.0,0.0,0.0,0.0,0.0,0.0,0.0,0.0,0.0,0.0,0.0,0.0,0.0,0.0,0.0,0.0,0.0,0.0,0.0,0.0,0.0,0.0,0.0,0.0,0.0,0.0,0.0,-3.4687,-3.5218,0.0,-3.6816,-3.6816,-3.6816,-3.6816,-3.6816,-3.6816,0.0,0.0,0.0,0.0,0.0,0.0,0.0,0.0,0.0,0.0,0.0,0.0,0.0,0.0,0.0,0.0,0.0,0.0,0.0,0.0,0.0,0.0,0.0,0.0,0.0,0.0,0.0,0.0,0.0,0.0,0.0,0.0,0.0,0.0,0.0,0.0,0.0,0.0,0.0,0.0,0.0,0.0,0.0,0.0,0.0,0.0,0.0,0.0,0.0,0.0,0.0,0.0,0.0,0.0,0.0,0.0,0.0,0.0,0.0,0.0,0.0,0.0,0.0,0.0,0.0,0.0,0.0,0.0,0.0,0.0,0.0,0.0,0.0,0.0,0.0,0.0,0.0,0.0,0.0,0.0,0.0,0.0,0.0,0.0,0.0,0.0,0.0,0.0,0.0,0.0,0.0,0.0,0.0,0.0,0.0,0.0,0.0,0.0,0.0,0.0,0.0,0.0,-3.3607,-3.3928,-3.4765,0.0,-3.7305,-3.7305,-3.7305,-3.7305,-3.7305,-3.7305,0.0,0.0,0.0,0.0,0.0,0.0,0.0,0.0,0.0,0.0,0.0,0.0,0.0,0.0,0.0,0.0,0.0,0.0,0.0,0.0,0.0,0.0,0.0,0.0,0.0,0.0,0.0,0.0,0.0,0.0,0.0,0.0,0.0,0.0,0.0,0.0,0.0,0.0,0.0,0.0,0.0,0.0,0.0,0.0,0.0,0.0,0.0,0.0,0.0,0.0,0.0,0.0,0.0,0.0,0.0,0.0,0.0,0.0,0.0,0.0,0.0,0.0,0.0,0.0,0.0,0.0,0.0,0.0,0.0,0.0,0.0,0.0,0.0,0.0,0.0,0.0,0.0,0.0,0.0,0.0,0.0,0.0,0.0,0.0,0.0,0.0,0.0,0.0,0.0,0.0,0.0,0.0,0.0,0.0,0.0,0.0,0.0,0.0,0.0,0.0,0.0,0.0,-3.3748,-3.4181,-3.4935,-3.7022,-3.7305,-3.7305,-3.7305,-3.7305,-3.7305,0.0,0.0,0.0,0.0,0.0,0.0,0.0,0.0,0.0,0.0,0.0,0.0,0.0,0.0,0.0,0.0,0.0,0.0,0.0,0.0,0.0,0.0,0.0,0.0,0.0,0.0,0.0,0.0,0.0,0.0,0.0,0.0,0.0,0.0,0.0,0.0,0.0,0.0,0.0,0.0,0.0,0.0,0.0,0.0,0.0,0.0,0.0,0.0,0.0,0.0,0.0,0.0,0.0,0.0,0.0,0.0,0.0,0.0,0.0,0.0,0.0,0.0,0.0,0.0,0.0,0.0,0.0,0.0,0.0,0.0,0.0,0.0,0.0,0.0,0.0,0.0,0.0,0.0,0.0,0.0,0.0,0.0,0.0,0.0,0.0,0.0,0.0,0.0,0.0,0.0,0.0,0.0,0.0,0.0,0.0,0.0,0.0,0.0,0.0,0.0,0.0,0.0,0.0,-3.2207,-3.3863,-3.5157,-3.5889,-3.7295,-3.8203,-3.8203,-3.8203,-3.8203,-3.8203,0.0,0.0,0.0,0.0,0.0,0.0,0.0,0.0,0.0,0.0,0.0,0.0,0.0,0.0,0.0,0.0,0.0,0.0,0.0,0.0,0.0,0.0,0.0,0.0,0.0,0.0,0.0,0.0,0.0,0.0,0.0,0.0,0.0,0.0,0.0,0.0,0.0,0.0,0.0,0.0,0.0,0.0,0.0,0.0,0.0,0.0,0.0,0.0,0.0,0.0,0.0,0.0,0.0,0.0,0.0,0.0,0.0,0.0,0.0,0.0,0.0,0.0,0.0,0.0,0.0,0.0,0.0,0.0,0.0,0.0,0.0,0.0,0.0,0.0,0.0,0.0,0.0,0.0,0.0,0.0,0.0,0.0,0.0,0.0,0.0,0.0,0.0,0.0,0.0,0.0,0.0,0.0,0.0,0.0,0.0,0.0,0.0,0.0,0.0,0.0,0.0,0.0,-3.0631,-3.2008,-3.3143,-3.4134,-3.6127,-3.7051,-3.6294,-3.7658,-3.8263,-3.7492,0.0,0.0,0.0,0.0,0.0,0.0,0.0,0.0,0.0,0.0,0.0,0.0,0.0,0.0,0.0,0.0,0.0,0.0,0.0,0.0,0.0,0.0,0.0,0.0,0.0,0.0,0.0,0.0,0.0,0.0,0.0,0.0,0.0,0.0,0.0,0.0,0.0,0.0,0.0,0.0,0.0,0.0,0.0,0.0,0.0,0.0,0.0,0.0,0.0,0.0,0.0,0.0,0.0,0.0,0.0,0.0,0.0,0.0,0.0,0.0,0.0,0.0,0.0,0.0,0.0,0.0,0.0,0.0,0.0,0.0,0.0,0.0,0.0,0.0,0.0,0.0,0.0,0.0,0.0,0.0,0.0,0.0,0.0,0.0,0.0,0.0,0.0,0.0,0.0,0.0,0.0,0.0,0.0,0.0,0.0,0.0,0.0,0.0,0.0,0.0,0.0,0.0,-2.8983,-2.9449,-3.0361,-3.2048,-3.4001,-3.4451,-3.2657,-3.6146,-3.7492,-3.5664,0.0,0.0,0.0,0.0,0.0,0.0,0.0,0.0,0.0,0.0,0.0,0.0,0.0,0.0,0.0,0.0,0.0,0.0,0.0,0.0,0.0,0.0,0.0,0.0,0.0,0.0,0.0,0.0,0.0,0.0,0.0,0.0,0.0,0.0,0.0,0.0,0.0,0.0,0.0,0.0,0.0,0.0,0.0,0.0,0.0,0.0,0.0,0.0,0.0,0.0,0.0,0.0,0.0,0.0,0.0,0.0,0.0,0.0,0.0,0.0,-2.3394,0.0,0.0,0.0,0.0,0.0,0.0,0.0,0.0,0.0,0.0,0.0,0.0,0.0,0.0,0.0,0.0,0.0,0.0,0.0,0.0,0.0,0.0,0.0,0.0,0.0,0.0,0.0,0.0,0.0,0.0,0.0,0.0,0.0,0.0,0.0,0.0,0.0,0.0,0.0,0.0,0.0,-2.7148,-2.9913,-3.1421,-3.0207,-3.1879,-3.2961,-3.2505,-3.4751,-3.5961,-3.5497,0.0,0.0,0.0,0.0,0.0,0.0,0.0,0.0,0.0,0.0,0.0,0.0,0.0,0.0,0.0,0.0,0.0,0.0,0.0,0.0,0.0,0.0,0.0,0.0,0.0,0.0,0.0,0.0,0.0,0.0,0.0,0.0,0.0,0.0,0.0,0.0,0.0,0.0,0.0,0.0,0.0,0.0,0.0,0.0,0.0,0.0,0.0,0.0,0.0,0.0,0.0,0.0,0.0,0.0,0.0,0.0,0.0,0.0,0.0,0.0,0.0,-2.3768,0.0,0.0,0.0,0.0,0.0,0.0,0.0,0.0,0.0,0.0,0.0,0.0,0.0,0.0,0.0,0.0,0.0,0.0,0.0,0.0,0.0,0.0,0.0,0.0,0.0,0.0,0.0,0.0,0.0,0.0,0.0,0.0,0.0,0.0,0.0,0.0,0.0,0.0,0.0,0.0,-2.6544,-2.8232,-2.9138,-2.8076,-2.9743,-3.0669,-2.9604,-3.2337,-3.37,-3.2624,-3.3549,0.0,0.0,0.0,0.0,0.0,0.0,0.0,0.0,0.0,0.0,0.0,0.0,0.0,0.0,0.0,0.0,0.0,0.0,0.0,0.0,0.0,0.0,0.0,0.0,0.0,0.0,0.0,0.0,0.0,0.0,0.0,0.0,0.0,0.0,0.0,0.0,0.0,0.0,0.0,0.0,0.0,0.0,0.0,0.0,0.0,0.0,0.0,0.0,0.0,0.0,0.0,0.0,0.0,0.0,-2.4022,-2.4088,-2.4315,-2.4436,-2.4422,-2.4182,-2.4048,-2.4008,0.0,0.0,0.0,0.0,0.0,0.0,0.0,0.0,0.0,0.0,0.0,0.0,0.0,0.0,0.0,0.0,0.0,0.0,0.0,0.0,0.0,0.0,0.0,0.0,0.0,-2.5852,-2.5959,0.0,0.0,0.0,0.0,0.0,0.0,0.0,0.0,0.0,0.0,0.0,0.0,-2.6453,-2.6466,-2.648,-2.6533,-2.8075,-2.8389,-2.6692,-2.9925,-3.1304,-2.9613,-3.115,-3.1427,0.0,0.0,0.0,0.0,0.0,0.0,0.0,0.0,0.0,0.0,0.0,0.0,0.0,0.0,0.0,0.0,0.0,0.0,0.0,0.0,0.0,0.0,0.0,0.0,0.0,0.0,0.0,0.0,0.0,0.0,0.0,0.0,-2.1975,-2.2173,0.0,0.0,0.0,0.0,0.0,0.0,0.0,0.0,0.0,0.0,0.0,0.0,0.0,0.0,-2.3768,-2.4022,-2.4275,-2.4529,-2.4783,-2.5037,-2.5291,-2.5317,-2.5344,-2.5344,-2.5304,0.0,-2.493,-2.5184,0.0,0.0,0.0,0.0,0.0,0.0,0.0,0.0,0.0,0.0,0.0,0.0,0.0,0.0,0.0,0.0,0.0,0.0,0.0,0.0,0.0,0.0,-2.6266,-2.6266,-2.6306,-2.6319,0.0,-2.6266,-2.6279,-2.6319,0.0,0.0,0.0,0.0,0.0,0.0,0.0,0.0,-2.6734,-2.676,-2.6867,-2.7121,-2.7473,-2.7473,-2.7148,-2.9355,-3.0445,-3.0141,-3.0445,-3.1101,-3.2349,-2.9251,0.0,0.0,0.0,0.0,0.0,0.0,0.0,0.0,0.0,0.0,0.0,0.0,0.0,0.0,0.0,0.0,0.0,0.0,0.0,0.0,0.0,0.0,0.0,0.0,0.0,0.0,0.0,0.0,0.0,-2.1911,-2.2044,-2.2205,-2.2378,-2.2552,0.0,0.0,0.0,0.0,0.0,0.0,0.0,0.0,0.0,-2.4249,-2.4422,-2.4583,-2.4743,-2.4877,-2.4997,-2.513,-2.5264,-2.5384,-2.5518,-2.5518,-2.5518,-2.5518,-2.5692,-2.5692,-2.5571,-2.5531,-2.5518,-2.5518,0.0,0.0,0.0,0.0,0.0,-2.5518,-2.5518,-2.5518,0.0,0.0,0.0,0.0,0.0,0.0,0.0,0.0,0.0,0.0,0.0,0.0,0.0,-2.6386,-2.6386,-2.6386,-2.6386,-2.652,-2.6587,0.0,-2.6386,-2.644,-2.66,0.0,0.0,0.0,0.0,0.0,-2.7054,-2.7068,-2.7121,-2.7255,-2.7268,-2.7268,-2.7268,-2.8056,-2.8529,-2.8529,-2.8529,-2.8944,-2.9748,-2.8011,-2.7486,0.0,0.0,0.0,0.0,0.0,0.0,0.0,0.0,0.0,0.0,0.0,0.0,0.0,0.0,0.0,0.0,0.0,0.0,0.0,0.0,0.0,0.0,0.0,0.0,0.0,0.0,0.0,0.0,-2.2231,-2.2405,-2.2632,-2.2913,-2.318,0.0,0.0,0.0,0.0,0.0,0.0,-2.4102,-2.4382,-2.4636,-2.485,-2.5077,-2.5291,-2.5504,-2.5518,-2.5545,-2.5625,-2.5625,-2.5665,-2.5732,-2.5732,-2.5732,-2.5745,-2.5972,-2.6066,-2.6052,-2.5825,-2.5732,-2.5732,-2.5732,-2.5732,-2.5732,-2.5732,-2.5732,-2.5732,-2.5732,-2.5732,-2.5732,-2.5732,0.0,-2.5785,-2.5999,0.0,0.0,0.0,0.0,-2.6386,-2.6386,0.0,-2.6413,-2.648,-2.6507,-2.652,-2.66,-2.6787,-2.6854,0.0,-2.656,-2.668,-2.6894,0.0,0.0,0.0,0.0,-2.7295,-2.7362,-2.7375,-2.7402,-2.7482,-2.7495,-2.7495,-2.7495,-2.7495,-2.7495,-2.7495,-2.7495,-2.7455,-2.7375,-2.7375,-2.7348,-2.7268,0.0,0.0,0.0,0.0,0.0,0.0,0.0,0.0,0.0,0.0,0.0,0.0,0.0,0.0,0.0,0.0,0.0,0.0,0.0,0.0,0.0,0.0,0.0,0.0,0.0,0.0,0.0,0.0,0.0,-2.3273,-2.3541,0.0,0.0,0.0,0.0,-2.4155,-2.4436,-2.4716,-2.4997,-2.5291,-2.5451,-2.5464,-2.5478,-2.5504,-2.5518,-2.5518,-2.5651,-2.5932,-2.5932,-2.6079,-2.6346,-2.6346,-2.6346,-2.6346,-2.636,-2.6373,-2.6373,-2.6346,-2.6346,-2.6346,-2.6346,-2.6346,-2.6346,-2.6346,-2.6346,-2.6346,-2.6346,-2.6346,-2.6346,-2.6346,-2.6346,-2.6346,-2.636,-2.6373,0.0,0.0,-2.6386,-2.6386,-2.6386,-2.6386,-2.6453,-2.6734,-2.68,-2.6881,-2.7161,-2.7228,-2.7161,0.0,-2.7028,-2.7228,-2.7241,0.0,-2.7241,-2.7268,-2.7268,-2.7362,-2.7642,-2.7682,-2.7789,-2.807,-2.8096,-2.8096,-2.8096,-2.8096,-2.8096,-2.8096,-2.8096,-2.7976,-2.7682,-2.7682,-2.7549,-2.7268,-2.7268,0.0,0.0,0.0,0.0,0.0,0.0,0.0,0.0,0.0,0.0,0.0,0.0,0.0,0.0,0.0,0.0,0.0,0.0,0.0,0.0,0.0,0.0,0.0,0.0,0.0,0.0,0.0,0.0,-2.3607,-2.3875,0.0,0.0,-2.4396,-2.4663,-2.4756,-2.5037,-2.5251,-2.5358,-2.5451,-2.5598,-2.5798,-2.5798,-2.5892,-2.6079,-2.6079,-2.6132,-2.6239,-2.6239,-2.6293,-2.6386,-2.6386,-2.6386,-2.6386,-2.6386,-2.6386,-2.6386,-2.6386,-2.6386,-2.6386,-2.6386,-2.6386,-2.6386,-2.6386,-2.6386,-2.6386,-2.6386,-2.6386,-2.6386,-2.6386,-2.6386,-2.6386,-2.6386,-2.652,-2.6667,-2.6667,-2.68,-2.6947,-2.6947,-2.6947,-2.6974,-2.7081,-2.7108,-2.7134,-2.7241,-2.7415,-2.7509,-2.7402,-2.7321,-2.7321,-2.7509,-2.7549,-2.7615,-2.7802,-2.8003,-2.8163,-2.827,-2.8444,-2.8604,-2.8711,-2.8724,-2.8724,-2.8724,-2.8724,-2.8724,-2.8724,-2.8724,-2.8671,-2.8564,-2.8377,-2.823,-2.8136,-2.7936,-2.7736,0.0,0.0,0.0,0.0,0.0,0.0,0.0,0.0,0.0,0.0,0.0,0.0,0.0,0.0,0.0,0.0,0.0,0.0,0.0,0.0,0.0,0.0,0.0,0.0,0.0,0.0,-2.3955,-2.4048,-2.4315,-2.4543,-2.4636,-2.4997,-2.5224,-2.5224,-2.5491,-2.5665,-2.5665,-2.5758,-2.5892,-2.6092,-2.6106,-2.6199,-2.6386,-2.6386,-2.6386,-2.6386,-2.6386,-2.6386,-2.6386,-2.6386,-2.644,-2.6533,-2.6533,-2.6587,-2.668,-2.668,-2.668,-2.6667,-2.6466,-2.6386,-2.6386,-2.6386,-2.6453,-2.6547,-2.6653,-2.668,-2.668,-2.668,-2.668,-2.668,-2.668,-2.6814,-2.6974,-2.6974,-2.7108,-2.7268,-2.7268,-2.7268,-2.7295,-2.7388,-2.7415,-2.7468,-2.7669,-2.7869,-2.803,-2.8136,-2.7923,-2.7776,-2.7976,-2.8083,-2.8217,-2.8417,-2.8617,-2.8751,-2.8751,-2.8925,-2.9045,-2.9045,-2.9125,-2.9192,-2.9192,-2.9192,-2.9192,-2.9192,-2.9098,-2.9045,-2.9045,-2.8858,-2.8751,-2.8751,-2.8457,-2.8203,-2.8003,0.0,0.0,0.0,0.0,0.0,0.0,0.0,0.0,0.0,0.0,0.0,0.0,0.0,0.0,0.0,0.0,0.0,0.0,0.0,0.0,0.0,0.0,0.0,-2.3834,-2.4048,-2.4342,-2.4636,-2.4917,-2.5197,-2.5478,-2.5518,-2.5531,-2.5531,-2.5798,-2.5972,-2.5972,-2.6239,-2.6386,-2.6386,-2.6386,-2.6386,-2.6386,-2.64,-2.64,-2.64,-2.6413,-2.6413,-2.6413,-2.6413,-2.6573,-2.6841,-2.6841,-2.7001,-2.7268,-2.7268,-2.7268,-2.7215,-2.664,-2.6413,-2.6413,-2.6413,-2.66,-2.6881,-2.7161,-2.7268,-2.7268,-2.7268,-2.7268,-2.7268,-2.7268,-2.7268,-2.7281,-2.7281,-2.7281,-2.7295,-2.7308,-2.7308,-2.7375,-2.7669,-2.7736,-2.7896,-2.8497,-2.8617,-2.8711,-2.8991,-2.8831,-2.8644,-2.8631,-2.8858,-2.9045,-2.9045,-2.9058,0.0,-2.9085,-2.9085,-2.9098,-2.9098,-2.9352,-2.9526,-2.9526,-2.9526,-2.9526,-2.9526,-2.9259,-2.9098,-2.9098,-2.9085,-2.9072,-2.9058,-2.8764,-2.8617,-2.8617,0.0,0.0,0.0,0.0,0.0,0.0,0.0,0.0,0.0,0.0,0.0,0.0,0.0,0.0,0.0,0.0,0.0,0.0,0.0,0.0,0.0,0.0,-2.473,-2.4436,-2.4649,-2.4943,-2.5237,-2.5344,-2.5424,-2.5504,-2.5705,-2.5838,-2.5838,-2.6106,-2.6266,-2.6266,-2.6346,-2.6386,-2.6386,-2.6386,-2.6386,-2.6386,-2.66,-2.6707,-2.6707,-2.6921,-2.7028,-2.7028,-2.7028,-2.7068,-2.7148,-2.7148,-2.7188,-2.7268,-2.7268,-2.7268,-2.7255,-2.7081,-2.7028,-2.7028,-2.7028,-2.7081,-2.7161,-2.7241,-2.7268,-2.7268,-2.7268,-2.7268,-2.7268,-2.7268,-2.7415,-2.7575,-2.7575,-2.7736,-2.7949,-2.8177,-2.8243,-2.831,-2.8604,-2.8671,-2.8711,-2.8885,-2.8925,-2.8951,-2.9032,-2.9312,-2.9419,-2.8991,-2.8991,-2.9112,-2.9325,-2.9539,0.0,-2.9967,-3.0181,-3.0314,-3.0314,-3.0381,-3.0434,-3.0434,-3.0434,-3.0434,-3.0434,-3.0354,-3.0314,-3.0314,-3.0114,-2.9793,-2.9366,-2.9072,-2.8925,0.0,0.0,0.0,0.0,0.0,0.0,0.0,0.0,0.0,0.0,0.0,0.0,0.0,0.0,0.0,0.0,0.0,0.0,0.0,0.0,0.0,0.0,-2.5144,-2.5251,-2.5197,-2.5224,-2.5371,-2.5665,-2.5692,-2.5745,-2.5865,-2.6039,-2.6132,-2.6132,-2.6293,-2.6386,-2.6386,-2.6386,-2.644,-2.656,-2.6573,-2.6627,-2.676,-2.6921,-2.7001,-2.7014,-2.7188,-2.7335,-2.7442,-2.7442,-2.7589,0.0,-2.7829,-2.7896,-2.8003,-2.8003,-2.8003,0.0,0.0,0.0,0.0,0.0,-2.7442,-2.7468,-2.7589,-2.7629,-2.7655,-2.7789,-2.7829,-2.7856,-2.7976,-2.8123,-2.8257,-2.8257,-2.839,-2.8564,-2.8738,-2.8791,-2.8831,-2.9005,-2.9138,-2.9259,-2.9379,-2.9499,-2.9633,-2.9753,0.0,0.0,-2.9833,-2.978,-2.9833,-3.0007,-3.0181,-3.0341,-3.0515,-3.0688,-3.0795,-3.0795,-3.0902,-3.0969,-3.0969,-3.0969,0.0,0.0,0.0,-3.0795,-3.0795,-3.0635,0.0,0.0,0.0,-2.9526,0.0,0.0,0.0,0.0,-2.8364,-2.8243,0.0,0.0,0.0,0.0,0.0,0.0,0.0,0.0,0.0,0.0,0.0,0.0,0.0,0.0,0.0,0.0,-2.5558,-2.5665,-2.5959,-2.5772,-2.5705,-2.5972,-2.6012,-2.6106,-2.636,-2.6386,-2.6386,-2.6386,-2.6386,-2.64,-2.644,0.0,0.0,0.0,0.0,-2.7001,-2.7268,-2.7335,-2.7362,-2.7362,-2.7428,-2.7602,-2.7856,-2.7856,-2.815,-2.8657,-2.8657,-2.8804,-2.9045,-2.9045,-2.9045,-2.8938,-2.7883,-2.7468,-2.7495,-2.7749,-2.7856,0.0,0.0,0.0,0.0,-2.8564,-2.8657,-2.8711,-2.8965,-2.9045,-2.9045,-2.9045,-2.9072,-2.9098,-2.9125,-2.9165,-2.9192,-2.9232,-2.9446,-2.97,-2.9967,-3.0221,-3.0488,-3.0742,-3.0822,-3.0849,-3.0849,-3.0808,-3.0808,-3.0835,-3.0849,-3.0849,-3.0889,-3.0889,-3.0889,-3.0889,0.0,0.0,-3.1276,-3.1276,-3.1276,-3.1276,-3.1036,-3.0889,-3.0889,-3.0862,-3.0849,-3.0849,-3.0555,-3.0274,-3.002,-2.9753,-2.9499,-2.9232,-2.9098,-2.9045,0.0,0.0,0.0,0.0,0.0,0.0,0.0,0.0,0.0,0.0,0.0,0.0,0.0,0.0,0.0,-2.5825,-2.5865,-2.5972,-2.6266,-2.6253,-2.6239,-2.6293,-2.6306,-2.6333,-2.6386,-2.6386,-2.6386,-2.6386,-2.6386,-2.6493,-2.672,-2.6734,0.0,-2.7175,-2.7175,-2.7201,-2.7268,-2.7736,-2.7976,-2.7976,0.0,0.0,-2.8778,-2.8778,-2.8845,-2.8951,-2.8951,-2.8991,-2.9045,-2.9045,-2.9045,-2.9018,-2.8791,-2.8698,-2.8698,-2.8764,-2.8778,-2.8791,-2.8845,-2.8871,-2.8871,-2.8938,-2.8951,-2.8965,-2.9018,-2.9045,0.0,-2.9045,-2.9219,-2.9446,-2.9686,-2.9927,-3.0167,-3.0394,-3.0501,-3.0555,-3.0608,-3.0675,-3.0728,-3.0782,-3.0982,-3.1142,-3.1142,-3.0942,-3.0875,-3.1102,-3.1142,-3.1223,-3.1463,-3.1503,-3.1503,-3.1503,-3.1557,-3.1583,-3.1583,-3.1583,-3.1583,-3.1583,-3.153,-3.1503,-3.1503,-3.1263,-3.1142,-3.1142,-3.0862,-3.0675,-3.0621,-3.0568,-3.0515,-3.0434,-2.9486,-2.9045,0.0,0.0,0.0,0.0,0.0,0.0,0.0,0.0,0.0,0.0,0.0,-2.5384,0.0,0.0,-2.5825,-2.6119,-2.6172,-2.6226,-2.6373,-2.6386,-2.6386,-2.6386,-2.6386,-2.6386,-2.6386,-2.6386,-2.6453,-2.66,-2.66,-2.6734,-2.7028,-2.7041,-2.7241,-2.7696,-2.7709,-2.7843,-2.815,-2.8444,-2.8591,-2.8591,-2.8898,-2.9112,-2.9259,-2.9419,-2.9553,-2.9713,-2.986,-2.9913,-2.9913,-2.9913,-2.9913,-2.9913,-2.9913,-2.9553,-2.9045,-2.9045,-2.9138,-2.9259,-2.9259,-2.9352,-2.9499,-2.9646,-2.97,-2.9726,-2.9873,-2.9913,-2.9913,-2.9913,-3.002,-3.0167,-3.0314,-3.0461,-3.0608,-3.0755,-3.0902,-3.1009,-3.1009,-3.1129,-3.1236,-3.1236,-3.1356,-3.145,-3.145,-3.133,-3.1276,-3.1423,-3.145,-3.1503,-3.165,-3.1664,-3.1664,-3.1664,-3.1664,-3.1664,-3.1664,-3.1664,-3.1664,-3.1664,-3.1664,-3.1664,-3.1664,-3.153,-3.145,-3.145,-3.1303,-3.1156,-3.1009,-3.1009,-3.0929,-3.0782,-3.0194,-2.9913,0.0,0.0,0.0,0.0,0.0,0.0,0.0,0.0,-2.5251,-2.5545,-2.5598,-2.5692,-2.5985,-2.6039,-2.6119,-2.6346,-2.6386,-2.6386,-2.6386,-2.6386,-2.6413,-2.6466,-2.6426,-2.6413,-2.6466,-2.6466,-2.66,-2.6881,-2.6907,-2.7068,-2.7415,-2.7442,-2.7709,-2.8297,-2.8323,-2.8551,-2.9032,-2.9152,-2.9205,-2.9205,-2.9325,-2.9499,-2.974,-2.998,-3.0221,-3.0461,-3.0688,-3.0795,-3.0795,-3.0795,-3.0795,-3.0795,-3.0795,-3.0221,-2.9379,-2.9379,-2.9526,-2.974,-2.974,-2.9887,-3.0127,-3.0368,-3.0448,-3.0488,-3.0715,-3.0795,-3.0795,-3.0795,-3.0835,-3.0875,-3.0875,-3.0915,-3.0969,-3.0969,-3.1142,-3.1316,-3.1316,-3.1503,-3.1664,-3.1664,-3.1717,-3.1757,-3.1757,-3.1797,-3.1824,-3.1757,-3.1757,-3.177,-3.1837,-3.1837,-3.1837,-3.1837,-3.1837,-3.1837,-3.1837,-3.1837,-3.1837,-3.1837,-3.1837,-3.1837,-3.1837,-3.1784,-3.1757,-3.1757,-3.1704,-3.1557,-3.1316,-3.1316,-3.1196,-3.0969,-3.0969,-3.0902,-2.4543,-2.4756,0.0,-2.5344,-2.5411,-2.5424,0.0,0.0,-2.5545,-2.5852,-2.5905,-2.5999,-2.6293,-2.6346,-2.636,-2.6386,-2.6386,-2.6386,-2.6386,-2.6386,-2.6493,-2.6747,-2.6547,-2.6493,-2.6747,-2.6774,-2.6894,-2.7201,-2.7215,-2.7455,-2.8016,-2.8043,-2.8323,-2.8925,-2.8938,-2.8965,-2.9045,-2.9553,-2.982,-2.982,-3.0341,-3.0608,-3.0648,-3.0675,-3.0715,-3.0742,-3.0782,-3.0795,-3.0795,-3.0795,-3.0795,-3.0795,-3.0795,-3.0715,-3.0595,-3.0595,-3.0621,-3.0648,-3.0648,-3.0675,-3.0702,-3.0728,-3.0742,-3.0755,-3.0782,-3.0795,-3.0795,-3.0795,-3.0982,-3.1183,-3.1183,-3.137,-3.157,-3.157,-3.1597,-3.1623,-3.1623,-3.165,-3.1664,-3.1664,-3.1877,-3.2051,-3.2051,-3.2278,-3.2358,-3.2091,-3.2051,-3.2144,-3.2412,-3.2452,-3.2452,-3.2452,-3.2452,-3.2452,-3.2452,-3.2452,-3.2452,-3.2452,-3.2452,-3.2452,-3.2452,-3.2198,-3.2051,-3.2051,-3.1797,-3.165,-3.1623,-3.1623,-3.1597,-3.157,-3.157,-3.1289,-2.5104,0.0,0.0,0.0,-2.5518,-2.5558,-2.5732,-2.5772,-2.5852,-2.6146,-2.6213,-2.6239,-2.6373,-2.6386,-2.6386,0.0,-2.6386,-2.6386,-2.6386,-2.6533,-2.668,-2.6814,-2.6867,-2.6947,-2.7068,-2.7081,-2.7268,-2.7736,-2.7776,-2.8043,-2.8631,-2.8657,-2.8858,-2.9285,-2.9459,-2.9633,-2.9806,-3.0221,-3.0421,-3.0434,-3.0675,-3.0795,-3.0795,-3.0969,-3.1142,-3.1303,-3.1303,-3.1303,-3.1303,-3.1303,-3.1303,-3.1303,-3.1303,-3.1303,-3.1263,-3.0915,-3.0902,-3.1049,-3.1049,-3.1156,-3.1303,-3.1303,-3.1303,-3.1303,-3.1303,-3.1303,-3.1303,-3.1303,-3.1396,-3.149,-3.149,-3.157,-3.1664,-3.1664,-3.1664,-3.1717,-3.1891,-3.1917,-3.1971,-3.2144,-3.2278,-3.2358,-3.2358,-3.2465,-3.2559,-3.2612,-3.2465,-3.2412,-3.2532,-3.2545,-3.2545,-3.2545,-3.2545,-3.2545,-3.2545,-3.2545,-3.2545,-3.2545,-3.2545,-3.2545,-3.2545,-3.2425,-3.2358,-3.2358,-3.2238,-3.2185,-3.2185,-3.2185,-3.2185,-3.2171,-3.1998,-3.1784,-2.5558,0.0,0.0,-2.5732,-2.5758,-2.5812,-2.6026,-2.6079,-2.6132,-2.6346,-2.6386,-2.6386,-2.6386,-2.6386,0.0,-2.6386,-2.6453,-2.6507,-2.6507,-2.676,-2.6974,-2.7054,-2.7321,-2.7549,-2.7629,-2.7562,-2.7722,-2.823,-2.8337,-2.8617,-2.9138,-2.9232,-2.9419,-2.9713,-3.0007,-3.0261,-3.0474,-3.0768,-3.0915,-3.0915,-3.0996,-3.1036,-3.1036,-3.1249,-3.1463,-3.1664,-3.1664,-3.1664,-3.1664,-3.1664,-3.1664,-3.1664,-3.1664,-3.1664,-3.1623,-3.1196,-3.1169,-3.1343,-3.1343,-3.149,-3.1664,-3.1664,-3.1664,-3.1664,-3.1664,-3.1664,-3.1664,-3.1664,-3.1664,-3.169,-3.177,-3.1784,-3.181,-3.1891,-3.1917,-3.1971,-3.2185,-3.2225,-3.2291,-3.2505,-3.2612,-3.2692,-3.2772,-3.2853,-3.3013,-3.3307,-3.3173,-3.3,-3.2933,-3.2986,-3.304,-3.304,-3.304,-3.304,-3.304,-3.304,-3.304,-3.304,-3.304,-3.3,-3.2919,-3.2826,-3.2746,-3.2666,-3.2585,-3.2545,-3.2545,-3.2545,-3.2545,-3.2545,-3.2318,-3.2225,0.0,0.0,-2.6012,-2.6293,-2.636,-2.636,-2.6373,-2.6373,-2.6373,-2.6386,-2.6386,-2.6386,-2.6386,-2.6386,-2.6386,-2.6386,-2.6627,-2.6814,-2.6814,-2.7068,-2.7362,-2.7642,-2.7936,-2.823,0.0,-2.8297,-2.8243,-2.8564,-2.8858,-2.9152,-2.9459,-2.974,-3.0034,-3.0327,-3.0621,-3.0768,-3.0782,-3.1062,-3.1209,-3.1209,-3.1503,-3.1637,-3.1637,-3.165,-3.1664,-3.1664,-3.1664,-3.1664,-3.1664,-3.1664,-3.1664,-3.1664,-3.1664,-3.1664,-3.1664,-3.165,-3.165,-3.165,-3.165,-3.1664,-3.1664,-3.1664,-3.1664,-3.1664,-3.1664,-3.1664,-3.1664,-3.1664,-3.1664,-3.173,-3.2011,-3.2091,-3.2158,-3.2452,-3.2519,-3.2519,-3.2532,-3.2532,-3.2532,-3.2545,-3.2772,-3.3053,-3.3334,-3.3641,-3.3948,-3.4242,-3.4269,-3.4162,-3.3881,-3.4095,-3.4269,-3.4269,-3.4269,-3.4269,-3.4269,-3.4269,-3.4269,-3.4269,-3.4269,-3.4135,-3.3855,-3.3547,-3.3253,-3.2973,-3.2692,-3.2545,-3.2545,-3.2545,-3.2545,-3.2545,-3.2532,-3.2532,0.0,0.0,-2.6266,-2.636,-2.6386,-2.6386,-2.6386,-2.6386,-2.6386,-2.6386,-2.6386,-2.6386,-2.6386,-2.6386,-2.6453,-2.664,-2.676,-2.6894,-2.7094,-2.7375,-2.7655,-2.7963,-2.827,0.0,0.0,0.0,0.0,-2.9165,-2.9459,-2.9753,-3.0047,-3.0341,-3.0541,-3.0648,-3.0929,-3.1076,-3.1076,-3.137,-3.1517,-3.1517,-3.1623,-3.1664,-3.1664,-3.1664,-3.1664,-3.1664,-3.1664,-3.1664,-3.1664,-3.1664,-3.1664,-3.169,-3.1877,-3.1957,-3.1984,-3.2185,-3.2251,-3.2198,-3.181,-3.1664,-3.1664,-3.1664,-3.1664,-3.1704,-3.1891,-3.1957,-3.1998,-3.2198,-3.2251,-3.2278,-3.2372,-3.2398,-3.2425,-3.2519,-3.2545,-3.2599,-3.2786,-3.2986,-3.3187,-3.34,-3.3668,-3.3895,-3.4002,-3.4108,-3.4202,-3.4309,-3.4322,-3.4282,-3.4189,-3.4255,-3.4322,-3.4322,-3.4322,-3.4322,-3.4322,-3.4322,-3.4322,-3.4322,-3.4322,-3.4282,-3.4175,-3.4068,-3.3961,-3.3868,-3.3774,-3.3721,-3.3721,-3.3534,-3.344,-3.3427,-3.3026,-3.2839,0.0,-2.6386,-2.6386,-2.6386,-2.6386,-2.6386,-2.6386,-2.6386,-2.6386,-2.6386,-2.6386,-2.6426,-2.6533,-2.6547,-2.664,-2.6934,-2.7068,-2.7241,-2.7535,-2.7829,-2.8136,-2.843,-2.8738,0.0,0.0,0.0,0.0,-2.9633,-2.9913,-3.0207,-3.0501,-3.0795,-3.0942,-3.0942,-3.1236,-3.1383,-3.1383,-3.157,-3.1664,-3.1664,-3.1664,-3.1664,-3.1664,-3.1664,-3.173,-3.1824,-3.1824,-3.1877,-3.1984,-3.1984,-3.1984,-3.1998,-3.2185,-3.2265,-3.2278,-3.2478,-3.2545,-3.2492,-3.2118,-3.1984,-3.1984,-3.1984,-3.1984,-3.2011,-3.2198,-3.2265,-3.2305,-3.2492,-3.2545,-3.2572,-3.2679,-3.2706,-3.2732,-3.2826,-3.2946,-3.308,-3.3267,-3.3534,-3.3801,-3.4002,-3.4189,-3.4349,-3.4456,-3.4563,-3.4629,-3.4629,-3.4723,-3.471,-3.4509,-3.4563,-3.4629,-3.4629,-3.4629,-3.4629,-3.4629,-3.4629,-3.4629,-3.4629,-3.4629,-3.4589,-3.4482,-3.4482,-3.4429,-3.4322,-3.4322,-3.4322,-3.4322,-3.4135,-3.4042,-3.4028,-3.3641,-3.3454,-2.6386,-2.6386,-2.6386,-2.6386,-2.6386,-2.6386,-2.6386,-2.6386,-2.6386,-2.6386,-2.64,-2.6493,0.0,0.0,-2.6934,-2.7241,-2.7535,-2.7829,-2.8123,-2.843,-2.8738,0.0,0.0,0.0,0.0,0.0,0.0,-3.0007,0.0,-3.0528,-3.0795,-3.1089,-3.1249,-3.1249,-3.1517,-3.1664,-3.1664,-3.1664,-3.1664,-3.1664,-3.1677,-3.169,-3.169,-3.1704,-3.1864,-3.2131,-3.2131,-3.2278,-3.2545,-3.2545,-3.2545,-3.2545,-3.2559,-3.2572,-3.2572,-3.2585,-3.2585,-3.2585,-3.2585,-3.2572,-3.2545,-3.2545,-3.2545,-3.2545,-3.2559,-3.2572,-3.2572,-3.2585,-3.2585,-3.2652,-3.2946,-3.3026,-3.3093,-3.3387,-3.3694,-3.3908,-3.3908,-3.4135,-3.4349,-3.4349,-3.4349,-3.4456,-3.475,-3.5044,-3.5231,-3.5244,-3.5471,-3.5444,-3.4883,-3.5057,-3.5244,-3.5244,-3.5244,-3.5244,-3.5244,-3.5244,-3.5244,-3.5244,-3.5244,-3.511,-3.4817,-3.4803,-3.467,-3.4376,-3.4362,-3.4362,-3.4362,-3.4349,-3.4349,-3.4349,-3.4322,-3.4322,-2.6386,-2.6386,-2.6386,-2.6386,-2.6386,-2.6386,-2.6386,-2.6386,-2.6386,-2.6386,-2.656,-2.6734,0.0,0.0,0.0,-2.7535,-2.7843,0.0,-2.8444,-2.8751,0.0,0.0,0.0,-2.9927,-3.0221,-3.0515,0.0,0.0,-3.0955,-3.1036,-3.1116,-3.1396,-3.1557,-3.1557,-3.1623,-3.1664,-3.1664,-3.1664,-3.1664,-3.1677,-3.1891,-3.1984,-3.1998,-3.2225,-3.2358,-3.2425,-3.2425,-3.2478,-3.2545,-3.2545,-3.2545,-3.2572,-3.2786,-3.2866,-3.2893,-3.3106,-3.3187,-3.3187,-3.3187,-3.2906,-3.2545,-3.2545,-3.2545,-3.2585,-3.2799,-3.2866,-3.2919,-3.3133,-3.3187,-3.3267,-3.3574,-3.3654,-3.3734,-3.4015,-3.4148,-3.4202,-3.4202,-3.4442,-3.4643,-3.4643,-3.483,-3.507,-3.5364,-3.5471,-3.5591,-3.5819,-3.5912,-3.5832,-3.5458,-3.5672,-3.5845,-3.5845,-3.5845,-3.5845,-3.5845,-3.5845,-3.5845,-3.5845,-3.5845,-3.5712,-3.5418,-3.5404,-3.5271,-3.4977,-3.4977,-3.4977,-3.4977,-3.4763,-3.4643,-3.4643,-3.4429,-3.4322,-2.6386,-2.6386,-2.6386,-2.6386,-2.6386,-2.6386,-2.6386,-2.6386,-2.6426,-2.6547,-2.6707,0.0,0.0,0.0,0.0,0.0,0.0,0.0,-2.8751,-2.9045,-2.9392,0.0,-3.0007,0.0,-3.0702,-3.0889,-3.1102,0.0,-3.1303,-3.1276,-3.141,-3.1583,-3.1664,-3.1664,-3.1664,-3.1664,-3.1664,-3.1797,-3.1864,-3.1864,-3.2158,-3.2291,-3.2305,-3.2465,-3.2612,-3.2732,0.0,-3.2812,-3.2919,-3.2919,-3.2919,-3.2946,-3.3106,-3.3173,-3.32,-3.3507,-3.3614,-3.3641,-3.3761,-3.3601,-3.328,-3.3013,-3.3026,-3.316,-3.3334,-3.3467,-3.3601,-3.3761,-3.3814,-3.3855,-3.4028,-3.4082,-3.4122,-3.4282,-3.4416,-3.4509,-3.4509,-3.475,-3.499,-3.5124,-3.5271,-3.5485,-3.5778,-3.5819,-3.5885,-3.6046,-3.6179,-3.6206,-3.6032,-3.6046,-3.6072,-3.6072,-3.6072,-3.6072,-3.6072,-3.6072,-3.6072,-3.6072,-3.6072,-3.6006,-3.5832,-3.5819,-3.5752,-3.5578,-3.5578,-3.5578,-3.5578,-3.5418,-3.5271,-3.5137,-3.4977,-3.483,-2.6386,-2.6386,-2.6386,-2.6386,-2.6386,-2.6386,-2.6386,-2.6413,-2.652,-2.6774,0.0,0.0,-2.7602,0.0,-2.7856,-2.815,0.0,-2.8764,-2.9058,-2.9392,-2.9793,-3.0301,-3.0434,-3.0675,-3.1169,-3.1263,-3.1396,-3.165,-3.1423,-3.1396,-3.165,-3.1664,-3.1664,-3.1664,-3.1704,-3.173,-3.173,-3.2011,-3.2158,-3.2171,-3.2465,-3.2599,-3.2599,-3.2639,-3.2799,-3.304,0.0,0.0,-3.3414,-3.3454,-3.3467,-3.348,-3.3521,-3.3534,-3.3561,-3.3841,-3.3948,-3.3975,-3.4229,-3.4322,-3.4229,-3.3708,-3.3721,-3.3948,-3.3948,-3.4122,-3.4322,-3.4322,-3.4322,-3.4322,-3.4362,-3.4376,-3.4389,-3.4429,-3.4629,-3.4817,-3.4817,-3.5044,-3.5338,-3.5631,-3.5685,-3.5778,-3.6086,-3.6126,-3.6139,-3.6179,-3.6393,-3.658,-3.658,-3.634,-3.6193,-3.6193,-3.6193,-3.6193,-3.6193,-3.6193,-3.6193,-3.6193,-3.6193,-3.6166,-3.6126,-3.6126,-3.6112,-3.6072,-3.6072,-3.6072,-3.6072,-3.6072,-3.5939,-3.5685,-3.5685,-3.5551,-2.6386,-2.6386,-2.6386,-2.6386,-2.6386,-2.6386,-2.6386,-2.6573,0.0,0.0,0.0,-2.7575,-2.7682,-2.7896,0.0,-2.847,0.0,0.0,0.0,0.0,-3.0247,0.0,0.0,0.0,0.0,0.0,0.0,0.0,0.0,0.0,-3.1664,-3.1664,-3.1664,-3.1664,-3.1904,-3.2024,-3.2024,-3.2318,-3.2465,-3.2478,-3.2759,-3.2906,-3.2906,-3.3146,-3.3293,-3.3334,0.0,0.0,-3.3427,-3.3694,-3.3801,-3.3828,-3.4068,-3.4162,-3.4162,-3.4229,-3.4242,-3.4255,-3.4295,-3.4322,-3.4295,-3.4202,-3.4202,-3.4242,-3.4242,-3.4282,-3.4322,-3.4322,-3.4322,-3.4376,-3.4629,-3.4683,-3.475,-3.499,-3.5084,-3.5124,-3.5124,-3.5351,-3.5645,-3.5939,-3.5992,-3.6086,-3.638,-3.6433,-3.6513,-3.6754,-3.6834,-3.6861,-3.6861,-3.6834,-3.6794,-3.6794,-3.6794,-3.6794,-3.6794,-3.6794,-3.6794,-3.6794,-3.6794,-3.6687,-3.6433,-3.6433,-3.6313,-3.6072,-3.6072,-3.6072,-3.6072,-3.6072,-3.6046,-3.5992,-3.5992,-3.5965,-2.6386,-2.6386,-2.6386,-2.6386,-2.6386,-2.6426,-2.6587,0.0,0.0,0.0,0.0,-2.7749,-2.7896,0.0,0.0,0.0,0.0,0.0,0.0,0.0,0.0,0.0,0.0,0.0,0.0,0.0,0.0,0.0,0.0,0.0,-3.1664,-3.181,-3.1891,-3.1891,-3.2171,-3.2332,-3.2332,-3.2625,-3.2772,-3.2772,-3.3066,-3.32,-3.3213,-3.3347,-3.3414,-3.3427,-3.3587,0.0,-3.3681,-3.3988,-3.4108,-3.4122,-3.4269,-3.4322,-3.4336,-3.4496,-3.4549,-3.4576,-3.4723,-3.4776,-3.4776,-3.4776,-3.467,-3.4549,-3.4549,-3.4656,-3.4776,-3.4776,-3.4776,-3.4817,-3.495,-3.499,-3.5017,-3.5164,-3.5311,-3.5471,-3.5618,-3.5765,-3.5952,-3.6246,-3.6299,-3.6393,-3.6687,-3.6727,-3.6794,-3.6901,-3.6941,-3.6941,-3.6941,-3.7088,-3.7114,-3.6941,-3.6941,-3.6941,-3.6941,-3.6941,-3.6941,-3.6941,-3.6941,-3.6861,-3.6727,-3.6727,-3.6647,-3.654,-3.6513,-3.6513,-3.6513,-3.6513,-3.6433,-3.6299,-3.6299,-3.6219,-2.6386,-2.6386,-2.6386,-2.6386,-2.6386,-2.6466,-2.676,-2.6867,0.0,0.0,0.0,0.0,0.0,0.0,0.0,0.0,0.0,0.0,0.0,0.0,0.0,0.0,0.0,0.0,0.0,0.0,0.0,0.0,0.0,0.0,-3.1757,-3.1984,-3.2131,-3.2198,-3.2492,-3.2639,-3.2639,-3.2933,-3.3066,-3.3066,-3.3307,-3.3414,-3.3414,-3.348,-3.3507,-3.3534,-3.3841,0.0,0.0,-3.4295,-3.4416,-3.4416,-3.4482,-3.4509,-3.4536,-3.4763,-3.4857,-3.4897,-3.5124,-3.5191,-3.5191,-3.5191,-3.5044,-3.4857,-3.4857,-3.5017,-3.5191,-3.5191,-3.5191,-3.5204,-3.5271,-3.5284,-3.5311,-3.5364,-3.5565,-3.5805,-3.6099,-3.6166,-3.6259,-3.654,-3.6607,-3.6687,-3.6901,-3.6941,-3.6941,-3.6941,-3.6981,-3.7048,-3.7048,-3.7301,-3.7382,-3.7155,-3.7114,-3.7114,-3.7114,-3.7114,-3.7114,-3.7114,-3.7114,-3.7088,-3.7048,-3.7048,-3.7008,-3.6941,-3.6941,-3.6941,-3.6941,-3.6941,-3.6834,-3.6607,-3.6607,-3.6473,-2.6386,-2.6386,-2.6386,-2.6386,-2.6386,-2.6466,-2.676,0.0,0.0,0.0,0.0,0.0,0.0,0.0,0.0,0.0,0.0,0.0,0.0,0.0,0.0,0.0,0.0,0.0,0.0,0.0,0.0,0.0,0.0,0.0,0.0,-3.2091,-3.2225,-3.2492,-3.2786,-3.2933,-3.2933,-3.3227,-3.3374,-3.3374,-3.34,-3.3414,-3.3427,-3.3708,-3.3841,-3.3855,-3.4148,0.0,0.0,-3.4603,-3.4723,-3.475,-3.5017,-3.511,-3.5124,-3.5151,-3.5151,-3.5164,-3.5191,-3.5191,-3.5191,-3.5191,-3.5177,-3.5151,-3.5151,-3.5177,-3.5191,-3.5191,-3.5191,-3.5257,-3.5525,-3.5591,-3.5658,-3.5925,-3.6019,-3.6112,-3.6393,-3.6473,-3.654,-3.6834,-3.6901,-3.6901,-3.6941,-3.6941,-3.6941,-3.6941,-3.7155,-3.7342,-3.7342,-3.7595,-3.7782,-3.7742,-3.7742,-3.7742,-3.7742,-3.7742,-3.7742,-3.7742,-3.7742,-3.7635,-3.7342,-3.7342,-3.7195,-3.6941,-3.6941,-3.6941,-3.6941,-3.6941,-3.6941,-3.6901,-3.6901,-3.6901,-2.6386,-2.6386,-2.6386,-2.6386,-2.652,-2.672,-2.7028,0.0,0.0,0.0,0.0,0.0,0.0,0.0,0.0,0.0,0.0,0.0,0.0,0.0,0.0,0.0,0.0,0.0,0.0,0.0,0.0,0.0,0.0,0.0,0.0,-3.2625,-3.2679,-3.2799,-3.3093,-3.324,-3.324,-3.336,-3.3414,-3.3414,-3.3414,-3.3507,-3.3708,-3.3828,-3.3975,-3.4162,-3.4456,0.0,0.0,-3.4897,-3.5017,-3.503,-3.5151,-3.5191,-3.5191,-3.5191,-3.5191,-3.5191,-3.5191,-3.5191,-3.5191,-3.5191,-3.5311,-3.5418,-3.5244,-3.5324,-3.5458,-3.5458,-3.5591,-3.5752,-3.5872,-3.5899,-3.5965,-3.6259,-3.6326,-3.6393,-3.6687,-3.6754,-3.6794,-3.6901,-3.6941,-3.6941,-3.6941,-3.6941,-3.7008,-3.7168,-3.7301,-3.7448,-3.7635,-3.7889,-3.8076,-3.8076,-3.7929,-3.7809,-3.7809,-3.7809,-3.7809,-3.7809,-3.7809,-3.7782,-3.7635,-3.7635,-3.7595,-3.7489,-3.7448,-3.7448,-3.7448,-3.7301,-3.7195,-3.7195,-3.7008,-3.6941,-2.4602,-2.492,-2.5251,-2.4602,-2.4641,-2.4913,0.0,0.0,0.0,0.0,0.0,0.0,-2.452,-2.5663,-2.6847,0.0,0.0,-2.8783,0.0,0.0,0.0,0.0,0.0,0.0,0.0,0.0,0.0,0.0,0.0,0.0,0.0,-3.3066,-3.3106,-3.3106,-3.3307,-3.3414,-3.3414,-3.3414,-3.3454,-3.3547,-3.3547,-3.3708,-3.4015,-3.4108,-3.4255,-3.4469,0.0,0.0,0.0,-3.511,-3.5191,-3.5191,-3.5191,-3.5191,-3.5191,-3.5191,-3.5191,-3.5191,-3.5191,-3.5257,-3.5324,-3.5324,-3.5525,-3.5725,-3.5511,-3.5605,-3.5765,-3.5765,-3.5965,-3.6206,-3.6206,-3.6259,-3.638,-3.658,-3.6647,-3.6687,-3.6901,-3.6941,-3.6941,-3.6941,-3.6941,-3.6941,-3.6941,-3.7008,-3.7128,-3.7342,-3.7529,-3.7716,-3.7929,-3.8223,-3.8397,-3.8397,-3.821,-3.8076,-3.8076,-3.8076,-3.8076,-3.8076,-3.8076,-3.8036,-3.7956,-3.7956,-3.7889,-3.7809,-3.7809,-3.7809,-3.7809,-3.7595,-3.7529,-3.7489,-3.7301,-3.7195,-2.0554,-2.1523,-2.2648,-2.0554,-2.0069,-2.0281,0.0,0.0,0.0,0.0,0.0,0.0,-2.4337,-2.3173,-2.2778,-2.4925,-2.5889,-2.6406,-2.7109,0.0,0.0,0.0,0.0,0.0,0.0,0.0,0.0,0.0,0.0,0.0,0.0,-3.3253,-3.3414,-3.3414,-3.3414,-3.3414,-3.3414,-3.3414,-3.3574,-3.3881,-3.3881,-3.4042,-3.4322,-3.4616,-3.475,0.0,0.0,0.0,0.0,-3.5191,-3.5191,-3.5191,-3.5191,-3.5191,-3.5191,-3.5191,-3.5191,-3.5191,-3.5191,-3.5378,-3.5631,-3.5631,-3.5819,-3.6072,-3.6059,-3.6059,-3.6072,-3.6072,-3.6273,-3.65,-3.65,-3.6727,-3.6941,-3.6941,-3.6941,-3.6941,-3.6941,-3.6941,-3.6941,-3.6941,-3.6941,-3.6941,-3.6941,-3.7195,-3.7382,-3.7382,-3.7889,-3.8263,-3.8263,-3.8504,-3.8718,-3.8718,-3.8718,-3.8718,-3.8718,-3.8718,-3.8718,-3.8718,-3.8718,-3.8584,-3.8263,-3.8263,-3.8116,-3.7809,-3.7809,-3.7809,-3.7809,-3.7809,-3.7809,-3.7809,-3.7809,-3.7809,-2.0069,-2.0393,-2.0748,-2.0252,-2.0291,-2.0503,-2.0736,0.0,0.0,0.0,0.0,0.0,-1.9836,-2.1057,-2.2067,-2.2789,-2.4801,-2.6406,0.0,0.0,0.0,0.0,0.0,0.0,0.0,0.0,0.0,0.0,0.0,0.0,0.0,-3.336,-3.3414,-3.3414,-3.3414,-3.3414,-3.3414,-3.3627,-3.3788,-3.3895,-3.4095,-3.4336,-3.4629,-3.4723,0.0,0.0,0.0,0.0,0.0,-3.5191,-3.5191,-3.5191,-3.5191,-3.5191,-3.5191,-3.5191,-3.5324,-3.5498,-3.5498,-3.5685,-3.5939,-3.5939,-3.6126,-3.6366,-3.6366,-3.6366,-3.6393,-3.662,-3.6727,-3.6794,-3.6794,-3.6861,-3.6941,-3.6941,-3.6941,-3.6941,-3.6941,-3.6941,-3.6941,-3.6941,-3.7088,-3.7235,-3.7235,-3.7489,-3.7742,-3.7969,-3.8143,-3.833,-3.8544,-3.8651,-3.8718,-3.8718,-3.8718,-3.8718,-3.8718,-3.8718,-3.8718,-3.8718,-3.8718,-3.8691,-3.8584,-3.8584,-3.8544,-3.8437,-3.8437,-3.8437,-3.8437,-3.8223,-3.7996,-3.7809,-3.7809,-3.7809,0.0,-1.8118,-1.8491,-1.787,-1.79,0.0,0.0,0.0,0.0,0.0,0.0,0.0,-1.768,-1.8644,-1.9419,-2.0383,-2.3112,-2.5224,-2.5615,0.0,0.0,0.0,0.0,0.0,0.0,0.0,0.0,0.0,0.0,0.0,0.0,0.0,-3.3414,-3.3414,-3.3414,-3.3467,-3.3587,-3.3788,-3.4002,-3.4215,-3.4402,-3.4643,-3.4923,-3.4923,0.0,0.0,0.0,0.0,0.0,-3.5191,-3.5191,-3.5191,-3.5191,-3.5271,-3.5364,-3.5364,-3.5538,-3.5792,-3.5792,-3.5992,-3.6233,-3.6233,-3.6433,-3.6687,-3.6687,-3.6687,-3.6727,-3.6901,-3.6941,-3.6941,-3.6941,-3.6941,-3.6941,-3.6941,-3.6941,-3.6941,-3.6941,-3.6941,-3.6981,-3.7088,-3.7275,-3.7422,-3.7529,-3.7782,-3.8036,-3.8223,-3.837,-3.8504,-3.8691,-3.8718,-3.8718,-3.8718,-3.8718,-3.8718,-3.8718,-3.8718,-3.8718,-3.8718,-3.8718,-3.8718,-3.8718,-3.8718,-3.8718,-3.8718,-3.8718,-3.8718,-3.8718,-3.8544,-3.833,-3.8143,-3.8143,-3.8143,0.0,0.0,0.0,0.0,0.0,0.0,0.0,0.0,0.0,0.0,0.0,0.0,0.0,-1.6062,-1.5504,-1.7835,-2.0751,-2.297,0.0,0.0,0.0,0.0,0.0,0.0,0.0,0.0,0.0,0.0,0.0,0.0,0.0,0.0,-3.3427,-3.344,-3.344,-3.3587,-3.3881,-3.3921,-3.4229,-3.4763,-3.479,-3.4937,-3.5191,-3.5191,0.0,0.0,0.0,0.0,0.0,-3.5191,-3.5191,-3.5204,-3.5217,-3.5391,-3.5631,-3.5658,-3.5845,-3.6099,-3.6099,-3.6286,-3.654,-3.654,-3.6727,-3.6941,-3.6941,-3.6941,-3.6941,-3.6941,-3.6941,-3.6941,-3.6941,-3.6941,-3.6941,-3.6941,-3.6941,-3.6941,-3.6967,-3.6981,-3.7048,-3.7342,-3.7422,-3.7529,-3.7809,-3.8103,-3.829,-3.829,-3.8544,-3.8718,-3.8718,-3.8718,-3.8718,-3.8718,-3.8718,-3.8718,-3.8718,-3.8718,-3.8718,-3.8718,-3.8718,-3.8718,-3.8718,-3.8718,-3.8718,-3.8718,-3.8718,-3.8718,-3.8718,-3.8718,-3.8718,-3.8718,-3.8718,-3.8718,0.0,0.0,0.0,0.0,0.0,0.0,0.0,0.0,0.0,0.0,0.0,0.0,0.0,-1.4993,-1.497,-1.5668,-1.8176,-2.0718,0.0,0.0,0.0,0.0,0.0,0.0,0.0,0.0,0.0,0.0,0.0,0.0,0.0,0.0,-3.3521,-3.3761,-3.3774,-3.3814,-3.3881,-3.4322,-3.4616,-3.4763,-3.499,-3.5137,-3.5191,-3.5191,0.0,0.0,0.0,0.0,-3.5191,-3.5191,-3.5191,-3.5217,-3.5444,-3.5565,-3.5658,-3.5885,-3.6153,-3.6393,-3.6393,-3.658,-3.6834,-3.6834,-3.6874,-3.6941,-3.6941,-3.6941,-3.6941,-3.6941,-3.6941,-3.6941,-3.6941,-3.6941,-3.6941,-3.6941,-3.6941,-3.7008,-3.7235,-3.7275,-3.7382,-3.7662,-3.7889,-3.8076,-3.8143,-3.8397,-3.8611,-3.8611,-3.8691,-3.8718,-3.8718,-3.8718,-3.8718,-3.8718,-3.8718,-3.8718,-3.8718,-3.8718,-3.8718,-3.8718,-3.8718,-3.8718,-3.8718,-3.8718,-3.8718,-3.8718,-3.8718,-3.8718,-3.8718,-3.8718,-3.8718,-3.8718,-3.8718,-3.8718,0.0,0.0,0.0,0.0,0.0,0.0,0.0,0.0,0.0,0.0,0.0,0.0,0.0,0.0,0.0,0.0,-1.7419,0.0,0.0,0.0,0.0,0.0,0.0,0.0,0.0,0.0,0.0,0.0,0.0,0.0,0.0,0.0,-3.3708,-3.3881,-3.4148,-3.4282,-3.4282,-3.4603,-3.483,-3.4963,-3.5124,-3.5191,-3.5191,-3.5191,-3.5191,0.0,0.0,0.0,-3.5191,-3.5191,-3.5271,-3.5404,-3.5565,-3.5792,-3.6046,-3.6206,-3.6473,-3.6714,-3.6714,-3.6794,-3.6941,-3.6941,-3.6941,-3.6941,-3.6941,-3.6941,-3.6941,-3.6941,-3.6941,-3.6941,-3.6941,-3.6941,-3.6941,-3.6941,-3.7048,-3.7195,-3.7342,-3.7489,-3.7676,-3.7969,-3.8143,-3.829,-3.8437,-3.8611,-3.8718,-3.8718,-3.8718,-3.8718,-3.8718,-3.8718,-3.8718,-3.8718,-3.8718,-3.8718,-3.8718,-3.8718,-3.8718,-3.8718,-3.8718,-3.8718,-3.8718,-3.8718,-3.8718,-3.8718,-3.8718,-3.8718,-3.8718,-3.8718,-3.8718,-3.8718,-3.8718,-3.8718,0.0,0.0,0.0,0.0,0.0,0.0,0.0,0.0,0.0,0.0,0.0,0.0,0.0,0.0,0.0,0.0,0.0,0.0,0.0,0.0,0.0,0.0,0.0,0.0,0.0,0.0,0.0,0.0,0.0,0.0,0.0,0.0,0.0,-3.4015,-3.4509,-3.479,-3.483,-3.483,-3.495,-3.5191,-3.5191,-3.5191,-3.5191,-3.5191,-3.5191,0.0,0.0,0.0,-3.5257,-3.5257,-3.5431,-3.5698,-3.5752,-3.6072,-3.65,-3.654,-3.6727,-3.6941,-3.6941,-3.6941,-3.6941,-3.6941,-3.6941,-3.6941,-3.6941,-3.6941,-3.6941,-3.6941,-3.6941,-3.6941,-3.6941,-3.6941,-3.6941,-3.7008,-3.7195,-3.7422,-3.7489,-3.7702,-3.7969,-3.8263,-3.833,-3.8397,-3.8691,-3.8718,-3.8718,-3.8718,-3.8718,-3.8718,-3.8718,-3.8718,-3.8718,-3.8718,-3.8718,-3.8718,-3.8718,-3.8718,-3.8718,-3.8718,-3.8718,-3.8718,-3.8718,-3.8718,-3.8718,-3.8718,-3.8718,-3.8718,-3.8718,-3.8718,-3.8718,-3.8718,-3.8718,-3.8718,0.0,0.0,0.0,0.0,0.0,0.0,0.0,0.0,0.0,0.0,0.0,0.0,0.0,0.0,0.0,0.0,0.0,0.0,0.0,0.0,0.0,0.0,0.0,0.0,0.0,0.0,0.0,0.0,0.0,0.0,0.0,0.0,0.0,-3.4616,-3.471,-3.4883,-3.5124,-3.5137,-3.5151,-3.5191,-3.5191,-3.5191,-3.5191,-3.5191,-3.5191,0.0,0.0,-3.5338,-3.5565,-3.5565,-3.5738,-3.6032,-3.6273,-3.6433,-3.654,-3.6794,-3.6901,-3.6941,-3.6941,-3.6941,-3.6941,-3.6941,-3.6941,-3.6941,-3.6941,-3.6941,-3.6941,-3.6941,-3.6941,-3.6941,-3.6941,-3.6941,-3.7008,-3.7275,-3.7342,-3.7529,-3.801,-3.8143,-3.829,-3.8584,-3.8651,-3.8651,-3.8718,-3.8718,-3.8718,-3.8718,-3.8718,-3.8718,-3.8718,-3.8718,-3.8718,-3.8718,-3.8718,-3.8718,-3.8718,-3.8718,-3.8718,-3.8718,-3.8718,-3.8718,-3.8718,-3.8718,-3.8718,-3.8718,-3.8718,-3.8718,-3.8718,-3.8718,-3.8718,-3.8718,-3.8718,-3.8718,-1.3403,0.0,0.0,0.0,0.0,0.0,0.0,0.0,0.0,0.0,0.0,0.0,0.0,0.0,0.0,0.0,0.0,0.0,0.0,0.0,0.0,0.0,0.0,0.0,0.0,0.0,0.0,0.0,0.0,0.0,0.0,0.0,0.0,0.0,-3.491,-3.5057,-3.5191,-3.5191,-3.5191,-3.5191,-3.5191,-3.5191,-3.5191,-3.5191,-3.5191,-3.5204,0.0,-3.5511,-3.5645,-3.5805,-3.6046,-3.6326,-3.6473,-3.6607,-3.6754,-3.6901,-3.6941,-3.6941,-3.6941,-3.6941,-3.6941,-3.6941,-3.6941,-3.6941,-3.6941,-3.6941,-3.6941,-3.6941,-3.6941,-3.6941,-3.6941,-3.7048,-3.7195,-3.7342,-3.7635,-3.7929,-3.8183,-3.8397,-3.8544,-3.8691,-3.8718,-3.8718,-3.8718,-3.8718,-3.8718,-3.8718,-3.8718,-3.8718,-3.8718,-3.8718,-3.8718,-3.8718,-3.8718,-3.8718,-3.8718,-3.8718,-3.8718,-3.8718,-3.8718,-3.8718,-3.8718,-3.8718,-3.8718,-3.8718,-3.8718,-3.8718,-3.8718,-3.8718,-3.8718,-3.8718,-3.8718,-3.8718,-1.3403,0.0,0.0,0.0,0.0,0.0,0.0,0.0,0.0,0.0,0.0,0.0,0.0,0.0,0.0,0.0,0.0,0.0,0.0,0.0,0.0,0.0,0.0,0.0,0.0,0.0,0.0,0.0,0.0,0.0,0.0,0.0,0.0,0.0,-3.5084,-3.5191,-3.5191,-3.5191,-3.5191,-3.5191,-3.5191,-3.5191,-3.5191,-3.5191,-3.5231,-3.5311,-3.5538,-3.5712,-3.5845,-3.6086,-3.6353,-3.6607,-3.6607,-3.6754,-3.6941,-3.6941,-3.6941,-3.6941,-3.6941,-3.6941,-3.6941,-3.6941,-3.6941,-3.6941,-3.6941,-3.6941,-3.6941,-3.6941,-3.6981,-3.7048,-3.7048,-3.7195,-3.7422,-3.7569,-3.7929,-3.829,-3.837,-3.8544,-3.8718,-3.8718,-3.8718,-3.8718,-3.8718,-3.8718,-3.8718,-3.8718,-3.8718,-3.8718,-3.8718,-3.8718,-3.8718,-3.8718,-3.8718,-3.8718,-3.8718,-3.8718,-3.8718,-3.8718,-3.8718,-3.8718,-3.8718,-3.8718,-3.8718,-3.8718,-3.8718,-3.8718,-3.8718,-3.8718,-3.8718,-3.8718,-3.8718,-3.8718,-1.3403,-1.3512,0.0,0.0,0.0,0.0,0.0,0.0,0.0,0.0,0.0,0.0,0.0,0.0,0.0,0.0,0.0,0.0,0.0,0.0,0.0,0.0,0.0,0.0,0.0,0.0,0.0,0.0,0.0,0.0,0.0,0.0,0.0,0.0,0.0,-3.5191,-3.5191,-3.5191,-3.5191,-3.5191,-3.5191,-3.5191,-3.5191,-3.5191,-3.5351,-3.5605,-3.5618,-3.5939,-3.6433,-3.6473,-3.6647,-3.6901,-3.6901,-3.6901,-3.6941,-3.6941,-3.6941,-3.6941,-3.6941,-3.6941,-3.6941,-3.6941,-3.6941,-3.6941,-3.6941,-3.6941,-3.6941,-3.6941,-3.7128,-3.7342,-3.7342,-3.7382,-3.7529,-3.8076,-3.8223,-3.833,-3.8624,-3.8718,-3.8718,-3.8718,-3.8718,-3.8718,-3.8718,-3.8718,-3.8718,-3.8718,-3.8718,-3.8718,-3.8718,-3.8718,-3.8718,-3.8718,-3.8718,-3.8718,-3.8718,-3.8718,-3.8718,-3.8718,-3.8718,-3.8718,-3.8718,-3.8718,-3.8718,-3.8718,-3.8718,-3.8718,-3.8718,-3.8718,-3.8718,-3.8718,-3.8718,-3.8718,-1.3403,-1.358,0.0,0.0,0.0,0.0,0.0,0.0,0.0,0.0,0.0,0.0,0.0,0.0,0.0,0.0,0.0,0.0,0.0,0.0,0.0,0.0,0.0,0.0,0.0,0.0,0.0,0.0,0.0,0.0,0.0,0.0,0.0,0.0,0.0,-3.5191,-3.5191,-3.5191,-3.5191,-3.5191,-3.5191,-3.5191,-3.5204,-3.5378,-3.5525,-3.5645,-3.6019,-3.6299,-3.6513,-3.6687,-3.6834,-3.6941,-3.6941,-3.6941,-3.6941,-3.6941,-3.6941,-3.6941,-3.6941,-3.6941,-3.6941,-3.6941,-3.6941,-3.6941,-3.6941,-3.7048,-3.7195,-3.7195,-3.7422,-3.7595,-3.7422,-3.7635,-3.7969,-3.8223,-3.8397,-3.8584,-3.8691,-3.8718,-3.8718,-3.8718,-3.8718,-3.8718,-3.8718,-3.8718,-3.8718,-3.8718,-3.8718,-3.8718,-3.8718,-3.8718,-3.8718,-3.8718,-3.8718,-3.8718,-3.8718,-3.8718,-3.8718,-3.8718,-3.8718,-3.8718,-3.8718,-3.8718,-3.8718,-3.8718,-3.8718,-3.8718,-3.8718,-3.8718,-3.8718,-3.8718,-3.8718,-3.8718,-1.3403,0.0,0.0,0.0,0.0,0.0,0.0,0.0,0.0,0.0,0.0,0.0,0.0,0.0,0.0,0.0,0.0,0.0,0.0,0.0,0.0,0.0,0.0,0.0,0.0,0.0,0.0,0.0,0.0,0.0,0.0,0.0,0.0,0.0,0.0,-3.5191,-3.5191,-3.5191,-3.5191,-3.5191,-3.5191,-3.5244,-3.5338,-3.5538,-3.5725,-3.5925,-3.6326,-3.654,-3.6647,-3.6861,-3.6941,-3.6941,-3.6941,-3.6941,-3.6941,-3.6941,-3.6941,-3.6941,-3.6941,-3.6941,-3.6941,-3.6941,-3.6941,-3.6941,-3.7048,-3.7235,-3.7422,-3.7489,-3.7742,-3.7929,-3.7716,-3.7969,-3.829,-3.837,-3.8584,-3.8718,-3.8718,-3.8718,-3.8718,-3.8718,-3.8718,-3.8718,-3.8718,-3.8718,-3.8718,-3.8718,-3.8718,-3.8718,-3.8718,-3.8718,-3.8718,-3.8718,-3.8718,-3.8718,-3.8718,-3.8718,-3.8718,-3.8718,-3.8718,-3.8718,-3.8718,-3.8718,-3.8718,-3.8718,-3.8718,-3.8718,-3.8718,-3.8718,-3.8718,-3.8718,-3.8718,-3.8718,0.0,0.0,0.0,0.0,0.0,0.0,0.0,0.0,0.0,0.0,0.0,0.0,0.0,0.0,0.0,0.0,0.0,0.0,0.0,0.0,0.0,0.0,0.0,0.0,0.0,0.0,0.0,0.0,0.0,0.0,0.0,0.0,0.0,0.0,0.0,0.0,-3.5191,-3.5191,-3.5191,-3.5191,-3.5204,-3.5351,-3.5631,-3.5631,-3.5952,-3.65,-3.65,-3.6687,-3.6941,-3.6941,-3.6941,-3.6941,-3.6941,-3.6941,-3.6941,-3.6941,-3.6941,-3.6941,-3.6941,-3.6941,-3.6941,-3.6941,-3.6941,-3.7008,-3.7301,-3.7382,-3.7448,-3.7742,-3.8036,-3.8263,-3.8263,-3.8263,-3.833,-3.8651,-3.8718,-3.8718,-3.8718,-3.8718,-3.8718,-3.8718,-3.8718,-3.8718,-3.8718,-3.8718,-3.8718,-3.8718,-3.8718,-3.8718,-3.8718,-3.8718,-3.8718,-3.8718,-3.8718,-3.8718,-3.8718,-3.8718,-3.8718,-3.8718,-3.8718,-3.8718,-3.8718,-3.8718,-3.8718,-3.8718,-3.8718,-3.8718,-3.8718,-3.8718,-3.8718,-3.8718,-3.8718,-3.8718,0.0,0.0,0.0,0.0,0.0,0.0,0.0,0.0,0.0,0.0,0.0,0.0,0.0,0.0,0.0,0.0,0.0,0.0,0.0,0.0,0.0,0.0,0.0,0.0,0.0,0.0,0.0,0.0,0.0,0.0,0.0,0.0,0.0,0.0,0.0,0.0,-3.5191,-3.5191,-3.5191,-3.5204,-3.5404,-3.5551,-3.5631,-3.5845,-3.6153,-3.6513,-3.6727,-3.6861,-3.6941,-3.6941,-3.6941,-3.6941,-3.6941,-3.6941,-3.6941,-3.6941,-3.6941,-3.6941,-3.6941,-3.6941,-3.6941,-3.6941,-3.7088,-3.7275,-3.7342,-3.7676,-3.801,-3.8116,-3.8357,-3.8584,-3.8584,-3.8584,-3.8611,-3.8691,-3.8718,-3.8718,-3.8718,-3.8718,-3.8718,-3.8718,-3.8718,-3.8718,-3.8718,-3.8718,-3.8718,-3.8718,-3.8718,-3.8718,-3.8718,-3.8718,-3.8718,-3.8718,-3.8718,-3.8718,-3.8718,-3.8718,-3.8718,-3.8718,-3.8718,-3.8718,-3.8718,-3.8718,-3.8718,-3.8718,-3.8718,-3.8718,-3.8718,-3.8718,-3.8718,-3.8718,-3.8718,-3.8718,0.0,0.0,0.0,0.0,0.0,0.0,0.0,0.0,0.0,0.0,0.0,0.0,0.0,0.0,0.0,0.0,0.0,0.0,0.0,0.0,0.0,0.0,0.0,0.0,0.0,0.0,0.0,0.0,0.0,0.0,0.0,0.0,0.0,0.0,0.0,0.0,-3.1722,-3.4108,-3.461,-3.3638,-3.4885,-3.5752,-3.5979,-3.6166,-3.6393,-3.6687,-3.6861,-3.6941,-3.6941,-3.6941,-3.6941,-3.6941,-3.6941,-3.6941,-3.6941,-3.6941,-3.6941,-3.6941,-3.6941,-3.6941,-3.6967,-3.7088,-3.7235,-3.7422,-3.7676,-3.7969,-3.829,-3.8397,-3.8584,-3.8718,-3.8718,-3.8718,-3.8718,-3.8718,-3.8718,-3.8718,-3.8718,-3.8718,-3.8718,-3.8718,-3.8718,-3.8718,-3.8718,-3.8718,-3.8718,-3.8718,-3.8718,-3.8718,-3.8718,-3.8718,-3.8718,-3.8718,-3.8718,-3.8718,-3.8718,-3.8718,-3.8718,-3.8718,-3.8718,-3.8718,-3.8718,-3.8718,-3.8718,-3.8718,-3.8718,-3.8718,-3.8718,-3.8718,-3.8718,-3.8718,-3.8718,-3.8718,0.0,0.0,0.0,0.0,0.0,0.0,0.0,0.0,0.0,0.0,0.0,0.0,0.0,0.0,0.0,0.0,0.0,0.0,0.0,0.0,0.0,0.0,0.0,0.0,0.0,0.0,0.0,0.0,0.0,0.0,0.0,0.0,0.0,0.0,0.0,-2.9112,-2.6529,-3.1722,-3.3387,0.0,-3.3905,-3.5521,-3.6049,-3.6268,-3.6647,-3.6941,-3.6719,-3.6719,-3.6941,-3.6941,-3.6941,-3.6941,-3.6941,-3.6941,-3.6941,-3.6941,-3.6941,-3.6941,-3.6967,-3.6981,-3.7008,-3.7315,-3.7448,-3.7569,-3.8116,-3.829,-3.837,-3.8651,-3.8718,-3.8718,-3.8718,-3.8718,-3.8718,-3.8718,-3.8718,-3.8718,-3.8718,-3.8718,-3.8718,-3.8718,-3.8718,-3.8718,-3.8718,-3.8718,-3.8718,-3.8718,-3.8718,-3.8718,-3.8718,-3.8718,-3.8718,-3.8718,-3.8718,-3.8718,-3.8718,-3.8718,-3.8718,-3.8718,-3.8718,-3.8718,-3.8718,-3.8718,-3.8718,-3.8718,-3.8718,-3.8718,-3.8718,-3.8718,-3.8718,-3.8718,-3.8718,-3.8718,0.0,0.0,0.0,0.0,0.0,0.0,0.0,0.0,0.0,0.0,0.0,0.0,0.0,0.0,0.0,0.0,0.0,0.0,0.0,0.0,0.0,0.0,0.0,0.0,0.0,0.0,0.0,0.0,0.0,0.0,0.0,0.0,0.0,-2.221,-2.5664,-2.7166,-2.6529,-2.7823,-2.946,0.0,-3.2109,-3.2604,-3.3114,-3.5378,-3.6647,-3.6706,-3.4445,-3.4668,-3.6941,-3.6941,-3.6941,-3.6941,-3.6941,-3.6941,-3.6941,-3.6941,-3.6941,-3.6981,-3.7195,-3.7275,-3.7342,-3.7635,-3.7889,-3.8076,-3.8223,-3.8437,-3.8651,-3.8691,-3.8718,-3.8718,-3.8718,-3.8718,-3.8718,-3.8718,-3.8718,-3.8718,-3.8718,-3.8718,-3.8718,-3.8718,-3.8718,-3.8718,-3.8718,-3.8718,-3.8718,-3.8718,-3.8718,-3.8718,-3.8718,-3.8718,-3.8718,-3.8718,-3.8718,-3.8718,-3.8718,-3.8718,-3.8718,-3.8718,-3.8718,-3.8718,-3.8718,-3.8718,-3.8718,-3.8718,-3.8718,-3.8718,-3.8718,-3.8718,-3.8718,-3.8718,-3.8718,-3.8718,0.0,0.0,0.0,0.0,0.0,0.0,0.0,0.0,0.0,0.0,0.0,0.0,0.0,0.0,0.0,0.0,0.0,0.0,0.0,0.0,0.0,0.0,0.0,0.0,0.0,0.0,0.0,0.0,0.0,0.0,0.0,0.0,-2.0035,-2.0035,-2.2857,-2.372,-2.242,-2.5119,-2.7674,-2.9437,-2.9668,-2.971,-3.0174,-3.1762,-3.2502,-3.262,-3.2385,-3.3304,-3.4865,-3.6263,-3.6941,-3.6941,-3.6941,-3.6941,-3.6941,-3.6941,-3.7008,-3.7155,-3.7342,-3.7489,-3.7635,-3.7929,-3.8143,-3.829,-3.8437,-3.8584,-3.8718,-3.8718,-3.8718,-3.8718,-3.8718,-3.8718,-3.8718,-3.8718,-3.8718,-3.8718,-3.8718,-3.8718,-3.8718,-3.8718,-3.8718,-3.8718,-3.8718,-3.8718,-3.8718,-3.8718,-3.8718,-3.8718,-3.8718,-3.8718,-3.8718,-3.8718,-3.8718,-3.8718,-3.8718,-3.8718,-3.8718,-3.8718,-3.8718,-3.8718,-3.8718,-3.8718,-3.8718,-3.8718,-3.8718,-3.8718,-3.8718,-3.8718,-3.8718,-3.8718,-3.8718,-3.8718,0.0,0.0,0.0,0.0,0.0,0.0,0.0,0.0,0.0,0.0,0.0,0.0,0.0,0.0,0.0,0.0,0.0,0.0,0.0,0.0,0.0,0.0,0.0,0.0,0.0,0.0,0.0,0.0,0.0,0.0,-1.7846,-1.786,-1.786,-1.786,-2.0255,-2.0262,-1.7867,-2.2828,-2.5654,-2.6521,-2.6768,-2.6769,-2.7182,-2.6519,-2.6965,-2.81,-3.0565,-3.1924,-3.2597,-3.5558,-3.6941,-3.6941,-3.6941,-3.6941,-3.6941,-3.7008,-3.7155,-3.7382,-3.7489,-3.7702,-3.7929,-3.825,-3.833,-3.8397,-3.8651,-3.8718,-3.8718,-3.8718,-3.8718,-3.8718,-3.8718,-3.8718,-3.8718,-3.8718,-3.8718,-3.8718,-3.8718,-3.8718,-3.8718,-3.8718,-3.8718,-3.8718,-3.8718,-3.8718,-3.8718,-3.8718,-3.8718,-3.8718,-3.8718,-3.8718,-3.8718,-3.8718,-3.8718,-3.8718,-3.8718,-3.8718,-3.8718,-3.8718,-3.8718,-3.8718,-3.8718,-3.8718,-3.8718,-3.8718,-3.8718,-3.8718,-3.8718,-3.8718,-3.8718,-3.8718,-3.8718,-3.8718,0.0,0.0,0.0,0.0,0.0,0.0,0.0,0.0,0.0,0.0,0.0,0.0,0.0,0.0,0.0,0.0,0.0,0.0,0.0,0.0,0.0,0.0,0.0,0.0,0.0,0.0,0.0,0.0,0.0,0.0,-1.7846,-1.786,-1.786,-1.786,-1.8302,-1.8302,-1.786,-1.89,-2.0586,-2.3431,-2.3788,-2.3971,-2.3785,-2.1279,-2.2867,-2.7874,-2.8327,-2.99,-3.2597,-3.5558,-3.6941,-3.6941,-3.6941,-3.6941,-3.6981,-3.7235,-3.7342,-3.7448,-3.7969,-3.8157,-3.825,-3.8544,-3.8651,-3.8651,-3.8718,-3.8718,-3.8718,-3.8718,-3.8718,-3.8718,-3.8718,-3.8718,-3.8718,-3.8718,-3.8718,-3.8718,-3.8718,-3.8718,-3.8718,-3.8718,-3.8718,-3.8718,-3.8718,-3.8718,-3.8718,-3.8718,-3.8718,-3.8718,-3.8718,-3.8718,-3.8718,-3.8718,-3.8718,-3.8718,-3.8718,-3.8718,-3.8718,-3.8718,-3.8718,-3.8718,-3.8718,-3.8718,-3.8718,-3.8718,-3.8718,-3.8718,-3.8718,-3.8718,-3.8718,-3.8718,-3.8718,-3.8718,0.0,0.0,0.0,0.0,0.0,0.0,0.0,0.0,0.0,0.0,0.0,0.0,0.0,0.0,0.0,0.0,0.0,0.0,0.0,0.0,0.0,0.0,0.0,0.0,0.0,0.0,0.0,0.0,0.0,-1.7548,-1.7846,-1.786,-1.786,-1.786,-1.786,-1.7901,-1.7989,-1.8145,-1.9008,-2.0591,-2.2555,-2.2407,-2.0817,-1.9444,-2.0363,-2.3097,-2.6509,-2.8554,-3.034,-3.4878,-3.6941,-3.6941,-3.6941,-3.7048,-3.7195,-3.7342,-3.7595,-3.7889,-3.8183,-3.837,-3.8544,-3.8691,-3.8718,-3.8718,-3.8718,-3.8718,-3.8718,-3.8718,-3.8718,-3.8718,-3.8718,-3.8718,-3.8718,-3.8718,-3.8718,-3.8718,-3.8718,-3.8718,-3.8718,-3.8718,-3.8718,-3.8718,-3.8718,-3.8718,-3.8718,-3.8718,-3.8718,-3.8718,-3.8718,-3.8718,-3.8718,-3.8718,-3.8718,-3.8718,-3.8718,-3.8718,-3.8718,-3.8718,-3.8718,-3.8718,-3.8718,-3.8718,-3.8718,-3.8718,-3.8718,-3.8718,-3.8718,-3.8718,-3.8718,-3.8718,-3.8718,-3.8718,0.0,0.0,0.0,0.0,0.0,0.0,0.0,0.0,0.0,0.0,0.0,0.0,0.0,0.0,0.0,0.0,0.0,0.0,0.0,0.0,0.0,0.0,0.0,0.0,0.0,0.0,0.0,0.0,0.0,-1.7589,-1.7846,-1.786,-1.786,-1.786,-1.786,-1.7935,-1.8091,-1.8287,-1.8498,-1.8762,-2.1048,-2.1041,-1.8762,-1.8762,-1.8762,-1.9219,-2.5141,-2.7874,-2.8327,-3.4445,-3.6941,-3.6941,-3.6941,-3.7128,-3.7382,-3.7462,-3.7823,-3.8263,-3.837,-3.8544,-3.8718,-3.8718,-3.8718,-3.8718,-3.8718,-3.8718,-3.8718,-3.8718,-3.8718,-3.8718,-3.8718,-3.8718,-3.8718,-3.8718,-3.8718,-3.8718,-3.8718,-3.8718,-3.8718,-3.8718,-3.8718,-3.8718,-3.8718,-3.8718,-3.8718,-3.8718,-3.8718,-3.8718,-3.8718,-3.8718,-3.8718,-3.8718,-3.8718,-3.8718,-3.8718,-3.8718,-3.8718,-3.8718,-3.8718,-3.8718,-3.8718,-3.8718,-3.8718,-3.8718,-3.8718,-3.8718,-3.8718,-3.8718,-3.8718,-3.8718,-3.8718,-3.8718,0.0,0.0,0.0,0.0,0.0,0.0,0.0,0.0,0.0,0.0,0.0,0.0,0.0,0.0,0.0,0.0,0.0,0.0,0.0,0.0,0.0,0.0,0.0,0.0,0.0,0.0,0.0,0.0,0.0,-1.7704,-1.786,-1.786,-1.786,-1.786,-1.786,-1.7935,-1.8091,-1.8375,-1.8599,-1.8762,-1.9001,-1.9001,-1.8762,-1.8762,-1.8762,-1.9219,-2.5141,-2.7874,-2.8327,-3.4445,-3.6941,-3.6941,-3.6941,-3.7128,-3.7422,-3.7702,-3.7996,-3.829,-3.8584,-3.8718,-3.8718,-3.8718,-3.8718,-3.8718,-3.8718,-3.8718,-3.8718,-3.8718,-3.8718,-3.8718,-3.8718,-3.8718,-3.8718,-3.8718,-3.8718,-3.8718,-3.8718,-3.8718,-3.8718,-3.8718,-3.8718,-3.8718,-3.8718,-3.8718,-3.8718,-3.8718,-3.8718,-3.8718,-3.8718,-3.8718,-3.8718,-3.8718,-3.8718,-3.8718,-3.8718,-3.8718,-3.8718,-3.8718,-3.8718,-3.8718,-3.8718,-3.8718,-3.8718,-3.8718,-3.8718,-3.8718,-3.8718,-3.8718,-3.8718,-3.8718,-3.8718,-3.8718,0.0,0.0,0.0,0.0,0.0,0.0,0.0,0.0,0.0,0.0,0.0,0.0,0.0,0.0,0.0,0.0,0.0,0.0,0.0,0.0,0.0,0.0,0.0,0.0,0.0,0.0,0.0,0.0,0.0,0.0,-1.786,-1.786,-1.786,-1.786,-1.786,-1.7989,-1.8233,-1.8531,-1.8708,-1.8762,-1.8762,-1.8762,-1.8762,-1.8762,-1.99,-2.1963,-2.6054,-2.7874,-2.8327,-3.4445,-3.6941,-3.6967,-3.7155,-3.7408,-3.7702,-3.7996,-3.829,-3.8584,-3.8691,-3.8718,-3.8718,-3.8718,-3.8718,-3.8718,-3.8718,-3.8718,-3.8718,-3.8718,-3.8718,-3.8718,-3.8718,-3.8718,-3.8718,-3.8718,-3.8718,-3.8718,-3.8718,-3.8718,-3.8718,-3.8718,-3.8718,-3.8718,-3.8718,-3.8718,-3.8718,-3.8718,-3.8718,-3.8718,-3.8718,-3.8718,-3.8718,-3.8718,-3.8718,-3.8718,-3.8718,-3.8718,-3.8718,-3.8718,-3.8718,-3.8718,-3.8718,-3.8718,-3.8718,-3.8718,-3.8718,-3.8718,-3.8718,-3.8718,-3.8718,-3.8718,-3.8718,-3.8718,0.0,0.0,0.0,0.0,0.0,0.0,0.0,0.0,0.0,0.0,0.0,0.0,0.0,0.0,0.0,0.0,0.0,0.0,0.0,0.0,0.0,0.0,0.0,0.0,0.0,0.0,0.0,0.0,0.0,0.0,-1.786,-1.786,-1.786,-1.786,-1.7968,-1.8111,-1.8321,-1.862,-1.8762,-1.8762,-1.8762,-1.8762,-1.8762,-1.8762,-1.99,-2.1947,-2.6063,-2.8533,-2.9685,-3.4903,-3.7008,-3.7114,-3.7301,-3.7635,-3.7996,-3.8183,-3.8477,-3.8718,-3.8718,-3.8718,-3.8718,-3.8718,-3.8718,-3.8718,-3.8718,-3.8718,-3.8718,-3.8718,-3.8718,-3.8718,-3.8718,-3.8718,-3.8718,-3.8718,-3.8718,-3.8718,-3.8718,-3.8718,-3.8718,-3.8718,-3.8718,-3.8718,-3.8718,-3.8718,-3.8718,-3.8718,-3.8718,-3.8718,-3.8718,-3.8718,-3.8718,-3.8718,-3.8718,-3.8718,-3.8718,-3.8718,-3.8718,-3.8718,-3.8718,-3.8718,-3.8718,-3.8718,-3.8718,-3.8718,-3.8718,-3.8718,-3.8718,-3.8718,-3.8718,-3.8718,-3.8718,-3.8718,0.0,0.0,0.0,0.0,0.0,0.0,0.0,0.0,0.0,0.0,0.0,0.0,0.0,0.0,0.0,0.0,0.0,0.0,0.0,0.0,0.0,0.0,0.0,0.0,0.0,0.0,0.0,0.0,0.0,-1.786,-1.786,-1.786,-1.786,-1.786,-1.8158,-1.8321,-1.8321,-1.862,-1.8762,-1.8762,-1.8762,-1.8762,-1.8762,-1.8762,-1.8762,-1.9226,-2.5369,-2.9674,-3.2597,-3.5558,-3.7128,-3.7382,-3.7382,-3.7742,-3.8263,-3.8263,-3.8477,-3.8718,-3.8718,-3.8718,-3.8718,-3.8718,-3.8718,-3.8718,-3.8718,-3.8718,-3.8718,-3.8718,-3.8718,-3.8718,-3.8718,-3.8718,-3.8718,-3.8718,-3.8718,-3.8718,-3.8718,-3.8718,-3.8718,-3.8718,-3.8718,-3.8718,-3.8718,-3.8718,-3.8718,-3.8718,-3.8718,-3.8718,-3.8718,-3.8718,-3.8718,-3.8718,-3.8718,-3.8718,-3.8718,-3.8718,-3.8718,-3.8718,-3.8718,-3.8718,-3.8718,-3.8718,-3.8718,-3.8718,-3.8718,-3.8718,-3.8718,-3.8718,-3.8718,-3.8718,-3.8718,-3.8718,-1.4299,0.0,0.0,0.0,0.0,0.0,0.0,0.0,0.0,0.0,0.0,0.0,0.0,0.0,0.0,0.0,0.0,0.0,0.0,0.0,0.0,0.0,0.0,0.0,0.0,0.0,0.0,0.0,-1.7595,-1.7758,-1.786,-1.786,-1.786,-1.786,-1.8158,-1.8321,-1.8321,-1.862,-1.8762,-1.8762,-1.8762,-1.8762,-1.8762,-1.8762,-1.9907,-2.2185,-2.6272,-2.9674,-3.2597,-3.5558,-3.7128,-3.7422,-3.7595,-3.7929,-3.829,-3.8504,-3.8651,-3.8718,-3.8718,-3.8718,-3.8718,-3.8718,-3.8718,-3.8718,-3.8718,-3.8718,-3.8718,-3.8718,-3.8718,-3.8718,-3.8718,-3.8718,-3.8718,-3.8718,-3.8718,-3.8718,-3.8718,-3.8718,-3.8718,-3.8718,-3.8718,-3.8718,-3.8718,-3.8718,-3.8718,-3.8718,-3.8718,-3.8718,-3.8718,-3.8718,-3.8718,-3.8718,-3.8718,-3.8718,-3.8718,-3.8718,-3.8718,-3.8718,-3.8718,-3.8718,-3.8718,-3.8718,-3.8718,-3.8718,-3.8718,-3.8718,-3.8718,-3.8718,-3.8718,-3.8718,-3.8718,-3.8718,0.0,0.0,0.0,0.0,0.0,0.0,0.0,-1.5248,0.0,0.0,0.0,0.0,0.0,0.0,0.0,0.0,0.0,0.0,0.0,0.0,0.0,0.0,0.0,0.0,0.0,0.0,0.0,-1.7405,-1.7561,-1.7717,-1.786,-1.786,-1.786,-1.786,-1.8158,-1.8321,-1.8321,-1.862,-1.8762,-1.8762,-1.8762,-1.8762,-1.8762,-1.8762,-1.9669,-2.1725,-2.6054,-2.8996,-3.0823,-3.5227,-3.7301,-3.7595,-3.7889,-3.8183,-3.8477,-3.8651,-3.8718,-3.8718,-3.8718,-3.8718,-3.8718,-3.8718,-3.8718,-3.8718,-3.8718,-3.8718,-3.8718,-3.8718,-3.8718,-3.8718,-3.8718,-3.8718,-3.8718,-3.8718,-3.8718,-3.8718,-3.8718,-3.8718,-3.8718,-3.8718,-3.8718,-3.8718,-3.8718,-3.8718,-3.8718,-3.8718,-3.8718,-3.8718,-3.8718,-3.8718,-3.8718,-3.8718,-3.8718,-3.8718,-3.8718,-3.8718,-3.8718,-3.8718,-3.8718,-3.8718,-3.8718,-3.8718,-3.8718,-3.8718,-3.8718,-3.8718,-3.8718,-3.8718,-3.8718,-3.8718,-3.8718,-3.8718,0.0,0.0,0.0,0.0,0.0,0.0,-1.5181,-1.5181,-1.5269,0.0,0.0,0.0,0.0,0.0,0.0,0.0,0.0,0.0,0.0,0.0,0.0,0.0,0.0,0.0,0.0,-1.7093,-1.7229,-1.7385,-1.7555,-1.7717,-1.786,-1.786,-1.786,-1.786,-1.8158,-1.8321,-1.8321,-1.862,-1.8762,-1.8762,-1.8762,-1.8762,-1.8762,-1.8762,-1.8762,-1.9219,-2.4921,-2.7429,-2.7914,-3.3855,-3.6879,-3.7849,-3.8143,-3.8437,-3.8718,-3.8718,-3.8718,-3.8718,-3.8718,-3.8718,-3.8718,-3.824,-3.8485,-3.8718,-3.824,-3.8485,-3.8718,-3.8718,-3.8718,-3.8718,-3.8718,-3.8718,-3.8718,-3.8718,-3.8718,-3.8718,-3.8718,-3.8718,-3.8718,-3.8718,-3.8718,-3.8718,-3.8718,-3.8718,-3.8718,-3.8718,-3.8718,-3.8718,-3.8718,-3.8718,-3.8718,-3.8718,-3.8718,-3.8718,-3.8718,-3.8718,-3.8718,-3.8718,-3.8718,-3.8718,-3.8718,-3.8718,-3.8718,-3.8718,-3.8718,-3.8718,-3.8718,-3.8718,-3.8718,-3.8718,-3.8718,-3.8718,0.0,0.0,0.0,0.0,0.0,0.0,-1.5181,-1.5181,-1.5269,0.0,0.0,0.0,0.0,0.0,0.0,0.0,0.0,0.0,0.0,0.0,0.0,0.0,0.0,0.0,0.0,-1.7005,-1.708,-1.7222,-1.7494,-1.7717,-1.786,-1.786,-1.786,-1.786,-1.8158,-1.8321,-1.8321,-1.862,-1.8762,-1.8762,-1.8762,-1.8762,-1.8762,-1.8762,-1.8762,-1.898,-2.2645,-2.4305,-2.4694,-2.8569,-3.3113,-3.7849,-3.8143,-3.8437,-3.8718,-3.8718,-3.8718,-3.8718,-3.8718,-3.8718,-3.824,-3.5612,-3.6558,-3.824,-3.5612,-3.6558,-3.8718,-3.8718,-3.8718,-3.8718,-3.8718,-3.8718,-3.8718,-3.8718,-3.8718,-3.8718,-3.8718,-3.8718,-3.8718,-3.8718,-3.8718,-3.8718,-3.8718,-3.8718,-3.8718,-3.8718,-3.8718,-3.8718,-3.8718,-3.8718,-3.8718,-3.8718,-3.8718,-3.8718,-3.8718,-3.8718,-3.8718,-3.8718,-3.8718,-3.8718,-3.8718,-3.8718,-3.8718,-3.8718,-3.8718,-3.8718,-3.8718,-3.8718,-3.8718,-3.8718,-3.8718,-3.8718,0.0,0.0,0.0,-1.5059,0.0,0.0,0.0,-1.5181,-1.5269,-1.5574,0.0,0.0,0.0,0.0,0.0,0.0,0.0,0.0,0.0,0.0,0.0,0.0,0.0,0.0,0.0,-1.6937,-1.7073,-1.729,-1.7521,-1.7717,-1.786,-1.786,-1.786,-1.786,-1.8158,-1.8321,-1.8321,-1.862,-1.8762,-1.8762,-1.8762,-1.8762,-1.8762,-1.8762,-1.8762,-1.9001,-2.1947,-2.3428,-2.3829,-2.7029,-3.1364,-3.571,-3.5986,-3.7155,-3.8718,-3.8718,-3.8718,-3.8718,-3.8718,-3.8718,-3.8227,-3.4873,-3.6092,-3.8021,-3.4897,-3.6067,-3.8718,-3.8718,-3.8718,-3.8718,-3.8718,-3.8718,-3.8718,-3.8718,-3.8718,-3.8718,-3.8718,-3.8718,-3.8718,-3.8718,-3.8718,-3.8718,-3.8718,-3.8718,-3.8718,-3.8718,-3.8718,-3.8718,-3.8718,-3.8718,-3.8718,-3.8718,-3.8718,-3.8718,-3.8718,-3.8718,-3.8718,-3.8718,-3.8718,-3.8718,-3.8718,-3.8718,-3.8718,-3.8718,-3.8718,-3.8718,-3.8718,-3.8718,-3.8718,-3.8718,-3.8718,-3.8718,0.0,0.0,0.0,0.0,0.0,-1.5181,0.0,0.0,0.0,-1.5581,-1.5662,-1.5764,0.0,0.0,0.0,0.0,0.0,0.0,0.0,0.0,0.0,0.0,0.0,0.0,0.0,-1.689,-1.7093,-1.7358,-1.7521,-1.767,-1.7812,-1.7846,-1.786,-1.786,-1.8124,-1.8287,-1.8321,-1.8586,-1.8728,-1.8762,-1.8762,-1.8762,-1.8762,-1.8762,-1.8762,-1.9001,-2.1271,-2.2529,-2.2965,-2.5661,-2.9139,-3.2686,-3.3607,-3.5833,-3.8718,-3.8718,-3.8718,-3.8718,-3.8007,-3.7749,-3.705,-3.3218,-3.4158,-3.6558,-3.5131,-3.6558,-3.8718,-3.8718,-3.8718,-3.8718,-3.8718,-3.8718,-3.8718,-3.8718,-3.8718,-3.8718,-3.8718,-3.8718,-3.8718,-3.8718,-3.8718,-3.8718,-3.8718,-3.8718,-3.8718,-3.8718,-3.8718,-3.8718,-3.8718,-3.8718,-3.8718,-3.8718,-3.8718,-3.8718,-3.8718,-3.8718,-3.8718,-3.8718,-3.8718,-3.8718,-3.8718,-3.8718,-3.8718,-3.8718,-3.8718,-3.8718,-3.8718,-3.8718,-3.8718,-3.8718,-3.8718,-3.8718,0.0,0.0,0.0,0.0,-1.5181,0.0,0.0,0.0,-1.5432,-1.5601,0.0,0.0,0.0,0.0,0.0,0.0,0.0,0.0,0.0,0.0,0.0,0.0,0.0,0.0,0.0,0.0,-1.7046,-1.7209,-1.7358,-1.7514,-1.767,-1.7792,-1.786,-1.786,-1.8023,-1.8179,-1.8321,-1.8477,-1.862,-1.8762,-1.8762,-1.8762,-1.8762,-1.8762,-1.8762,-1.8762,-1.9219,-1.9386,-1.9643,-2.0124,-2.407,-3.0085,-3.2736,-3.5833,-3.8718,-3.8718,-3.8718,-3.824,-3.5353,-3.4416,-3.3442,-2.7521,-2.775,-3.1332,-3.6584,-3.8485,-3.8718,-3.8718,-3.8718,-3.8718,-3.8718,-3.8718,-3.8718,-3.8718,-3.8718,-3.8718,-3.8718,-3.8718,-3.8718,-3.8718,-3.8718,-3.8718,-3.8718,-3.8718,-3.8718,-3.8718,-3.8718,-3.8718,-3.8718,-3.8718,-3.8718,-3.8718,-3.8718,-3.8718,-3.8718,-3.8718,-3.8718,-3.8718,-3.8718,-3.8718,-3.8718,-3.8718,-3.8718,-3.8718,-3.8718,-3.8718,-3.8718,-3.8718,-3.8718,-3.8718,-3.8718,-3.8718,0.0,0.0,0.0,0.0,0.0,0.0,0.0,0.0,-1.5479,0.0,0.0,0.0,0.0,0.0,0.0,0.0,0.0,0.0,0.0,0.0,0.0,0.0,0.0,0.0,0.0,0.0,0.0,0.0,0.0,-1.7487,-1.765,-1.7792,-1.786,-1.786,-1.8002,-1.8158,-1.8321,-1.8464,-1.8599,-1.8762,-1.8762,-1.8762,-1.8762,-1.8762,-1.8762,-1.8762,-1.8762,-1.8938,-1.9203,-1.9203,-2.3146,-2.9425,-3.0601,-3.4193,-3.8718,-3.8718,-3.8718,-3.824,-3.5107,-3.3923,-3.3207,-2.8692,-2.7998,-3.0137,-3.4663,-3.7283,-3.8718,-3.8718,-3.8718,-3.8718,-3.8718,-3.8718,-3.8718,-3.8718,-3.8718,-3.8718,-3.8718,-3.8718,-3.8718,-3.8718,-3.8718,-3.8718,-3.8718,-3.8718,-3.8718,-3.8718,-3.8718,-3.8718,-3.8718,-3.8718,-3.8718,-3.8718,-3.8718,-3.8718,-3.8718,-3.8718,-3.8718,-3.8718,-3.8718,-3.8718,-3.8718,-3.8718,-3.8718,-3.8718,-3.8718,-3.8718,-3.8718,-3.8718,-3.8718,-3.8718,-3.8718,-3.8718,-1.5309,0.0,0.0,0.0,0.0,0.0,0.0,0.0,0.0,0.0,0.0,0.0,0.0,0.0,0.0,0.0,0.0,0.0,0.0,0.0,0.0,0.0,0.0,0.0,0.0,0.0,0.0,-1.7114,-1.727,-1.7426,-1.7582,-1.7717,-1.7826,-1.786,-1.7968,-1.8124,-1.8321,-1.8423,-1.8565,-1.8762,-1.8762,-1.8762,-1.8762,-1.8762,-1.8762,-1.8762,-1.8762,-1.8938,-1.9203,-1.9203,-2.3146,-2.9178,-2.9178,-3.2512,-3.7516,-3.8485,-3.8227,-3.7025,-3.37,-3.1557,-2.9879,-2.8464,-2.8474,-2.9879,-3.2983,-3.6067,-3.8718,-3.8718,-3.8718,-3.8718,-3.8718,-3.8718,-3.8718,-3.8718,-3.8718,-3.8718,-3.8718,-3.8718,-3.8718,-3.8718,-3.8718,-3.8718,-3.8718,-3.8718,-3.8718,-3.8718,-3.8718,-3.8718,-3.8718,-3.8718,-3.8718,-3.8718,-3.8718,-3.8718,-3.8718,-3.8718,-3.8718,-3.8718,-3.8718,-3.8718,-3.8718,-3.8718,-3.8718,-3.8718,-3.8718,-3.8718,-3.8718,-3.8718,-3.8718,-3.8718,-3.8718,-3.8718,0.0,0.0,0.0,0.0,0.0,0.0,0.0,0.0,-1.5845,0.0,0.0,0.0,0.0,0.0,0.0,0.0,0.0,0.0,0.0,0.0,0.0,0.0,0.0,0.0,0.0,0.0,0.0,-1.6978,-1.7121,-1.7263,-1.7419,-1.7575,-1.7717,-1.786,-1.786,-1.8023,-1.8321,-1.8321,-1.8477,-1.8762,-1.8762,-1.8762,-1.8762,-1.8762,-1.8762,-1.8762,-1.8762,-1.8938,-1.9203,-1.9203,-2.3146,-2.9178,-2.9178,-3.1095,-3.4416,-3.7529,-3.6804,-3.3688,-3.0374,-2.5395,-2.0608,-2.3712,-2.6575,-2.9879,-3.2983,-3.6067,-3.8718,-3.8718,-3.8718,-3.8718,-3.8718,-3.8718,-3.8718,-3.8718,-3.8718,-3.8718,-3.8718,-3.8718,-3.8718,-3.8718,-3.8718,-3.8718,-3.8718,-3.8718,-3.8718,-3.8718,-3.8718,-3.8718,-3.8718,-3.8718,-3.8718,-3.8718,-3.8718,-3.8718,-3.8718,-3.8718,-3.8718,-3.8718,-3.8718,-3.8718,-3.8718,-3.8718,-3.8718,-3.8718,-3.8718,-3.8718,-3.8718,-3.8718,-3.8718,-3.8718,-3.8718,-3.8718,0.0,0.0,-1.5642,-1.5642,0.0,0.0,0.0,0.0,0.0,0.0,0.0,0.0,0.0,0.0,0.0,0.0,0.0,0.0,0.0,0.0,0.0,0.0,0.0,0.0,0.0,0.0,0.0,-1.6815,-1.7053,-1.7256,-1.7412,-1.7568,-1.7717,-1.786,-1.786,-1.8002,-1.8321,-1.8321,-1.8464,-1.8762,-1.8762,-1.8762,-1.8762,-1.8762,-1.8762,-1.8762,-1.8762,-1.8938,-1.9203,-1.9203,-2.3146,-2.895,-2.6795,-2.9188,-3.3935,-3.5119,-3.3442,-3.0374,-2.7053,-2.3238,-1.9908,-2.0865,-2.4915,-2.9405,-3.0353,-3.4416,-3.8718,-3.8718,-3.8718,-3.8718,-3.8718,-3.8718,-3.8718,-3.8718,-3.8718,-3.8718,-3.8718,-3.8718,-3.8718,-3.8718,-3.8718,-3.8718,-3.8718,-3.8718,-3.8718,-3.8718,-3.8718,-3.8718,-3.8718,-3.8718,-3.8718,-3.8718,-3.8718,-3.8718,-3.8718,-3.8718,-3.8718,-3.8718,-3.8718,-3.8718,-3.8718,-3.8718,-3.8718,-3.8718,-3.8718,-3.8718,-3.8718,-3.8718,-3.8718,-3.8718,-3.8718,-3.8718,-1.5798,-1.5798,0.0,-1.5798,-1.5798,0.0,-1.5913,0.0,0.0,0.0,0.0,0.0,0.0,0.0,0.0,0.0,0.0,0.0,0.0,0.0,0.0,0.0,0.0,0.0,0.0,0.0,-1.653,-1.6734,-1.6924,-1.7127,0.0,0.0,-1.7629,-1.7772,-1.7846,-1.8002,-1.8321,-1.8321,-1.8464,-1.8762,-1.8762,-1.8762,-1.8762,-1.8762,-1.8762,-1.8762,-1.8816,-1.8972,-1.9203,-1.9257,-2.3211,-2.895,-2.5626,-2.7511,-3.2276,-3.2276,-3.0127,-2.7044,-2.372,-2.1328,-1.9664,-1.9664,-2.3238,-2.7759,-2.894,-3.2736,-3.7283,-3.8485,-3.8718,-3.8718,-3.8718,-3.8718,-3.8718,-3.8718,-3.8718,-3.8718,-3.8718,-3.8718,-3.8718,-3.8718,-3.8718,-3.8718,-3.8718,-3.8718,-3.8718,-3.8718,-3.8718,-3.8718,-3.8718,-3.8718,-3.8718,-3.8718,-3.8718,-3.8718,-3.8718,-3.8718,-3.8718,-3.8718,-3.8718,-3.8718,-3.8718,-3.8718,-3.8718,-3.8718,-3.8718,-3.8718,-3.8718,-3.8718,-3.8718,-3.8718,-3.8718,-3.8718]}]]